<?xml version='1.0' encoding='UTF-8'?><gpx version="1.1" creator="JPX - https://github.com/jenetics/jpx" xmlns="http://www.topografix.com/GPX/1/1"><trk><trkseg><trkpt lat="44.8742633" lon="7.2122783"><ele>1486.1666666666665</ele><time>2026-04-11T14:23:33.999Z</time></trkpt><trkpt lat="44.8742733" lon="7.212185"><ele>1489.3333333333333</ele><time>2026-04-11T14:23:37.999Z</time></trkpt><trkpt lat="44.874305" lon="7.21208"><ele>1492.5</ele><time>2026-04-11T14:23:40.999Z</time></trkpt><trkpt lat="44.87435" lon="7.2119617"><ele>1495.6666666666667</ele><time>2026-04-11T14:23:43.999Z</time></trkpt><trkpt lat="44.8744" lon="7.2118583"><ele>1498.8333333333335</ele><time>2026-04-11T14:23:46.999Z</time></trkpt><trkpt lat="44.8744533" lon="7.21179"><ele>1502.0</ele><time>2026-04-11T14:23:48.999Z</time></trkpt><trkpt lat="44.8745067" lon="7.2116967"><ele>1502.0</ele><time>2026-04-11T14:23:51.999Z</time></trkpt><trkpt lat="44.8745617" lon="7.2116167"><ele>1502.0</ele><time>2026-04-11T14:23:55.999Z</time></trkpt><trkpt lat="44.8746017" lon="7.21154"><ele>1502.0</ele><time>2026-04-11T14:23:58.999Z</time></trkpt><trkpt lat="44.8746333" lon="7.2114483"><ele>1502.0</ele><time>2026-04-11T14:24:00.999Z</time></trkpt><trkpt lat="44.87467" lon="7.2113417"><ele>1502.0</ele><time>2026-04-11T14:24:02.999Z</time></trkpt><trkpt lat="44.8747167" lon="7.2112083"><ele>1502.0</ele><time>2026-04-11T14:24:05Z</time></trkpt><trkpt lat="44.8747617" lon="7.2110683"><ele>1501.25</ele><time>2026-04-11T14:24:06.999Z</time></trkpt><trkpt lat="44.8748183" lon="7.2109367"><ele>1500.5</ele><time>2026-04-11T14:24:08.999Z</time></trkpt><trkpt lat="44.874885" lon="7.2108067"><ele>1499.75</ele><time>2026-04-11T14:24:10.999Z</time></trkpt><trkpt lat="44.874935" lon="7.2106583"><ele>1499.0</ele><time>2026-04-11T14:24:12.999Z</time></trkpt><trkpt lat="44.8749617" lon="7.210485"><ele>1496.8333333333335</ele><time>2026-04-11T14:24:14.999Z</time></trkpt><trkpt lat="44.8749933" lon="7.2103717"><ele>1494.6666666666667</ele><time>2026-04-11T14:24:15.999Z</time></trkpt><trkpt lat="44.8750033" lon="7.210265"><ele>1492.5</ele><time>2026-04-11T14:24:16.999Z</time></trkpt><trkpt lat="44.8750183" lon="7.2101583"><ele>1490.3333333333333</ele><time>2026-04-11T14:24:17.999Z</time></trkpt><trkpt lat="44.8750317" lon="7.21006"><ele>1488.1666666666665</ele><time>2026-04-11T14:24:18.999Z</time></trkpt><trkpt lat="44.875045" lon="7.209955"><ele>1486.0</ele><time>2026-04-11T14:24:19.999Z</time></trkpt><trkpt lat="44.8750617" lon="7.20984"><ele>1486.2857142857144</ele><time>2026-04-11T14:24:20.999Z</time></trkpt><trkpt lat="44.8750883" lon="7.209725"><ele>1486.5714285714284</ele><time>2026-04-11T14:24:21.999Z</time></trkpt><trkpt lat="44.8751133" lon="7.2096183"><ele>1486.857142857143</ele><time>2026-04-11T14:24:22.999Z</time></trkpt><trkpt lat="44.8751233" lon="7.2095167"><ele>1487.1428571428573</ele><time>2026-04-11T14:24:23.999Z</time></trkpt><trkpt lat="44.8751317" lon="7.2094217"><ele>1487.4285714285716</ele><time>2026-04-11T14:24:25Z</time></trkpt><trkpt lat="44.8751367" lon="7.2093167"><ele>1487.7142857142858</ele><time>2026-04-11T14:24:25.999Z</time></trkpt><trkpt lat="44.875145" lon="7.209225"><ele>1488.0</ele><time>2026-04-11T14:24:26.999Z</time></trkpt><trkpt lat="44.8751633" lon="7.20905"><ele>1486.0</ele><time>2026-04-11T14:24:28.999Z</time></trkpt><trkpt lat="44.87518" lon="7.2089017"><ele>1484.0</ele><time>2026-04-11T14:24:31Z</time></trkpt><trkpt lat="44.8751967" lon="7.208775"><ele>1482.0</ele><time>2026-04-11T14:24:32.999Z</time></trkpt><trkpt lat="44.8752167" lon="7.208655"><ele>1480.0</ele><time>2026-04-11T14:24:34.999Z</time></trkpt><trkpt lat="44.8752367" lon="7.208525"><ele>1478.0</ele><time>2026-04-11T14:24:36.999Z</time></trkpt><trkpt lat="44.8752533" lon="7.20839"><ele>1478.0</ele><time>2026-04-11T14:24:38.999Z</time></trkpt><trkpt lat="44.8752833" lon="7.2082717"><ele>1478.0</ele><time>2026-04-11T14:24:40.999Z</time></trkpt><trkpt lat="44.8753133" lon="7.2081817"><ele>1478.0</ele><time>2026-04-11T14:24:42.999Z</time></trkpt><trkpt lat="44.87535" lon="7.2080617"><ele>1478.0</ele><time>2026-04-11T14:24:45.999Z</time></trkpt><trkpt lat="44.8753617" lon="7.207965"><ele>1478.0</ele><time>2026-04-11T14:24:47.999Z</time></trkpt><trkpt lat="44.875375" lon="7.207875"><ele>1478.0</ele><time>2026-04-11T14:24:49.999Z</time></trkpt><trkpt lat="44.87539" lon="7.2077867"><ele>1477.0</ele><time>2026-04-11T14:24:51.999Z</time></trkpt><trkpt lat="44.875415" lon="7.2077017"><ele>1476.0</ele><time>2026-04-11T14:24:53.999Z</time></trkpt><trkpt lat="44.8754417" lon="7.2076067"><ele>1475.0</ele><time>2026-04-11T14:24:55.999Z</time></trkpt><trkpt lat="44.8754683" lon="7.2075083"><ele>1474.0</ele><time>2026-04-11T14:24:58Z</time></trkpt><trkpt lat="44.8754917" lon="7.20741"><ele>1473.0</ele><time>2026-04-11T14:24:59.999Z</time></trkpt><trkpt lat="44.8755133" lon="7.2072783"><ele>1472.0</ele><time>2026-04-11T14:25:02.999Z</time></trkpt><trkpt lat="44.8755367" lon="7.207195"><ele>1471.0</ele><time>2026-04-11T14:25:05Z</time></trkpt><trkpt lat="44.8755633" lon="7.2070917"><ele>1470.6666666666665</ele><time>2026-04-11T14:25:07.999Z</time></trkpt><trkpt lat="44.8755817" lon="7.2070033"><ele>1470.3333333333333</ele><time>2026-04-11T14:25:09.999Z</time></trkpt><trkpt lat="44.8755983" lon="7.20691"><ele>1470.0</ele><time>2026-04-11T14:25:11.999Z</time></trkpt><trkpt lat="44.87561" lon="7.2067933"><ele>1469.6666666666667</ele><time>2026-04-11T14:25:14Z</time></trkpt><trkpt lat="44.87562" lon="7.206665"><ele>1469.3333333333335</ele><time>2026-04-11T14:25:15.999Z</time></trkpt><trkpt lat="44.8756383" lon="7.206555"><ele>1469.0</ele><time>2026-04-11T14:25:17.999Z</time></trkpt><trkpt lat="44.8756533" lon="7.20646"><ele>1468.1666666666667</ele><time>2026-04-11T14:25:19.999Z</time></trkpt><trkpt lat="44.875665" lon="7.206365"><ele>1467.3333333333335</ele><time>2026-04-11T14:25:21.999Z</time></trkpt><trkpt lat="44.87566" lon="7.2062467"><ele>1466.5</ele><time>2026-04-11T14:25:23.999Z</time></trkpt><trkpt lat="44.875665" lon="7.2060967"><ele>1465.6666666666667</ele><time>2026-04-11T14:25:25.999Z</time></trkpt><trkpt lat="44.87566" lon="7.20597"><ele>1464.8333333333333</ele><time>2026-04-11T14:25:28Z</time></trkpt><trkpt lat="44.875655" lon="7.205875"><ele>1464.0</ele><time>2026-04-11T14:25:29.999Z</time></trkpt><trkpt lat="44.8756533" lon="7.20576"><ele>1464.0</ele><time>2026-04-11T14:25:32.999Z</time></trkpt><trkpt lat="44.87566" lon="7.2056433"><ele>1464.0</ele><time>2026-04-11T14:25:35.999Z</time></trkpt><trkpt lat="44.8756467" lon="7.2055317"><ele>1464.0</ele><time>2026-04-11T14:25:37.999Z</time></trkpt><trkpt lat="44.8756217" lon="7.20539"><ele>1464.0</ele><time>2026-04-11T14:25:39.999Z</time></trkpt><trkpt lat="44.8756117" lon="7.2052667"><ele>1464.0</ele><time>2026-04-11T14:25:41.999Z</time></trkpt><trkpt lat="44.8755967" lon="7.205125"><ele>1464.0</ele><time>2026-04-11T14:25:43.999Z</time></trkpt><trkpt lat="44.875565" lon="7.2049867"><ele>1464.0</ele><time>2026-04-11T14:25:45.999Z</time></trkpt><trkpt lat="44.8755333" lon="7.2048683"><ele>1464.0</ele><time>2026-04-11T14:25:47.999Z</time></trkpt><trkpt lat="44.87551" lon="7.2047483"><ele>1464.0</ele><time>2026-04-11T14:25:49.999Z</time></trkpt><trkpt lat="44.8754933" lon="7.2046317"><ele>1464.0</ele><time>2026-04-11T14:25:51.999Z</time></trkpt><trkpt lat="44.8754883" lon="7.2045183"><ele>1464.0</ele><time>2026-04-11T14:25:54Z</time></trkpt><trkpt lat="44.8754933" lon="7.2044183"><ele>1463.6</ele><time>2026-04-11T14:25:56Z</time></trkpt><trkpt lat="44.8754967" lon="7.204305"><ele>1463.2</ele><time>2026-04-11T14:25:58Z</time></trkpt><trkpt lat="44.875505" lon="7.2041783"><ele>1462.8</ele><time>2026-04-11T14:26:00Z</time></trkpt><trkpt lat="44.87552" lon="7.2040167"><ele>1462.3999999999999</ele><time>2026-04-11T14:26:02Z</time></trkpt><trkpt lat="44.8755317" lon="7.2038783"><ele>1462.0</ele><time>2026-04-11T14:26:04Z</time></trkpt><trkpt lat="44.87556" lon="7.203735"><ele>1462.0</ele><time>2026-04-11T14:26:06Z</time></trkpt><trkpt lat="44.8755833" lon="7.2035983"><ele>1462.0</ele><time>2026-04-11T14:26:08Z</time></trkpt><trkpt lat="44.8756067" lon="7.2034933"><ele>1462.0</ele><time>2026-04-11T14:26:10Z</time></trkpt><trkpt lat="44.8756317" lon="7.2033817"><ele>1462.0</ele><time>2026-04-11T14:26:12Z</time></trkpt><trkpt lat="44.875655" lon="7.2032917"><ele>1462.0</ele><time>2026-04-11T14:26:14Z</time></trkpt><trkpt lat="44.8756717" lon="7.2032"><ele>1462.0</ele><time>2026-04-11T14:26:16Z</time></trkpt><trkpt lat="44.8756883" lon="7.2030983"><ele>1462.3333333333333</ele><time>2026-04-11T14:26:19Z</time></trkpt><trkpt lat="44.875665" lon="7.20301"><ele>1462.6666666666665</ele><time>2026-04-11T14:27:23Z</time></trkpt><trkpt lat="44.8756583" lon="7.2028867"><ele>1463.0</ele><time>2026-04-11T14:27:25Z</time></trkpt><trkpt lat="44.8756583" lon="7.202745"><ele>1463.3333333333333</ele><time>2026-04-11T14:27:27Z</time></trkpt><trkpt lat="44.8756833" lon="7.2025817"><ele>1463.6666666666667</ele><time>2026-04-11T14:27:29Z</time></trkpt><trkpt lat="44.8757033" lon="7.2024933"><ele>1464.0</ele><time>2026-04-11T14:27:30Z</time></trkpt><trkpt lat="44.8757233" lon="7.2023983"><ele>1464.0</ele><time>2026-04-11T14:27:31Z</time></trkpt><trkpt lat="44.875745" lon="7.2022983"><ele>1464.0</ele><time>2026-04-11T14:27:32Z</time></trkpt><trkpt lat="44.87576" lon="7.2021917"><ele>1464.0</ele><time>2026-04-11T14:27:33Z</time></trkpt><trkpt lat="44.8757683" lon="7.2020733"><ele>1464.0</ele><time>2026-04-11T14:27:34Z</time></trkpt><trkpt lat="44.87577" lon="7.20195"><ele>1464.0</ele><time>2026-04-11T14:27:35Z</time></trkpt><trkpt lat="44.8757617" lon="7.2018383"><ele>1464.0</ele><time>2026-04-11T14:27:36Z</time></trkpt><trkpt lat="44.87575" lon="7.20172"><ele>1464.0</ele><time>2026-04-11T14:27:37Z</time></trkpt><trkpt lat="44.875735" lon="7.2015983"><ele>1464.0</ele><time>2026-04-11T14:27:38Z</time></trkpt><trkpt lat="44.8757183" lon="7.2014717"><ele>1464.0</ele><time>2026-04-11T14:27:39Z</time></trkpt><trkpt lat="44.8756967" lon="7.2013533"><ele>1464.0</ele><time>2026-04-11T14:27:40Z</time></trkpt><trkpt lat="44.8756717" lon="7.2012283"><ele>1464.0</ele><time>2026-04-11T14:27:41Z</time></trkpt><trkpt lat="44.8756433" lon="7.201095"><ele>1464.6</ele><time>2026-04-11T14:27:42Z</time></trkpt><trkpt lat="44.8756167" lon="7.20096"><ele>1465.2</ele><time>2026-04-11T14:27:43Z</time></trkpt><trkpt lat="44.8756" lon="7.200825"><ele>1465.8</ele><time>2026-04-11T14:27:44Z</time></trkpt><trkpt lat="44.87558" lon="7.2006933"><ele>1466.3999999999999</ele><time>2026-04-11T14:27:45Z</time></trkpt><trkpt lat="44.8755683" lon="7.200565"><ele>1467.0</ele><time>2026-04-11T14:27:46Z</time></trkpt><trkpt lat="44.8755517" lon="7.2004217"><ele>1467.0</ele><time>2026-04-11T14:27:47Z</time></trkpt><trkpt lat="44.8755333" lon="7.200275"><ele>1467.0</ele><time>2026-04-11T14:27:48.001Z</time></trkpt><trkpt lat="44.87551" lon="7.200135"><ele>1467.0</ele><time>2026-04-11T14:27:49Z</time></trkpt><trkpt lat="44.875495" lon="7.1999817"><ele>1467.0</ele><time>2026-04-11T14:27:50Z</time></trkpt><trkpt lat="44.8754733" lon="7.199825"><ele>1467.0</ele><time>2026-04-11T14:27:51Z</time></trkpt><trkpt lat="44.8754567" lon="7.1996683"><ele>1467.3999999999999</ele><time>2026-04-11T14:27:52Z</time></trkpt><trkpt lat="44.875445" lon="7.199515"><ele>1467.8</ele><time>2026-04-11T14:27:53Z</time></trkpt><trkpt lat="44.87543" lon="7.199355"><ele>1468.2</ele><time>2026-04-11T14:27:54Z</time></trkpt><trkpt lat="44.87541" lon="7.19921"><ele>1468.6</ele><time>2026-04-11T14:27:55Z</time></trkpt><trkpt lat="44.8753933" lon="7.1990633"><ele>1469.0</ele><time>2026-04-11T14:27:56Z</time></trkpt><trkpt lat="44.87539" lon="7.1989167"><ele>1469.0</ele><time>2026-04-11T14:27:57Z</time></trkpt><trkpt lat="44.875395" lon="7.1987717"><ele>1469.0</ele><time>2026-04-11T14:27:58Z</time></trkpt><trkpt lat="44.8754033" lon="7.1986317"><ele>1469.0</ele><time>2026-04-11T14:27:59Z</time></trkpt><trkpt lat="44.87541" lon="7.198495"><ele>1469.0</ele><time>2026-04-11T14:28:00.001Z</time></trkpt><trkpt lat="44.8754183" lon="7.19836"><ele>1469.0</ele><time>2026-04-11T14:28:01Z</time></trkpt><trkpt lat="44.8754283" lon="7.19823"><ele>1469.0</ele><time>2026-04-11T14:28:02Z</time></trkpt><trkpt lat="44.875425" lon="7.198095"><ele>1469.0</ele><time>2026-04-11T14:28:03Z</time></trkpt><trkpt lat="44.8754167" lon="7.197965"><ele>1469.0</ele><time>2026-04-11T14:28:04.001Z</time></trkpt><trkpt lat="44.8754017" lon="7.197835"><ele>1469.0</ele><time>2026-04-11T14:28:05Z</time></trkpt><trkpt lat="44.8753867" lon="7.1977067"><ele>1469.0</ele><time>2026-04-11T14:28:06Z</time></trkpt><trkpt lat="44.8753683" lon="7.197585"><ele>1469.0</ele><time>2026-04-11T14:28:07Z</time></trkpt><trkpt lat="44.8753583" lon="7.1974667"><ele>1469.0</ele><time>2026-04-11T14:28:08Z</time></trkpt><trkpt lat="44.875355" lon="7.1973417"><ele>1469.0</ele><time>2026-04-11T14:28:09Z</time></trkpt><trkpt lat="44.8753483" lon="7.1972167"><ele>1469.0</ele><time>2026-04-11T14:28:10.001Z</time></trkpt><trkpt lat="44.8753367" lon="7.1970867"><ele>1469.0</ele><time>2026-04-11T14:28:11Z</time></trkpt><trkpt lat="44.875325" lon="7.1969533"><ele>1472.2</ele><time>2026-04-11T14:28:12Z</time></trkpt><trkpt lat="44.8753017" lon="7.1968267"><ele>1475.4</ele><time>2026-04-11T14:28:13.001Z</time></trkpt><trkpt lat="44.8752683" lon="7.1967"><ele>1478.6</ele><time>2026-04-11T14:28:14Z</time></trkpt><trkpt lat="44.8752283" lon="7.1965767"><ele>1481.8</ele><time>2026-04-11T14:28:15Z</time></trkpt><trkpt lat="44.8751833" lon="7.1964467"><ele>1485.0</ele><time>2026-04-11T14:28:16Z</time></trkpt><trkpt lat="44.8751367" lon="7.19632"><ele>1477.8</ele><time>2026-04-11T14:28:17Z</time></trkpt><trkpt lat="44.8750983" lon="7.196195"><ele>1470.6</ele><time>2026-04-11T14:28:18Z</time></trkpt><trkpt lat="44.875055" lon="7.1960733"><ele>1463.4</ele><time>2026-04-11T14:28:19Z</time></trkpt><trkpt lat="44.875025" lon="7.1959483"><ele>1456.2</ele><time>2026-04-11T14:28:20Z</time></trkpt><trkpt lat="44.8749967" lon="7.1958283"><ele>1449.0</ele><time>2026-04-11T14:28:21Z</time></trkpt><trkpt lat="44.87497" lon="7.1957183"><ele>1449.0</ele><time>2026-04-11T14:28:22Z</time></trkpt><trkpt lat="44.87495" lon="7.1956183"><ele>1449.0</ele><time>2026-04-11T14:28:23Z</time></trkpt><trkpt lat="44.8748983" lon="7.1954967"><ele>1449.0</ele><time>2026-04-11T14:28:25Z</time></trkpt><trkpt lat="44.87483" lon="7.1954867"><ele>1449.0</ele><time>2026-04-11T14:28:27Z</time></trkpt><trkpt lat="44.8748033" lon="7.195685"><ele>1449.0</ele><time>2026-04-11T14:28:29Z</time></trkpt><trkpt lat="44.874815" lon="7.1958283"><ele>1449.0</ele><time>2026-04-11T14:28:30Z</time></trkpt><trkpt lat="44.8748267" lon="7.1959733"><ele>1449.0</ele><time>2026-04-11T14:28:31Z</time></trkpt><trkpt lat="44.874835" lon="7.196125"><ele>1449.0</ele><time>2026-04-11T14:28:32Z</time></trkpt><trkpt lat="44.8748333" lon="7.1962733"><ele>1449.0</ele><time>2026-04-11T14:28:33Z</time></trkpt><trkpt lat="44.8748333" lon="7.1964267"><ele>1449.0</ele><time>2026-04-11T14:28:34Z</time></trkpt><trkpt lat="44.874835" lon="7.1965717"><ele>1448.2</ele><time>2026-04-11T14:28:35Z</time></trkpt><trkpt lat="44.8748367" lon="7.196715"><ele>1447.4</ele><time>2026-04-11T14:28:36Z</time></trkpt><trkpt lat="44.87484" lon="7.1968533"><ele>1446.6</ele><time>2026-04-11T14:28:37Z</time></trkpt><trkpt lat="44.874825" lon="7.19698"><ele>1445.8</ele><time>2026-04-11T14:28:38Z</time></trkpt><trkpt lat="44.87479" lon="7.1970967"><ele>1445.0</ele><time>2026-04-11T14:28:39Z</time></trkpt><trkpt lat="44.874755" lon="7.1972117"><ele>1445.0</ele><time>2026-04-11T14:28:40Z</time></trkpt><trkpt lat="44.8747267" lon="7.1973183"><ele>1445.0</ele><time>2026-04-11T14:28:41Z</time></trkpt><trkpt lat="44.8747033" lon="7.1974233"><ele>1445.0</ele><time>2026-04-11T14:28:42Z</time></trkpt><trkpt lat="44.8746933" lon="7.1975333"><ele>1445.0</ele><time>2026-04-11T14:28:43Z</time></trkpt><trkpt lat="44.874695" lon="7.1976467"><ele>1445.0</ele><time>2026-04-11T14:28:44Z</time></trkpt><trkpt lat="44.8747117" lon="7.1977617"><ele>1445.0</ele><time>2026-04-11T14:28:45Z</time></trkpt><trkpt lat="44.8747383" lon="7.1978767"><ele>1443.1666666666667</ele><time>2026-04-11T14:28:46Z</time></trkpt><trkpt lat="44.8747617" lon="7.197995"><ele>1441.3333333333335</ele><time>2026-04-11T14:28:47Z</time></trkpt><trkpt lat="44.874765" lon="7.1981117"><ele>1439.5</ele><time>2026-04-11T14:28:48Z</time></trkpt><trkpt lat="44.8747583" lon="7.19823"><ele>1437.6666666666667</ele><time>2026-04-11T14:28:49Z</time></trkpt><trkpt lat="44.8747483" lon="7.1983567"><ele>1435.8333333333333</ele><time>2026-04-11T14:28:50Z</time></trkpt><trkpt lat="44.8747367" lon="7.1984867"><ele>1434.0</ele><time>2026-04-11T14:28:51Z</time></trkpt><trkpt lat="44.8747283" lon="7.19861"><ele>1433.4</ele><time>2026-04-11T14:28:52.001Z</time></trkpt><trkpt lat="44.8747217" lon="7.1987317"><ele>1432.8000000000002</ele><time>2026-04-11T14:28:53Z</time></trkpt><trkpt lat="44.8747" lon="7.1988617"><ele>1432.1999999999998</ele><time>2026-04-11T14:28:54Z</time></trkpt><trkpt lat="44.8746833" lon="7.1990033"><ele>1431.6</ele><time>2026-04-11T14:28:55Z</time></trkpt><trkpt lat="44.8746733" lon="7.199135"><ele>1431.0</ele><time>2026-04-11T14:28:56Z</time></trkpt><trkpt lat="44.8746667" lon="7.199275"><ele>1431.0</ele><time>2026-04-11T14:28:57Z</time></trkpt><trkpt lat="44.8746617" lon="7.1994133"><ele>1431.0</ele><time>2026-04-11T14:28:58Z</time></trkpt><trkpt lat="44.874635" lon="7.1995483"><ele>1431.0</ele><time>2026-04-11T14:28:59.001Z</time></trkpt><trkpt lat="44.8746117" lon="7.1996983"><ele>1431.0</ele><time>2026-04-11T14:29:00Z</time></trkpt><trkpt lat="44.87458" lon="7.1998467"><ele>1431.0</ele><time>2026-04-11T14:29:01.001Z</time></trkpt><trkpt lat="44.8745467" lon="7.1999917"><ele>1431.6</ele><time>2026-04-11T14:29:02Z</time></trkpt><trkpt lat="44.8745167" lon="7.2001267"><ele>1432.1999999999998</ele><time>2026-04-11T14:29:03Z</time></trkpt><trkpt lat="44.8744917" lon="7.20026"><ele>1432.8000000000002</ele><time>2026-04-11T14:29:04Z</time></trkpt><trkpt lat="44.8744717" lon="7.2004"><ele>1433.4</ele><time>2026-04-11T14:29:05Z</time></trkpt><trkpt lat="44.874465" lon="7.2005467"><ele>1434.0</ele><time>2026-04-11T14:29:06.001Z</time></trkpt><trkpt lat="44.8744483" lon="7.20068"><ele>1434.4</ele><time>2026-04-11T14:29:07.001Z</time></trkpt><trkpt lat="44.8744217" lon="7.20082"><ele>1434.8000000000002</ele><time>2026-04-11T14:29:08Z</time></trkpt><trkpt lat="44.87438" lon="7.2009633"><ele>1435.1999999999998</ele><time>2026-04-11T14:29:09Z</time></trkpt><trkpt lat="44.8743333" lon="7.2010933"><ele>1435.6</ele><time>2026-04-11T14:29:10Z</time></trkpt><trkpt lat="44.8742867" lon="7.2012367"><ele>1436.0</ele><time>2026-04-11T14:29:11Z</time></trkpt><trkpt lat="44.874245" lon="7.2013833"><ele>1428.6</ele><time>2026-04-11T14:29:12Z</time></trkpt><trkpt lat="44.87421" lon="7.20153"><ele>1421.1999999999998</ele><time>2026-04-11T14:29:13Z</time></trkpt><trkpt lat="44.8741833" lon="7.2016817"><ele>1413.8000000000002</ele><time>2026-04-11T14:29:14Z</time></trkpt><trkpt lat="44.8741683" lon="7.2018267"><ele>1406.4</ele><time>2026-04-11T14:29:15Z</time></trkpt><trkpt lat="44.8741483" lon="7.2019667"><ele>1399.0</ele><time>2026-04-11T14:29:16Z</time></trkpt><trkpt lat="44.8741133" lon="7.2020983"><ele>1399.0</ele><time>2026-04-11T14:29:17Z</time></trkpt><trkpt lat="44.8740717" lon="7.2022217"><ele>1399.0</ele><time>2026-04-11T14:29:18Z</time></trkpt><trkpt lat="44.8740217" lon="7.20235"><ele>1399.0</ele><time>2026-04-11T14:29:19Z</time></trkpt><trkpt lat="44.87398" lon="7.202485"><ele>1399.0</ele><time>2026-04-11T14:29:20Z</time></trkpt><trkpt lat="44.8739383" lon="7.2026233"><ele>1399.0</ele><time>2026-04-11T14:29:21Z</time></trkpt><trkpt lat="44.8739" lon="7.2027717"><ele>1399.4</ele><time>2026-04-11T14:29:22Z</time></trkpt><trkpt lat="44.8738583" lon="7.2029117"><ele>1399.8000000000002</ele><time>2026-04-11T14:29:23Z</time></trkpt><trkpt lat="44.8738167" lon="7.2030483"><ele>1400.1999999999998</ele><time>2026-04-11T14:29:24Z</time></trkpt><trkpt lat="44.87378" lon="7.2031833"><ele>1400.6</ele><time>2026-04-11T14:29:25.001Z</time></trkpt><trkpt lat="44.8737567" lon="7.2033217"><ele>1401.0</ele><time>2026-04-11T14:29:26Z</time></trkpt><trkpt lat="44.8737417" lon="7.2034583"><ele>1402.5</ele><time>2026-04-11T14:29:27Z</time></trkpt><trkpt lat="44.8737333" lon="7.2035917"><ele>1404.0</ele><time>2026-04-11T14:29:28Z</time></trkpt><trkpt lat="44.8737133" lon="7.2037233"><ele>1405.5</ele><time>2026-04-11T14:29:29.001Z</time></trkpt><trkpt lat="44.8736817" lon="7.2038433"><ele>1407.0</ele><time>2026-04-11T14:29:30Z</time></trkpt><trkpt lat="44.8736467" lon="7.2039483"><ele>1408.5</ele><time>2026-04-11T14:29:31Z</time></trkpt><trkpt lat="44.8736217" lon="7.2040533"><ele>1410.0</ele><time>2026-04-11T14:29:32Z</time></trkpt><trkpt lat="44.8736" lon="7.20418"><ele>1410.0</ele><time>2026-04-11T14:29:33Z</time></trkpt><trkpt lat="44.8735867" lon="7.2043167"><ele>1410.0</ele><time>2026-04-11T14:29:34Z</time></trkpt><trkpt lat="44.8735767" lon="7.2044567"><ele>1410.0</ele><time>2026-04-11T14:29:35Z</time></trkpt><trkpt lat="44.873565" lon="7.2045867"><ele>1410.0</ele><time>2026-04-11T14:29:36Z</time></trkpt><trkpt lat="44.87356" lon="7.20472"><ele>1410.0</ele><time>2026-04-11T14:29:37.001Z</time></trkpt><trkpt lat="44.8735467" lon="7.20485"><ele>1410.3333333333333</ele><time>2026-04-11T14:29:38Z</time></trkpt><trkpt lat="44.87352" lon="7.2049783"><ele>1410.6666666666667</ele><time>2026-04-11T14:29:39Z</time></trkpt><trkpt lat="44.873495" lon="7.205105"><ele>1411.0</ele><time>2026-04-11T14:29:40Z</time></trkpt><trkpt lat="44.8734767" lon="7.2052283"><ele>1411.3333333333335</ele><time>2026-04-11T14:29:41Z</time></trkpt><trkpt lat="44.8734583" lon="7.2053317"><ele>1411.6666666666667</ele><time>2026-04-11T14:29:42Z</time></trkpt><trkpt lat="44.8734267" lon="7.2054317"><ele>1412.0</ele><time>2026-04-11T14:29:43Z</time></trkpt><trkpt lat="44.8733833" lon="7.2055117"><ele>1407.8333333333335</ele><time>2026-04-11T14:29:44Z</time></trkpt><trkpt lat="44.8733183" lon="7.2055817"><ele>1403.6666666666667</ele><time>2026-04-11T14:29:45Z</time></trkpt><trkpt lat="44.8732483" lon="7.2056433"><ele>1399.5</ele><time>2026-04-11T14:29:46Z</time></trkpt><trkpt lat="44.8731717" lon="7.2057133"><ele>1395.3333333333333</ele><time>2026-04-11T14:29:47Z</time></trkpt><trkpt lat="44.8731067" lon="7.20578"><ele>1391.1666666666665</ele><time>2026-04-11T14:29:48Z</time></trkpt><trkpt lat="44.8730517" lon="7.2058483"><ele>1387.0</ele><time>2026-04-11T14:29:49Z</time></trkpt><trkpt lat="44.8730083" lon="7.20592"><ele>1387.0</ele><time>2026-04-11T14:29:50Z</time></trkpt><trkpt lat="44.8729433" lon="7.20603"><ele>1387.0</ele><time>2026-04-11T14:29:52Z</time></trkpt><trkpt lat="44.8729067" lon="7.2059367"><ele>1387.0</ele><time>2026-04-11T14:29:56Z</time></trkpt><trkpt lat="44.8729417" lon="7.2058517"><ele>1387.0</ele><time>2026-04-11T14:29:57Z</time></trkpt><trkpt lat="44.8729833" lon="7.2057683"><ele>1387.0</ele><time>2026-04-11T14:29:58Z</time></trkpt><trkpt lat="44.87303" lon="7.2056883"><ele>1387.0</ele><time>2026-04-11T14:29:59Z</time></trkpt><trkpt lat="44.87308" lon="7.2056017"><ele>1384.0</ele><time>2026-04-11T14:30:00Z</time></trkpt><trkpt lat="44.8731433" lon="7.2055233"><ele>1381.0</ele><time>2026-04-11T14:30:01Z</time></trkpt><trkpt lat="44.8731983" lon="7.2054517"><ele>1378.0</ele><time>2026-04-11T14:30:02Z</time></trkpt><trkpt lat="44.87325" lon="7.20538"><ele>1375.0</ele><time>2026-04-11T14:30:03Z</time></trkpt><trkpt lat="44.87329" lon="7.205285"><ele>1372.0</ele><time>2026-04-11T14:30:04Z</time></trkpt><trkpt lat="44.8732983" lon="7.2051817"><ele>1369.0</ele><time>2026-04-11T14:30:05Z</time></trkpt><trkpt lat="44.8732867" lon="7.2050733"><ele>1369.0</ele><time>2026-04-11T14:30:06Z</time></trkpt><trkpt lat="44.8732833" lon="7.204965"><ele>1369.0</ele><time>2026-04-11T14:30:07Z</time></trkpt><trkpt lat="44.8732867" lon="7.2048683"><ele>1369.0</ele><time>2026-04-11T14:30:08Z</time></trkpt><trkpt lat="44.8732683" lon="7.2047117"><ele>1369.0</ele><time>2026-04-11T14:30:10Z</time></trkpt><trkpt lat="44.873205" lon="7.20469"><ele>1369.0</ele><time>2026-04-11T14:30:12Z</time></trkpt><trkpt lat="44.8731767" lon="7.204775"><ele>1369.0</ele><time>2026-04-11T14:30:13Z</time></trkpt><trkpt lat="44.8731567" lon="7.2049"><ele>1369.0</ele><time>2026-04-11T14:30:14Z</time></trkpt><trkpt lat="44.87314" lon="7.2050567"><ele>1369.0</ele><time>2026-04-11T14:30:15Z</time></trkpt><trkpt lat="44.8731083" lon="7.2051833"><ele>1369.0</ele><time>2026-04-11T14:30:16Z</time></trkpt><trkpt lat="44.8730617" lon="7.2052783"><ele>1369.0</ele><time>2026-04-11T14:30:17Z</time></trkpt><trkpt lat="44.8729933" lon="7.2053383"><ele>1369.0</ele><time>2026-04-11T14:30:18Z</time></trkpt><trkpt lat="44.872925" lon="7.2053883"><ele>1369.0</ele><time>2026-04-11T14:30:19Z</time></trkpt><trkpt lat="44.872845" lon="7.2054233"><ele>1369.0</ele><time>2026-04-11T14:30:20Z</time></trkpt><trkpt lat="44.8727667" lon="7.205485"><ele>1369.0</ele><time>2026-04-11T14:30:21Z</time></trkpt><trkpt lat="44.8726967" lon="7.20556"><ele>1369.0</ele><time>2026-04-11T14:30:22.001Z</time></trkpt><trkpt lat="44.8726317" lon="7.2056467"><ele>1369.0</ele><time>2026-04-11T14:30:23Z</time></trkpt><trkpt lat="44.8725767" lon="7.2057417"><ele>1369.0</ele><time>2026-04-11T14:30:24.001Z</time></trkpt><trkpt lat="44.8725317" lon="7.2058633"><ele>1365.6666666666665</ele><time>2026-04-11T14:30:25Z</time></trkpt><trkpt lat="44.8724933" lon="7.205995"><ele>1362.3333333333333</ele><time>2026-04-11T14:30:26Z</time></trkpt><trkpt lat="44.8724583" lon="7.20612"><ele>1359.0</ele><time>2026-04-11T14:30:27Z</time></trkpt><trkpt lat="44.872425" lon="7.20622"><ele>1355.6666666666667</ele><time>2026-04-11T14:30:28.001Z</time></trkpt><trkpt lat="44.8724017" lon="7.2063283"><ele>1352.3333333333335</ele><time>2026-04-11T14:30:29Z</time></trkpt><trkpt lat="44.8724017" lon="7.2064183"><ele>1349.0</ele><time>2026-04-11T14:30:30.001Z</time></trkpt><trkpt lat="44.87243" lon="7.20651"><ele>1348.1666666666667</ele><time>2026-04-11T14:30:31Z</time></trkpt><trkpt lat="44.87248" lon="7.2065983"><ele>1347.3333333333335</ele><time>2026-04-11T14:30:32Z</time></trkpt><trkpt lat="44.8725417" lon="7.206685"><ele>1346.5</ele><time>2026-04-11T14:30:33Z</time></trkpt><trkpt lat="44.8726" lon="7.2067617"><ele>1345.6666666666667</ele><time>2026-04-11T14:30:34Z</time></trkpt><trkpt lat="44.8726683" lon="7.20684"><ele>1344.8333333333333</ele><time>2026-04-11T14:30:35Z</time></trkpt><trkpt lat="44.87273" lon="7.2069117"><ele>1344.0</ele><time>2026-04-11T14:30:36Z</time></trkpt><trkpt lat="44.8727817" lon="7.2069867"><ele>1348.0</ele><time>2026-04-11T14:30:37Z</time></trkpt><trkpt lat="44.872835" lon="7.2070567"><ele>1352.0</ele><time>2026-04-11T14:30:38Z</time></trkpt><trkpt lat="44.8728817" lon="7.20713"><ele>1356.0</ele><time>2026-04-11T14:30:39Z</time></trkpt><trkpt lat="44.8729767" lon="7.2072433"><ele>1360.0</ele><time>2026-04-11T14:30:41Z</time></trkpt><trkpt lat="44.8730217" lon="7.20732"><ele>1364.0</ele><time>2026-04-11T14:30:42Z</time></trkpt><trkpt lat="44.873055" lon="7.2074133"><ele>1368.0</ele><time>2026-04-11T14:30:43Z</time></trkpt><trkpt lat="44.8730667" lon="7.20753"><ele>1368.0</ele><time>2026-04-11T14:30:44Z</time></trkpt><trkpt lat="44.8730517" lon="7.2076583"><ele>1368.0</ele><time>2026-04-11T14:30:45Z</time></trkpt><trkpt lat="44.8730167" lon="7.2077783"><ele>1368.0</ele><time>2026-04-11T14:30:46Z</time></trkpt><trkpt lat="44.8729633" lon="7.207885"><ele>1368.0</ele><time>2026-04-11T14:30:47Z</time></trkpt><trkpt lat="44.8729167" lon="7.2080067"><ele>1368.0</ele><time>2026-04-11T14:30:48Z</time></trkpt><trkpt lat="44.8728683" lon="7.20812"><ele>1368.5</ele><time>2026-04-11T14:30:49Z</time></trkpt><trkpt lat="44.8728183" lon="7.20823"><ele>1369.0</ele><time>2026-04-11T14:30:50Z</time></trkpt><trkpt lat="44.8727733" lon="7.208335"><ele>1369.5</ele><time>2026-04-11T14:30:51Z</time></trkpt><trkpt lat="44.8727217" lon="7.2084333"><ele>1370.0</ele><time>2026-04-11T14:30:52Z</time></trkpt><trkpt lat="44.8726633" lon="7.2085233"><ele>1370.5</ele><time>2026-04-11T14:30:53Z</time></trkpt><trkpt lat="44.8726117" lon="7.2086117"><ele>1371.0</ele><time>2026-04-11T14:30:54Z</time></trkpt><trkpt lat="44.8725767" lon="7.2087167"><ele>1363.8333333333333</ele><time>2026-04-11T14:30:55Z</time></trkpt><trkpt lat="44.872575" lon="7.2088317"><ele>1356.6666666666667</ele><time>2026-04-11T14:30:56Z</time></trkpt><trkpt lat="44.8725783" lon="7.2089567"><ele>1349.5</ele><time>2026-04-11T14:30:57Z</time></trkpt><trkpt lat="44.8725767" lon="7.2090883"><ele>1342.3333333333335</ele><time>2026-04-11T14:30:58Z</time></trkpt><trkpt lat="44.8725667" lon="7.20922"><ele>1335.1666666666667</ele><time>2026-04-11T14:30:59Z</time></trkpt><trkpt lat="44.8725533" lon="7.2093433"><ele>1328.0</ele><time>2026-04-11T14:31:00Z</time></trkpt><trkpt lat="44.8725383" lon="7.2094517"><ele>1328.0</ele><time>2026-04-11T14:31:01Z</time></trkpt><trkpt lat="44.8725083" lon="7.2095667"><ele>1328.0</ele><time>2026-04-11T14:31:02Z</time></trkpt><trkpt lat="44.8724517" lon="7.2096683"><ele>1328.0</ele><time>2026-04-11T14:31:03Z</time></trkpt><trkpt lat="44.87239" lon="7.2097633"><ele>1328.0</ele><time>2026-04-11T14:31:04Z</time></trkpt><trkpt lat="44.8723183" lon="7.2098333"><ele>1328.0</ele><time>2026-04-11T14:31:05Z</time></trkpt><trkpt lat="44.8722333" lon="7.209875"><ele>1328.0</ele><time>2026-04-11T14:31:06Z</time></trkpt><trkpt lat="44.872155" lon="7.2099017"><ele>1330.142857142857</ele><time>2026-04-11T14:31:07Z</time></trkpt><trkpt lat="44.87208" lon="7.2099167"><ele>1332.2857142857144</ele><time>2026-04-11T14:31:08Z</time></trkpt><trkpt lat="44.87201" lon="7.2099483"><ele>1334.4285714285716</ele><time>2026-04-11T14:31:09Z</time></trkpt><trkpt lat="44.8719533" lon="7.2099917"><ele>1336.5714285714284</ele><time>2026-04-11T14:31:10Z</time></trkpt><trkpt lat="44.8718867" lon="7.2100533"><ele>1338.7142857142858</ele><time>2026-04-11T14:31:11Z</time></trkpt><trkpt lat="44.8718367" lon="7.210135"><ele>1340.857142857143</ele><time>2026-04-11T14:31:12Z</time></trkpt><trkpt lat="44.8718067" lon="7.210225"><ele>1343.0</ele><time>2026-04-11T14:31:13Z</time></trkpt><trkpt lat="44.8718033" lon="7.2103333"><ele>1343.0</ele><time>2026-04-11T14:31:14Z</time></trkpt><trkpt lat="44.8717867" lon="7.2104767"><ele>1343.0</ele><time>2026-04-11T14:31:15Z</time></trkpt><trkpt lat="44.8717567" lon="7.2106167"><ele>1343.0</ele><time>2026-04-11T14:31:16Z</time></trkpt><trkpt lat="44.8717217" lon="7.21074"><ele>1343.0</ele><time>2026-04-11T14:31:17Z</time></trkpt><trkpt lat="44.8716883" lon="7.210835"><ele>1343.0</ele><time>2026-04-11T14:31:18Z</time></trkpt><trkpt lat="44.8716533" lon="7.210915"><ele>1343.0</ele><time>2026-04-11T14:31:19Z</time></trkpt><trkpt lat="44.8716167" lon="7.2109967"><ele>1338.8000000000002</ele><time>2026-04-11T14:31:21Z</time></trkpt><trkpt lat="44.871585" lon="7.2111517"><ele>1334.6</ele><time>2026-04-11T14:32:36.001Z</time></trkpt><trkpt lat="44.8715833" lon="7.21132"><ele>1330.4</ele><time>2026-04-11T14:33:01.001Z</time></trkpt><trkpt lat="44.871585" lon="7.2114717"><ele>1326.1999999999998</ele><time>2026-04-11T14:33:03.001Z</time></trkpt><trkpt lat="44.8715867" lon="7.2115683"><ele>1322.0</ele><time>2026-04-11T14:33:04.001Z</time></trkpt><trkpt lat="44.871585" lon="7.2116667"><ele>1322.0</ele><time>2026-04-11T14:33:05.002Z</time></trkpt><trkpt lat="44.87157" lon="7.2117933"><ele>1322.0</ele><time>2026-04-11T14:33:06.001Z</time></trkpt><trkpt lat="44.8715333" lon="7.211925"><ele>1322.0</ele><time>2026-04-11T14:33:07.001Z</time></trkpt><trkpt lat="44.87148" lon="7.212045"><ele>1322.0</ele><time>2026-04-11T14:33:08.001Z</time></trkpt><trkpt lat="44.8714117" lon="7.2121567"><ele>1322.0</ele><time>2026-04-11T14:33:09.001Z</time></trkpt><trkpt lat="44.8713517" lon="7.212255"><ele>1324.5</ele><time>2026-04-11T14:33:10.001Z</time></trkpt><trkpt lat="44.8712933" lon="7.2123567"><ele>1327.0</ele><time>2026-04-11T14:33:11.001Z</time></trkpt><trkpt lat="44.87125" lon="7.2124683"><ele>1329.5</ele><time>2026-04-11T14:33:12.001Z</time></trkpt><trkpt lat="44.8712117" lon="7.2125817"><ele>1332.0</ele><time>2026-04-11T14:33:13.001Z</time></trkpt><trkpt lat="44.87116" lon="7.212675"><ele>1334.5</ele><time>2026-04-11T14:33:14.001Z</time></trkpt><trkpt lat="44.8710983" lon="7.21275"><ele>1337.0</ele><time>2026-04-11T14:33:15.001Z</time></trkpt><trkpt lat="44.8710383" lon="7.2128017"><ele>1337.0</ele><time>2026-04-11T14:33:16.001Z</time></trkpt><trkpt lat="44.87097" lon="7.2128117"><ele>1337.0</ele><time>2026-04-11T14:33:17.001Z</time></trkpt><trkpt lat="44.8708867" lon="7.2127467"><ele>1337.0</ele><time>2026-04-11T14:33:19.001Z</time></trkpt><trkpt lat="44.8708183" lon="7.2127067"><ele>1337.0</ele><time>2026-04-11T14:33:21.002Z</time></trkpt><trkpt lat="44.870765" lon="7.2127867"><ele>1337.0</ele><time>2026-04-11T14:33:24.001Z</time></trkpt><trkpt lat="44.8708017" lon="7.2128733"><ele>1337.0</ele><time>2026-04-11T14:33:27.002Z</time></trkpt><trkpt lat="44.8708667" lon="7.21297"><ele>1335.3333333333335</ele><time>2026-04-11T14:33:30.001Z</time></trkpt><trkpt lat="44.8708917" lon="7.2130517"><ele>1333.6666666666667</ele><time>2026-04-11T14:33:32.001Z</time></trkpt><trkpt lat="44.870875" lon="7.2131417"><ele>1332.0</ele><time>2026-04-11T14:33:34.001Z</time></trkpt><trkpt lat="44.8708417" lon="7.213225"><ele>1330.3333333333333</ele><time>2026-04-11T14:33:36.001Z</time></trkpt><trkpt lat="44.870785" lon="7.2133183"><ele>1328.6666666666665</ele><time>2026-04-11T14:33:38.001Z</time></trkpt><trkpt lat="44.870705" lon="7.21341"><ele>1327.0</ele><time>2026-04-11T14:33:40.002Z</time></trkpt><trkpt lat="44.8706183" lon="7.213445"><ele>1327.0</ele><time>2026-04-11T14:33:42.001Z</time></trkpt><trkpt lat="44.870535" lon="7.2134883"><ele>1327.0</ele><time>2026-04-11T14:35:22.001Z</time></trkpt><trkpt lat="44.87043" lon="7.21346"><ele>1327.0</ele><time>2026-04-11T14:35:24.001Z</time></trkpt><trkpt lat="44.8703667" lon="7.2134417"><ele>1327.0</ele><time>2026-04-11T14:35:25.001Z</time></trkpt><trkpt lat="44.8702517" lon="7.2134117"><ele>1327.0</ele><time>2026-04-11T14:35:27.001Z</time></trkpt><trkpt lat="44.8701417" lon="7.2134117"><ele>1323.6666666666665</ele><time>2026-04-11T14:35:29.001Z</time></trkpt><trkpt lat="44.8700783" lon="7.213425"><ele>1320.3333333333333</ele><time>2026-04-11T14:35:30.002Z</time></trkpt><trkpt lat="44.8699717" lon="7.2134833"><ele>1317.0</ele><time>2026-04-11T14:35:32.002Z</time></trkpt><trkpt lat="44.8698767" lon="7.2135733"><ele>1313.6666666666667</ele><time>2026-04-11T14:35:34.001Z</time></trkpt><trkpt lat="44.8698333" lon="7.2136383"><ele>1310.3333333333335</ele><time>2026-04-11T14:35:35.001Z</time></trkpt><trkpt lat="44.869795" lon="7.2137183"><ele>1307.0</ele><time>2026-04-11T14:35:36.001Z</time></trkpt><trkpt lat="44.8697617" lon="7.2138167"><ele>1307.0</ele><time>2026-04-11T14:35:37.001Z</time></trkpt><trkpt lat="44.8697317" lon="7.2139267"><ele>1307.0</ele><time>2026-04-11T14:35:38.001Z</time></trkpt><trkpt lat="44.8697" lon="7.214055"><ele>1307.0</ele><time>2026-04-11T14:35:39.001Z</time></trkpt><trkpt lat="44.869675" lon="7.214185"><ele>1307.0</ele><time>2026-04-11T14:35:40.001Z</time></trkpt><trkpt lat="44.8696617" lon="7.214315"><ele>1307.0</ele><time>2026-04-11T14:35:41.001Z</time></trkpt><trkpt lat="44.86965" lon="7.21444"><ele>1310.6666666666667</ele><time>2026-04-11T14:35:42.001Z</time></trkpt><trkpt lat="44.8696417" lon="7.2145467"><ele>1314.3333333333335</ele><time>2026-04-11T14:35:43.001Z</time></trkpt><trkpt lat="44.869635" lon="7.214655"><ele>1318.0</ele><time>2026-04-11T14:35:44.001Z</time></trkpt><trkpt lat="44.8696317" lon="7.2147517"><ele>1321.6666666666667</ele><time>2026-04-11T14:35:45.001Z</time></trkpt><trkpt lat="44.8696217" lon="7.2148617"><ele>1325.3333333333333</ele><time>2026-04-11T14:35:46.001Z</time></trkpt><trkpt lat="44.8695967" lon="7.2149867"><ele>1329.0</ele><time>2026-04-11T14:35:47.001Z</time></trkpt><trkpt lat="44.86955" lon="7.2151083"><ele>1331.8000000000002</ele><time>2026-04-11T14:35:48.001Z</time></trkpt><trkpt lat="44.8694683" lon="7.2152417"><ele>1334.6000000000001</ele><time>2026-04-11T14:35:49.001Z</time></trkpt><trkpt lat="44.8693867" lon="7.2153583"><ele>1337.4</ele><time>2026-04-11T14:35:50.001Z</time></trkpt><trkpt lat="44.8693033" lon="7.2154533"><ele>1340.2</ele><time>2026-04-11T14:35:51.001Z</time></trkpt><trkpt lat="44.8692283" lon="7.2155483"><ele>1343.0</ele><time>2026-04-11T14:35:52.001Z</time></trkpt><trkpt lat="44.8691517" lon="7.2156367"><ele>1339.6666666666667</ele><time>2026-04-11T14:35:53.001Z</time></trkpt><trkpt lat="44.8690733" lon="7.2157167"><ele>1336.3333333333335</ele><time>2026-04-11T14:35:54.001Z</time></trkpt><trkpt lat="44.8690167" lon="7.2157883"><ele>1333.0</ele><time>2026-04-11T14:35:55.001Z</time></trkpt><trkpt lat="44.8689767" lon="7.215865"><ele>1329.6666666666667</ele><time>2026-04-11T14:35:56.001Z</time></trkpt><trkpt lat="44.8689483" lon="7.2159517"><ele>1326.3333333333333</ele><time>2026-04-11T14:35:57.001Z</time></trkpt><trkpt lat="44.8689317" lon="7.2160533"><ele>1323.0</ele><time>2026-04-11T14:35:58.001Z</time></trkpt><trkpt lat="44.8689167" lon="7.216165"><ele>1323.0</ele><time>2026-04-11T14:35:59.001Z</time></trkpt><trkpt lat="44.8689033" lon="7.2162667"><ele>1323.0</ele><time>2026-04-11T14:36:00.001Z</time></trkpt><trkpt lat="44.8689033" lon="7.2164483"><ele>1323.0</ele><time>2026-04-11T14:36:02.001Z</time></trkpt><trkpt lat="44.868925" lon="7.2165533"><ele>1323.0</ele><time>2026-04-11T14:36:03.001Z</time></trkpt><trkpt lat="44.8689417" lon="7.2166633"><ele>1323.0</ele><time>2026-04-11T14:36:04.001Z</time></trkpt><trkpt lat="44.8689367" lon="7.21677"><ele>1323.0</ele><time>2026-04-11T14:36:05.001Z</time></trkpt><trkpt lat="44.8689183" lon="7.216865"><ele>1325.0</ele><time>2026-04-11T14:36:06.001Z</time></trkpt><trkpt lat="44.868885" lon="7.2169583"><ele>1327.0</ele><time>2026-04-11T14:36:07.001Z</time></trkpt><trkpt lat="44.86885" lon="7.2170633"><ele>1329.0</ele><time>2026-04-11T14:36:08.001Z</time></trkpt><trkpt lat="44.8688133" lon="7.2171567"><ele>1331.0</ele><time>2026-04-11T14:36:09.001Z</time></trkpt><trkpt lat="44.8687667" lon="7.2172467"><ele>1333.0</ele><time>2026-04-11T14:36:10.001Z</time></trkpt><trkpt lat="44.8686983" lon="7.2173317"><ele>1335.0</ele><time>2026-04-11T14:36:11.001Z</time></trkpt><trkpt lat="44.8686317" lon="7.2174283"><ele>1337.6666666666667</ele><time>2026-04-11T14:36:12.001Z</time></trkpt><trkpt lat="44.868575" lon="7.217525"><ele>1340.3333333333333</ele><time>2026-04-11T14:36:13.001Z</time></trkpt><trkpt lat="44.868515" lon="7.2176233"><ele>1343.0</ele><time>2026-04-11T14:36:14.001Z</time></trkpt><trkpt lat="44.86846" lon="7.2177133"><ele>1345.6666666666665</ele><time>2026-04-11T14:36:15.001Z</time></trkpt><trkpt lat="44.86841" lon="7.217805"><ele>1348.3333333333333</ele><time>2026-04-11T14:36:16.001Z</time></trkpt><trkpt lat="44.8683417" lon="7.2178967"><ele>1351.0</ele><time>2026-04-11T14:36:17.001Z</time></trkpt><trkpt lat="44.8682733" lon="7.21798"><ele>1348.8</ele><time>2026-04-11T14:36:18.001Z</time></trkpt><trkpt lat="44.8682033" lon="7.2180567"><ele>1346.6</ele><time>2026-04-11T14:36:19.001Z</time></trkpt><trkpt lat="44.8681267" lon="7.21815"><ele>1344.4</ele><time>2026-04-11T14:36:20.001Z</time></trkpt><trkpt lat="44.8680617" lon="7.2182467"><ele>1342.2</ele><time>2026-04-11T14:36:21.001Z</time></trkpt><trkpt lat="44.8679933" lon="7.21836"><ele>1340.0</ele><time>2026-04-11T14:36:22.001Z</time></trkpt><trkpt lat="44.86792" lon="7.218475"><ele>1340.0</ele><time>2026-04-11T14:36:23.001Z</time></trkpt><trkpt lat="44.8678483" lon="7.21857"><ele>1340.0</ele><time>2026-04-11T14:36:24.001Z</time></trkpt><trkpt lat="44.867765" lon="7.218645"><ele>1340.0</ele><time>2026-04-11T14:36:25.001Z</time></trkpt><trkpt lat="44.8677033" lon="7.2187033"><ele>1340.0</ele><time>2026-04-11T14:36:26.001Z</time></trkpt><trkpt lat="44.8676533" lon="7.218765"><ele>1340.0</ele><time>2026-04-11T14:36:27.001Z</time></trkpt><trkpt lat="44.8675583" lon="7.21888"><ele>1337.8</ele><time>2026-04-11T14:36:29.001Z</time></trkpt><trkpt lat="44.8675033" lon="7.2189433"><ele>1335.6</ele><time>2026-04-11T14:36:30.001Z</time></trkpt><trkpt lat="44.8674483" lon="7.21901"><ele>1333.4</ele><time>2026-04-11T14:36:31.001Z</time></trkpt><trkpt lat="44.86737" lon="7.2191333"><ele>1331.2</ele><time>2026-04-11T14:36:33.001Z</time></trkpt><trkpt lat="44.867345" lon="7.2192633"><ele>1329.0</ele><time>2026-04-11T14:36:35.001Z</time></trkpt><trkpt lat="44.8673167" lon="7.219415"><ele>1329.0</ele><time>2026-04-11T14:36:37.001Z</time></trkpt><trkpt lat="44.8672483" lon="7.2195567"><ele>1329.0</ele><time>2026-04-11T14:36:39.001Z</time></trkpt><trkpt lat="44.867175" lon="7.2196267"><ele>1329.0</ele><time>2026-04-11T14:36:40.001Z</time></trkpt><trkpt lat="44.8670967" lon="7.2196783"><ele>1329.0</ele><time>2026-04-11T14:36:41.001Z</time></trkpt><trkpt lat="44.8670083" lon="7.2197317"><ele>1329.0</ele><time>2026-04-11T14:36:42.001Z</time></trkpt><trkpt lat="44.8669133" lon="7.2197933"><ele>1328.0</ele><time>2026-04-11T14:36:43.001Z</time></trkpt><trkpt lat="44.8668167" lon="7.21985"><ele>1327.0</ele><time>2026-04-11T14:36:44.001Z</time></trkpt><trkpt lat="44.8667183" lon="7.21992"><ele>1326.0</ele><time>2026-04-11T14:36:45.001Z</time></trkpt><trkpt lat="44.8666267" lon="7.2199883"><ele>1325.0</ele><time>2026-04-11T14:36:46.001Z</time></trkpt><trkpt lat="44.8665317" lon="7.220085"><ele>1324.0</ele><time>2026-04-11T14:36:47.001Z</time></trkpt><trkpt lat="44.8664417" lon="7.2201783"><ele>1324.0</ele><time>2026-04-11T14:36:48.001Z</time></trkpt><trkpt lat="44.8663583" lon="7.220275"><ele>1324.0</ele><time>2026-04-11T14:36:49.001Z</time></trkpt><trkpt lat="44.8662683" lon="7.22037"><ele>1324.0</ele><time>2026-04-11T14:36:50.001Z</time></trkpt><trkpt lat="44.866185" lon="7.220445"><ele>1324.0</ele><time>2026-04-11T14:36:51.001Z</time></trkpt><trkpt lat="44.8661" lon="7.2205067"><ele>1324.0</ele><time>2026-04-11T14:36:52.001Z</time></trkpt><trkpt lat="44.8660183" lon="7.2205633"><ele>1324.0</ele><time>2026-04-11T14:36:53.001Z</time></trkpt><trkpt lat="44.8659583" lon="7.220595"><ele>1324.0</ele><time>2026-04-11T14:36:54.001Z</time></trkpt><trkpt lat="44.8658733" lon="7.220645"><ele>1324.0</ele><time>2026-04-11T14:36:56.001Z</time></trkpt><trkpt lat="44.865825" lon="7.2207633"><ele>1324.0</ele><time>2026-04-11T14:36:58.001Z</time></trkpt><trkpt lat="44.8658183" lon="7.2208617"><ele>1324.0</ele><time>2026-04-11T14:36:59.001Z</time></trkpt><trkpt lat="44.865815" lon="7.220975"><ele>1324.0</ele><time>2026-04-11T14:37:00.001Z</time></trkpt><trkpt lat="44.86581" lon="7.2210883"><ele>1323.0</ele><time>2026-04-11T14:37:01.001Z</time></trkpt><trkpt lat="44.865795" lon="7.2211917"><ele>1322.0</ele><time>2026-04-11T14:37:02.001Z</time></trkpt><trkpt lat="44.8657617" lon="7.2212933"><ele>1321.0</ele><time>2026-04-11T14:37:03.001Z</time></trkpt><trkpt lat="44.8657283" lon="7.2214133"><ele>1320.0</ele><time>2026-04-11T14:37:04.001Z</time></trkpt><trkpt lat="44.8656683" lon="7.221535"><ele>1319.0</ele><time>2026-04-11T14:37:05.001Z</time></trkpt><trkpt lat="44.8656133" lon="7.2216533"><ele>1319.0</ele><time>2026-04-11T14:37:06.002Z</time></trkpt><trkpt lat="44.865555" lon="7.2217783"><ele>1319.0</ele><time>2026-04-11T14:37:07.001Z</time></trkpt><trkpt lat="44.8654967" lon="7.2219017"><ele>1319.0</ele><time>2026-04-11T14:37:08.002Z</time></trkpt><trkpt lat="44.8654283" lon="7.222015"><ele>1319.0</ele><time>2026-04-11T14:37:09.001Z</time></trkpt><trkpt lat="44.8653733" lon="7.222115"><ele>1319.0</ele><time>2026-04-11T14:37:10.001Z</time></trkpt><trkpt lat="44.8653167" lon="7.222235"><ele>1317.4</ele><time>2026-04-11T14:37:11.001Z</time></trkpt><trkpt lat="44.8652683" lon="7.2223567"><ele>1315.8000000000002</ele><time>2026-04-11T14:37:12.001Z</time></trkpt><trkpt lat="44.8652283" lon="7.2224783"><ele>1314.1999999999998</ele><time>2026-04-11T14:37:13.001Z</time></trkpt><trkpt lat="44.8651883" lon="7.2225983"><ele>1312.6</ele><time>2026-04-11T14:37:14.001Z</time></trkpt><trkpt lat="44.8651483" lon="7.2227383"><ele>1311.0</ele><time>2026-04-11T14:37:15.001Z</time></trkpt><trkpt lat="44.8651117" lon="7.2228683"><ele>1311.0</ele><time>2026-04-11T14:37:16.001Z</time></trkpt><trkpt lat="44.8650733" lon="7.2229883"><ele>1311.0</ele><time>2026-04-11T14:37:17.001Z</time></trkpt><trkpt lat="44.865025" lon="7.2231017"><ele>1311.0</ele><time>2026-04-11T14:37:18.001Z</time></trkpt><trkpt lat="44.8649617" lon="7.2232217"><ele>1311.0</ele><time>2026-04-11T14:37:19.001Z</time></trkpt><trkpt lat="44.864905" lon="7.2233233"><ele>1311.0</ele><time>2026-04-11T14:37:20.001Z</time></trkpt><trkpt lat="44.864865" lon="7.2234183"><ele>1311.1666666666667</ele><time>2026-04-11T14:37:21.001Z</time></trkpt><trkpt lat="44.86483" lon="7.2235083"><ele>1311.3333333333333</ele><time>2026-04-11T14:37:22.002Z</time></trkpt><trkpt lat="44.864795" lon="7.2235883"><ele>1311.5</ele><time>2026-04-11T14:37:23.001Z</time></trkpt><trkpt lat="44.86472" lon="7.2237133"><ele>1311.6666666666665</ele><time>2026-04-11T14:37:25.001Z</time></trkpt><trkpt lat="44.86464" lon="7.2238383"><ele>1311.8333333333333</ele><time>2026-04-11T14:37:27.001Z</time></trkpt><trkpt lat="44.8646167" lon="7.2239267"><ele>1312.0</ele><time>2026-04-11T14:37:28.001Z</time></trkpt><trkpt lat="44.864595" lon="7.224045"><ele>1308.8</ele><time>2026-04-11T14:37:29.001Z</time></trkpt><trkpt lat="44.8645633" lon="7.2241683"><ele>1305.6</ele><time>2026-04-11T14:37:30.001Z</time></trkpt><trkpt lat="44.864515" lon="7.2242617"><ele>1302.3999999999999</ele><time>2026-04-11T14:37:31.001Z</time></trkpt><trkpt lat="44.8644533" lon="7.224365"><ele>1299.1999999999998</ele><time>2026-04-11T14:37:32.002Z</time></trkpt><trkpt lat="44.8643833" lon="7.2244883"><ele>1296.0</ele><time>2026-04-11T14:37:33.001Z</time></trkpt><trkpt lat="44.8643183" lon="7.2246183"><ele>1297.4</ele><time>2026-04-11T14:37:34.001Z</time></trkpt><trkpt lat="44.8642617" lon="7.2247483"><ele>1298.8</ele><time>2026-04-11T14:37:35.001Z</time></trkpt><trkpt lat="44.864215" lon="7.22484"><ele>1300.2</ele><time>2026-04-11T14:37:36.001Z</time></trkpt><trkpt lat="44.8641667" lon="7.224935"><ele>1301.6000000000001</ele><time>2026-04-11T14:37:37.001Z</time></trkpt><trkpt lat="44.8641117" lon="7.225035"><ele>1303.0</ele><time>2026-04-11T14:37:38.001Z</time></trkpt><trkpt lat="44.8640567" lon="7.2251367"><ele>1303.5</ele><time>2026-04-11T14:37:39.001Z</time></trkpt><trkpt lat="44.86401" lon="7.2252283"><ele>1304.0</ele><time>2026-04-11T14:37:40.001Z</time></trkpt><trkpt lat="44.8639717" lon="7.22533"><ele>1304.5</ele><time>2026-04-11T14:37:41.001Z</time></trkpt><trkpt lat="44.8639383" lon="7.225445"><ele>1305.0</ele><time>2026-04-11T14:37:42.001Z</time></trkpt><trkpt lat="44.8639083" lon="7.2255483"><ele>1305.5</ele><time>2026-04-11T14:37:43.002Z</time></trkpt><trkpt lat="44.86388" lon="7.2256517"><ele>1306.0</ele><time>2026-04-11T14:37:44.001Z</time></trkpt><trkpt lat="44.8638183" lon="7.225815"><ele>1306.4</ele><time>2026-04-11T14:37:46.001Z</time></trkpt><trkpt lat="44.8637483" lon="7.2259383"><ele>1306.8</ele><time>2026-04-11T14:37:48.001Z</time></trkpt><trkpt lat="44.8636783" lon="7.2260617"><ele>1307.2</ele><time>2026-04-11T14:37:50.002Z</time></trkpt><trkpt lat="44.8636133" lon="7.226225"><ele>1307.6000000000001</ele><time>2026-04-11T14:37:52.001Z</time></trkpt><trkpt lat="44.8635733" lon="7.2263117"><ele>1308.0</ele><time>2026-04-11T14:37:53.002Z</time></trkpt><trkpt lat="44.8635267" lon="7.2263867"><ele>1308.0</ele><time>2026-04-11T14:37:54.001Z</time></trkpt><trkpt lat="44.8634783" lon="7.2264567"><ele>1308.0</ele><time>2026-04-11T14:37:55.001Z</time></trkpt><trkpt lat="44.8634117" lon="7.2265433"><ele>1308.0</ele><time>2026-04-11T14:37:56.001Z</time></trkpt><trkpt lat="44.8633483" lon="7.2265883"><ele>1308.0</ele><time>2026-04-11T14:37:57.001Z</time></trkpt><trkpt lat="44.86328" lon="7.2266183"><ele>1308.0</ele><time>2026-04-11T14:37:58.001Z</time></trkpt><trkpt lat="44.8632" lon="7.2266533"><ele>1308.0</ele><time>2026-04-11T14:37:59.001Z</time></trkpt><trkpt lat="44.8631217" lon="7.22669"><ele>1308.1666666666667</ele><time>2026-04-11T14:38:00.002Z</time></trkpt><trkpt lat="44.863045" lon="7.2267267"><ele>1308.3333333333333</ele><time>2026-04-11T14:38:01.001Z</time></trkpt><trkpt lat="44.8629617" lon="7.226765"><ele>1308.5</ele><time>2026-04-11T14:38:02.002Z</time></trkpt><trkpt lat="44.8628833" lon="7.2268217"><ele>1308.6666666666665</ele><time>2026-04-11T14:38:03.001Z</time></trkpt><trkpt lat="44.8628067" lon="7.226885"><ele>1308.8333333333333</ele><time>2026-04-11T14:38:04.001Z</time></trkpt><trkpt lat="44.8627283" lon="7.2269583"><ele>1309.0</ele><time>2026-04-11T14:38:05.002Z</time></trkpt><trkpt lat="44.8626433" lon="7.2270317"><ele>1308.8333333333333</ele><time>2026-04-11T14:38:06.001Z</time></trkpt><trkpt lat="44.8625667" lon="7.2270983"><ele>1308.6666666666665</ele><time>2026-04-11T14:38:07.001Z</time></trkpt><trkpt lat="44.86249" lon="7.2271583"><ele>1308.5</ele><time>2026-04-11T14:38:08.001Z</time></trkpt><trkpt lat="44.8624217" lon="7.22722"><ele>1308.3333333333333</ele><time>2026-04-11T14:38:09.001Z</time></trkpt><trkpt lat="44.8623517" lon="7.2272833"><ele>1308.1666666666667</ele><time>2026-04-11T14:38:10.001Z</time></trkpt><trkpt lat="44.86228" lon="7.2273567"><ele>1308.0</ele><time>2026-04-11T14:38:11.002Z</time></trkpt><trkpt lat="44.8622167" lon="7.2274233"><ele>1308.0</ele><time>2026-04-11T14:38:12.002Z</time></trkpt><trkpt lat="44.86216" lon="7.2274867"><ele>1308.0</ele><time>2026-04-11T14:38:13.002Z</time></trkpt><trkpt lat="44.862105" lon="7.2275533"><ele>1308.0</ele><time>2026-04-11T14:38:14.002Z</time></trkpt><trkpt lat="44.86205" lon="7.2276117"><ele>1308.0</ele><time>2026-04-11T14:38:15.002Z</time></trkpt><trkpt lat="44.8619933" lon="7.22767"><ele>1308.0</ele><time>2026-04-11T14:38:16.002Z</time></trkpt><trkpt lat="44.8619367" lon="7.2277317"><ele>1308.0</ele><time>2026-04-11T14:38:17.002Z</time></trkpt><trkpt lat="44.8618767" lon="7.2277967"><ele>1308.0</ele><time>2026-04-11T14:38:18.002Z</time></trkpt><trkpt lat="44.8618233" lon="7.227865"><ele>1305.8000000000002</ele><time>2026-04-11T14:38:19.002Z</time></trkpt><trkpt lat="44.8617517" lon="7.227955"><ele>1303.6</ele><time>2026-04-11T14:38:21.002Z</time></trkpt><trkpt lat="44.86167" lon="7.2280483"><ele>1301.4</ele><time>2026-04-11T14:38:23.003Z</time></trkpt><trkpt lat="44.8615883" lon="7.22813"><ele>1299.1999999999998</ele><time>2026-04-11T14:38:25.002Z</time></trkpt><trkpt lat="44.861515" lon="7.2281917"><ele>1297.0</ele><time>2026-04-11T14:38:27.002Z</time></trkpt><trkpt lat="44.861415" lon="7.2282667"><ele>1297.0</ele><time>2026-04-11T14:38:29.002Z</time></trkpt><trkpt lat="44.861355" lon="7.228305"><ele>1297.0</ele><time>2026-04-11T14:38:30.002Z</time></trkpt><trkpt lat="44.8612933" lon="7.2283417"><ele>1297.0</ele><time>2026-04-11T14:38:31.002Z</time></trkpt><trkpt lat="44.86122" lon="7.2283833"><ele>1297.0</ele><time>2026-04-11T14:38:32.002Z</time></trkpt><trkpt lat="44.86115" lon="7.228425"><ele>1297.0</ele><time>2026-04-11T14:38:33.002Z</time></trkpt><trkpt lat="44.8610817" lon="7.228465"><ele>1297.0</ele><time>2026-04-11T14:38:34.002Z</time></trkpt><trkpt lat="44.8610167" lon="7.22851"><ele>1297.0</ele><time>2026-04-11T14:38:35.003Z</time></trkpt><trkpt lat="44.8609517" lon="7.22856"><ele>1295.3333333333333</ele><time>2026-04-11T14:38:36.002Z</time></trkpt><trkpt lat="44.86088" lon="7.2286183"><ele>1293.6666666666665</ele><time>2026-04-11T14:38:37.002Z</time></trkpt><trkpt lat="44.86081" lon="7.2286867"><ele>1292.0</ele><time>2026-04-11T14:38:38.002Z</time></trkpt><trkpt lat="44.8607467" lon="7.2287633"><ele>1290.3333333333333</ele><time>2026-04-11T14:38:39.002Z</time></trkpt><trkpt lat="44.860685" lon="7.2288467"><ele>1288.6666666666667</ele><time>2026-04-11T14:38:40.002Z</time></trkpt><trkpt lat="44.8606267" lon="7.2289383"><ele>1287.0</ele><time>2026-04-11T14:38:41.002Z</time></trkpt><trkpt lat="44.8605583" lon="7.2290333"><ele>1287.0</ele><time>2026-04-11T14:38:42.002Z</time></trkpt><trkpt lat="44.8604933" lon="7.229125"><ele>1287.0</ele><time>2026-04-11T14:38:43.002Z</time></trkpt><trkpt lat="44.8604317" lon="7.2292183"><ele>1287.0</ele><time>2026-04-11T14:38:44.003Z</time></trkpt><trkpt lat="44.86036" lon="7.2293017"><ele>1287.0</ele><time>2026-04-11T14:38:45.002Z</time></trkpt><trkpt lat="44.8602967" lon="7.229395"><ele>1287.0</ele><time>2026-04-11T14:38:46.003Z</time></trkpt><trkpt lat="44.8602233" lon="7.2294983"><ele>1287.0</ele><time>2026-04-11T14:38:47.002Z</time></trkpt><trkpt lat="44.860155" lon="7.229605"><ele>1287.0</ele><time>2026-04-11T14:38:48.002Z</time></trkpt><trkpt lat="44.8601" lon="7.2297083"><ele>1287.0</ele><time>2026-04-11T14:38:49.002Z</time></trkpt><trkpt lat="44.860035" lon="7.2297967"><ele>1287.0</ele><time>2026-04-11T14:38:50.002Z</time></trkpt><trkpt lat="44.8599683" lon="7.2298817"><ele>1287.0</ele><time>2026-04-11T14:38:51.002Z</time></trkpt><trkpt lat="44.85989" lon="7.2299467"><ele>1282.6</ele><time>2026-04-11T14:38:52.003Z</time></trkpt><trkpt lat="44.8598033" lon="7.2300283"><ele>1278.1999999999998</ele><time>2026-04-11T14:38:53.002Z</time></trkpt><trkpt lat="44.8597233" lon="7.2300867"><ele>1273.8</ele><time>2026-04-11T14:38:54.003Z</time></trkpt><trkpt lat="44.859635" lon="7.2301683"><ele>1269.4</ele><time>2026-04-11T14:38:55.002Z</time></trkpt><trkpt lat="44.859545" lon="7.2302417"><ele>1265.0</ele><time>2026-04-11T14:38:56.002Z</time></trkpt><trkpt lat="44.859465" lon="7.230295"><ele>1265.0</ele><time>2026-04-11T14:38:57.002Z</time></trkpt><trkpt lat="44.8593883" lon="7.2303517"><ele>1265.0</ele><time>2026-04-11T14:38:58.002Z</time></trkpt><trkpt lat="44.85931" lon="7.2304"><ele>1265.0</ele><time>2026-04-11T14:38:59.002Z</time></trkpt><trkpt lat="44.8592317" lon="7.23045"><ele>1265.0</ele><time>2026-04-11T14:39:00.002Z</time></trkpt><trkpt lat="44.8591533" lon="7.2305033"><ele>1265.0</ele><time>2026-04-11T14:39:01.003Z</time></trkpt><trkpt lat="44.8590767" lon="7.23056"><ele>1265.0</ele><time>2026-04-11T14:39:02.002Z</time></trkpt><trkpt lat="44.85901" lon="7.2306283"><ele>1263.6666666666667</ele><time>2026-04-11T14:39:03.002Z</time></trkpt><trkpt lat="44.8589567" lon="7.2306983"><ele>1262.3333333333335</ele><time>2026-04-11T14:39:04.003Z</time></trkpt><trkpt lat="44.8589067" lon="7.2307867"><ele>1261.0</ele><time>2026-04-11T14:39:05.002Z</time></trkpt><trkpt lat="44.8588567" lon="7.230865"><ele>1259.6666666666667</ele><time>2026-04-11T14:39:06.002Z</time></trkpt><trkpt lat="44.8587767" lon="7.2309133"><ele>1258.3333333333333</ele><time>2026-04-11T14:39:08.002Z</time></trkpt><trkpt lat="44.85872" lon="7.230965"><ele>1257.0</ele><time>2026-04-11T14:39:09.002Z</time></trkpt><trkpt lat="44.8586683" lon="7.23104"><ele>1257.0</ele><time>2026-04-11T14:39:10.002Z</time></trkpt><trkpt lat="44.8586217" lon="7.23112"><ele>1257.0</ele><time>2026-04-11T14:39:11.002Z</time></trkpt><trkpt lat="44.8585733" lon="7.231225"><ele>1257.0</ele><time>2026-04-11T14:39:12.002Z</time></trkpt><trkpt lat="44.8585317" lon="7.2313217"><ele>1257.0</ele><time>2026-04-11T14:39:13.003Z</time></trkpt><trkpt lat="44.85849" lon="7.2314067"><ele>1257.0</ele><time>2026-04-11T14:39:14.002Z</time></trkpt><trkpt lat="44.8584483" lon="7.2314983"><ele>1257.0</ele><time>2026-04-11T14:39:15.002Z</time></trkpt><trkpt lat="44.8584133" lon="7.2315767"><ele>1254.8333333333333</ele><time>2026-04-11T14:39:16.002Z</time></trkpt><trkpt lat="44.85838" lon="7.231665"><ele>1252.6666666666667</ele><time>2026-04-11T14:39:17.003Z</time></trkpt><trkpt lat="44.8583217" lon="7.2317967"><ele>1250.5</ele><time>2026-04-11T14:39:19.002Z</time></trkpt><trkpt lat="44.8582917" lon="7.231885"><ele>1248.3333333333335</ele><time>2026-04-11T14:39:21.002Z</time></trkpt><trkpt lat="44.858285" lon="7.2319767"><ele>1246.1666666666667</ele><time>2026-04-11T14:39:24.002Z</time></trkpt><trkpt lat="44.858265" lon="7.232105"><ele>1244.0</ele><time>2026-04-11T14:39:27.002Z</time></trkpt><trkpt lat="44.8582217" lon="7.2322267"><ele>1242.0</ele><time>2026-04-11T14:39:30.002Z</time></trkpt><trkpt lat="44.8581383" lon="7.2323233"><ele>1240.0</ele><time>2026-04-11T14:39:32.003Z</time></trkpt><trkpt lat="44.8580333" lon="7.2324183"><ele>1238.0</ele><time>2026-04-11T14:39:34.002Z</time></trkpt><trkpt lat="44.8579467" lon="7.232515"><ele>1236.0</ele><time>2026-04-11T14:39:36.002Z</time></trkpt><trkpt lat="44.8578483" lon="7.2326333"><ele>1236.0</ele><time>2026-04-11T14:39:38.002Z</time></trkpt><trkpt lat="44.8578067" lon="7.2327017"><ele>1236.0</ele><time>2026-04-11T14:39:39.002Z</time></trkpt><trkpt lat="44.85773" lon="7.2328417"><ele>1236.0</ele><time>2026-04-11T14:39:41.002Z</time></trkpt><trkpt lat="44.8576833" lon="7.2329167"><ele>1236.0</ele><time>2026-04-11T14:39:42.002Z</time></trkpt><trkpt lat="44.85764" lon="7.2329967"><ele>1236.0</ele><time>2026-04-11T14:39:43.002Z</time></trkpt><trkpt lat="44.8575933" lon="7.2330583"><ele>1236.0</ele><time>2026-04-11T14:39:44.002Z</time></trkpt><trkpt lat="44.857545" lon="7.2331183"><ele>1232.3333333333333</ele><time>2026-04-11T14:39:45.002Z</time></trkpt><trkpt lat="44.8574917" lon="7.233175"><ele>1228.6666666666667</ele><time>2026-04-11T14:39:46.002Z</time></trkpt><trkpt lat="44.8574367" lon="7.233245"><ele>1225.0</ele><time>2026-04-11T14:39:47.002Z</time></trkpt><trkpt lat="44.8573633" lon="7.2333767"><ele>1221.3333333333335</ele><time>2026-04-11T14:39:49.002Z</time></trkpt><trkpt lat="44.8573367" lon="7.2334583"><ele>1217.6666666666667</ele><time>2026-04-11T14:39:50.002Z</time></trkpt><trkpt lat="44.8572833" lon="7.2336"><ele>1214.0</ele><time>2026-04-11T14:39:52.002Z</time></trkpt><trkpt lat="44.8572267" lon="7.2337267"><ele>1213.9999999999998</ele><time>2026-04-11T14:39:54.003Z</time></trkpt><trkpt lat="44.8571583" lon="7.2338367"><ele>1214.0</ele><time>2026-04-11T14:39:56.002Z</time></trkpt><trkpt lat="44.8571133" lon="7.233905"><ele>1214.0</ele><time>2026-04-11T14:39:57.002Z</time></trkpt><trkpt lat="44.8570633" lon="7.2339817"><ele>1214.0</ele><time>2026-04-11T14:39:58.002Z</time></trkpt><trkpt lat="44.8570083" lon="7.234055"><ele>1214.0</ele><time>2026-04-11T14:39:59.002Z</time></trkpt><trkpt lat="44.85696" lon="7.2341167"><ele>1213.9999999999998</ele><time>2026-04-11T14:40:00.002Z</time></trkpt><trkpt lat="44.85691" lon="7.234175"><ele>1214.0</ele><time>2026-04-11T14:40:01.002Z</time></trkpt><trkpt lat="44.8568567" lon="7.23424"><ele>1210.6666666666667</ele><time>2026-04-11T14:40:02.002Z</time></trkpt><trkpt lat="44.8568017" lon="7.2343133"><ele>1207.3333333333335</ele><time>2026-04-11T14:40:03.002Z</time></trkpt><trkpt lat="44.8567417" lon="7.23438"><ele>1204.0</ele><time>2026-04-11T14:40:04.002Z</time></trkpt><trkpt lat="44.856635" lon="7.234475"><ele>1200.6666666666667</ele><time>2026-04-11T14:40:06.002Z</time></trkpt><trkpt lat="44.8565767" lon="7.2345233"><ele>1197.3333333333333</ele><time>2026-04-11T14:40:07.002Z</time></trkpt><trkpt lat="44.8565167" lon="7.23459"><ele>1194.0</ele><time>2026-04-11T14:40:08.003Z</time></trkpt><trkpt lat="44.8564267" lon="7.2347083"><ele>1192.6666666666667</ele><time>2026-04-11T14:40:10.002Z</time></trkpt><trkpt lat="44.856325" lon="7.23482"><ele>1191.3333333333333</ele><time>2026-04-11T14:40:12.002Z</time></trkpt><trkpt lat="44.8562633" lon="7.2348517"><ele>1190.0</ele><time>2026-04-11T14:40:13.002Z</time></trkpt><trkpt lat="44.8561867" lon="7.2348783"><ele>1188.6666666666665</ele><time>2026-04-11T14:40:14.002Z</time></trkpt><trkpt lat="44.85611" lon="7.2349067"><ele>1187.3333333333333</ele><time>2026-04-11T14:40:15.002Z</time></trkpt><trkpt lat="44.856025" lon="7.23493"><ele>1186.0</ele><time>2026-04-11T14:40:16.002Z</time></trkpt><trkpt lat="44.855935" lon="7.2349667"><ele>1185.3999999999999</ele><time>2026-04-11T14:40:17.002Z</time></trkpt><trkpt lat="44.8558333" lon="7.2350083"><ele>1184.8</ele><time>2026-04-11T14:40:18.002Z</time></trkpt><trkpt lat="44.8557333" lon="7.2350433"><ele>1184.1999999999998</ele><time>2026-04-11T14:40:19.002Z</time></trkpt><trkpt lat="44.855635" lon="7.2350767"><ele>1183.6</ele><time>2026-04-11T14:40:20.002Z</time></trkpt><trkpt lat="44.8555383" lon="7.235105"><ele>1183.0</ele><time>2026-04-11T14:40:21.002Z</time></trkpt><trkpt lat="44.8554517" lon="7.235125"><ele>1183.0</ele><time>2026-04-11T14:40:22.002Z</time></trkpt><trkpt lat="44.8553717" lon="7.235135"><ele>1183.0</ele><time>2026-04-11T14:40:23.002Z</time></trkpt><trkpt lat="44.8552983" lon="7.23515"><ele>1183.0</ele><time>2026-04-11T14:40:24.003Z</time></trkpt><trkpt lat="44.8552217" lon="7.2351683"><ele>1183.0</ele><time>2026-04-11T14:40:25.002Z</time></trkpt><trkpt lat="44.855155" lon="7.2351867"><ele>1183.0</ele><time>2026-04-11T14:40:26.002Z</time></trkpt><trkpt lat="44.8550783" lon="7.235225"><ele>1183.0</ele><time>2026-04-11T14:40:27.002Z</time></trkpt><trkpt lat="44.855005" lon="7.235265"><ele>1181.6666666666665</ele><time>2026-04-11T14:40:28.002Z</time></trkpt><trkpt lat="44.8549367" lon="7.23532"><ele>1180.3333333333333</ele><time>2026-04-11T14:40:29.002Z</time></trkpt><trkpt lat="44.8548717" lon="7.23539"><ele>1179.0</ele><time>2026-04-11T14:40:30.002Z</time></trkpt><trkpt lat="44.8548083" lon="7.2354633"><ele>1177.6666666666667</ele><time>2026-04-11T14:40:31.002Z</time></trkpt><trkpt lat="44.8547367" lon="7.2355217"><ele>1176.3333333333335</ele><time>2026-04-11T14:40:32.002Z</time></trkpt><trkpt lat="44.8546533" lon="7.2355867"><ele>1175.0</ele><time>2026-04-11T14:40:33.002Z</time></trkpt><trkpt lat="44.8545767" lon="7.2356467"><ele>1174.4</ele><time>2026-04-11T14:40:34.002Z</time></trkpt><trkpt lat="44.8545083" lon="7.2356933"><ele>1173.8</ele><time>2026-04-11T14:40:35.002Z</time></trkpt><trkpt lat="44.8544467" lon="7.2357367"><ele>1173.2</ele><time>2026-04-11T14:40:36.002Z</time></trkpt><trkpt lat="44.8543317" lon="7.2357967"><ele>1172.6</ele><time>2026-04-11T14:40:38.002Z</time></trkpt><trkpt lat="44.8542633" lon="7.2358267"><ele>1172.0</ele><time>2026-04-11T14:40:39.002Z</time></trkpt><trkpt lat="44.85415" lon="7.235895"><ele>1172.0</ele><time>2026-04-11T14:40:41.002Z</time></trkpt><trkpt lat="44.85409" lon="7.235955"><ele>1172.0</ele><time>2026-04-11T14:40:42.002Z</time></trkpt><trkpt lat="44.85403" lon="7.23601"><ele>1172.0</ele><time>2026-04-11T14:40:43.002Z</time></trkpt><trkpt lat="44.85397" lon="7.236065"><ele>1172.0</ele><time>2026-04-11T14:40:44.002Z</time></trkpt><trkpt lat="44.8539117" lon="7.236105"><ele>1172.0</ele><time>2026-04-11T14:40:45.002Z</time></trkpt><trkpt lat="44.8538517" lon="7.2361483"><ele>1172.0</ele><time>2026-04-11T14:40:46.002Z</time></trkpt><trkpt lat="44.853725" lon="7.23618"><ele>1172.0</ele><time>2026-04-11T14:40:48.002Z</time></trkpt><trkpt lat="44.8536533" lon="7.2362"><ele>1172.0</ele><time>2026-04-11T14:40:49.002Z</time></trkpt><trkpt lat="44.8535767" lon="7.236225"><ele>1172.0</ele><time>2026-04-11T14:40:50.002Z</time></trkpt><trkpt lat="44.8534933" lon="7.2362367"><ele>1172.0</ele><time>2026-04-11T14:40:51.003Z</time></trkpt><trkpt lat="44.8534167" lon="7.2362383"><ele>1172.0</ele><time>2026-04-11T14:40:52.002Z</time></trkpt><trkpt lat="44.8533367" lon="7.2362517"><ele>1172.0</ele><time>2026-04-11T14:40:53.002Z</time></trkpt><trkpt lat="44.8532633" lon="7.2362533"><ele>1170.3333333333335</ele><time>2026-04-11T14:40:54.002Z</time></trkpt><trkpt lat="44.8531933" lon="7.2362533"><ele>1168.6666666666667</ele><time>2026-04-11T14:40:55.002Z</time></trkpt><trkpt lat="44.85313" lon="7.2362583"><ele>1167.0</ele><time>2026-04-11T14:40:56.002Z</time></trkpt><trkpt lat="44.853025" lon="7.2362667"><ele>1165.3333333333333</ele><time>2026-04-11T14:40:58.002Z</time></trkpt><trkpt lat="44.8529367" lon="7.2362367"><ele>1163.6666666666665</ele><time>2026-04-11T14:41:00.002Z</time></trkpt><trkpt lat="44.852905" lon="7.2361317"><ele>1162.0</ele><time>2026-04-11T14:41:02.002Z</time></trkpt><trkpt lat="44.8529117" lon="7.2359867"><ele>1162.0</ele><time>2026-04-11T14:41:04.002Z</time></trkpt><trkpt lat="44.8529183" lon="7.2358183"><ele>1162.0</ele><time>2026-04-11T14:41:06.002Z</time></trkpt><trkpt lat="44.8529267" lon="7.2357267"><ele>1162.0</ele><time>2026-04-11T14:41:07.002Z</time></trkpt><trkpt lat="44.852945" lon="7.2355517"><ele>1162.0</ele><time>2026-04-11T14:41:09.002Z</time></trkpt><trkpt lat="44.85297" lon="7.235385"><ele>1162.0</ele><time>2026-04-11T14:41:11.002Z</time></trkpt><trkpt lat="44.8529833" lon="7.2352867"><ele>1160.0</ele><time>2026-04-11T14:41:12.002Z</time></trkpt><trkpt lat="44.85299" lon="7.23518"><ele>1158.0</ele><time>2026-04-11T14:41:13.002Z</time></trkpt><trkpt lat="44.8529967" lon="7.235065"><ele>1156.0</ele><time>2026-04-11T14:41:14.002Z</time></trkpt><trkpt lat="44.8530017" lon="7.234955"><ele>1154.0</ele><time>2026-04-11T14:41:15.002Z</time></trkpt><trkpt lat="44.8530083" lon="7.2348567"><ele>1152.0</ele><time>2026-04-11T14:41:16.002Z</time></trkpt><trkpt lat="44.85302" lon="7.2346917"><ele>1150.0</ele><time>2026-04-11T14:41:18.002Z</time></trkpt><trkpt lat="44.8530317" lon="7.2345683"><ele>1148.0</ele><time>2026-04-11T14:41:20.002Z</time></trkpt><trkpt lat="44.8530633" lon="7.2343417"><ele>1146.0</ele><time>2026-04-11T14:42:38.002Z</time></trkpt><trkpt lat="44.85308" lon="7.2342317"><ele>1144.0</ele><time>2026-04-11T14:42:41.002Z</time></trkpt><trkpt lat="44.8530383" lon="7.2341467"><ele>1142.0</ele><time>2026-04-11T14:42:44.002Z</time></trkpt><trkpt lat="44.8529583" lon="7.2341133"><ele>1140.0</ele><time>2026-04-11T14:42:47.002Z</time></trkpt><trkpt lat="44.8528917" lon="7.23407"><ele>1140.0</ele><time>2026-04-11T14:42:49.002Z</time></trkpt><trkpt lat="44.852815" lon="7.2339917"><ele>1140.0</ele><time>2026-04-11T14:42:51.003Z</time></trkpt><trkpt lat="44.8527317" lon="7.233925"><ele>1140.0</ele><time>2026-04-11T14:42:53.002Z</time></trkpt><trkpt lat="44.8526467" lon="7.233875"><ele>1140.0</ele><time>2026-04-11T14:42:55.002Z</time></trkpt><trkpt lat="44.852555" lon="7.2338283"><ele>1140.0</ele><time>2026-04-11T14:42:57.002Z</time></trkpt><trkpt lat="44.8524933" lon="7.2337917"><ele>1140.0</ele><time>2026-04-11T14:42:58.002Z</time></trkpt><trkpt lat="44.85243" lon="7.233755"><ele>1136.6666666666667</ele><time>2026-04-11T14:42:59.002Z</time></trkpt><trkpt lat="44.85237" lon="7.23372"><ele>1133.3333333333333</ele><time>2026-04-11T14:43:00.003Z</time></trkpt><trkpt lat="44.85231" lon="7.2336867"><ele>1130.0</ele><time>2026-04-11T14:43:01.002Z</time></trkpt><trkpt lat="44.8522167" lon="7.2336367"><ele>1126.6666666666665</ele><time>2026-04-11T14:43:03.002Z</time></trkpt><trkpt lat="44.8521433" lon="7.2335383"><ele>1123.3333333333333</ele><time>2026-04-11T14:43:06.002Z</time></trkpt><trkpt lat="44.8520867" lon="7.2334633"><ele>1120.0</ele><time>2026-04-11T14:43:08.002Z</time></trkpt><trkpt lat="44.8520117" lon="7.233425"><ele>1120.0</ele><time>2026-04-11T14:43:10.002Z</time></trkpt><trkpt lat="44.851905" lon="7.2334267"><ele>1120.0</ele><time>2026-04-11T14:43:12.002Z</time></trkpt><trkpt lat="44.8518017" lon="7.2334483"><ele>1120.0</ele><time>2026-04-11T14:43:14.002Z</time></trkpt><trkpt lat="44.8517017" lon="7.2333933"><ele>1120.0</ele><time>2026-04-11T14:43:16.003Z</time></trkpt><trkpt lat="44.851625" lon="7.2332533"><ele>1120.0</ele><time>2026-04-11T14:43:18.002Z</time></trkpt><trkpt lat="44.8515767" lon="7.2331633"><ele>1116.1666666666665</ele><time>2026-04-11T14:43:19.002Z</time></trkpt><trkpt lat="44.8515317" lon="7.2330867"><ele>1112.3333333333333</ele><time>2026-04-11T14:43:20.002Z</time></trkpt><trkpt lat="44.8514833" lon="7.2330067"><ele>1108.5</ele><time>2026-04-11T14:43:21.002Z</time></trkpt><trkpt lat="44.8514217" lon="7.23292"><ele>1104.6666666666667</ele><time>2026-04-11T14:43:22.002Z</time></trkpt><trkpt lat="44.8513567" lon="7.23284"><ele>1100.8333333333335</ele><time>2026-04-11T14:43:23.002Z</time></trkpt><trkpt lat="44.8513033" lon="7.23277"><ele>1097.0</ele><time>2026-04-11T14:43:24.002Z</time></trkpt><trkpt lat="44.85125" lon="7.2327033"><ele>1097.0</ele><time>2026-04-11T14:43:25.003Z</time></trkpt><trkpt lat="44.851195" lon="7.2326267"><ele>1097.0</ele><time>2026-04-11T14:43:26.003Z</time></trkpt><trkpt lat="44.8511417" lon="7.2325583"><ele>1097.0</ele><time>2026-04-11T14:43:27.003Z</time></trkpt><trkpt lat="44.8510783" lon="7.2324717"><ele>1097.0</ele><time>2026-04-11T14:43:28.003Z</time></trkpt><trkpt lat="44.8510167" lon="7.2323933"><ele>1097.0</ele><time>2026-04-11T14:43:29.003Z</time></trkpt><trkpt lat="44.85096" lon="7.2323233"><ele>1097.0</ele><time>2026-04-11T14:43:30.003Z</time></trkpt><trkpt lat="44.8509083" lon="7.2322567"><ele>1092.2</ele><time>2026-04-11T14:43:31.003Z</time></trkpt><trkpt lat="44.8508567" lon="7.232195"><ele>1087.4</ele><time>2026-04-11T14:43:32.003Z</time></trkpt><trkpt lat="44.8507733" lon="7.2320767"><ele>1082.6</ele><time>2026-04-11T14:43:34.004Z</time></trkpt><trkpt lat="44.8507083" lon="7.2319767"><ele>1077.8</ele><time>2026-04-11T14:43:36.003Z</time></trkpt><trkpt lat="44.8506583" lon="7.2318617"><ele>1073.0</ele><time>2026-04-11T14:43:38.003Z</time></trkpt><trkpt lat="44.8506" lon="7.2317617"><ele>1073.0</ele><time>2026-04-11T14:43:40.003Z</time></trkpt><trkpt lat="44.8505567" lon="7.2316933"><ele>1073.0</ele><time>2026-04-11T14:43:42.003Z</time></trkpt><trkpt lat="44.850505" lon="7.2316317"><ele>1073.0</ele><time>2026-04-11T14:43:44.003Z</time></trkpt><trkpt lat="44.85044" lon="7.2315733"><ele>1073.0</ele><time>2026-04-11T14:43:47.003Z</time></trkpt><trkpt lat="44.8503733" lon="7.2315283"><ele>1073.0</ele><time>2026-04-11T14:44:04.003Z</time></trkpt><trkpt lat="44.8502467" lon="7.231495"><ele>1073.0</ele><time>2026-04-11T14:44:06.003Z</time></trkpt><trkpt lat="44.8501717" lon="7.23148"><ele>1073.5</ele><time>2026-04-11T14:44:07.003Z</time></trkpt><trkpt lat="44.8501" lon="7.2314733"><ele>1074.0</ele><time>2026-04-11T14:44:08.003Z</time></trkpt><trkpt lat="44.850035" lon="7.231475"><ele>1074.5</ele><time>2026-04-11T14:44:09.003Z</time></trkpt><trkpt lat="44.8499617" lon="7.231475"><ele>1075.0</ele><time>2026-04-11T14:44:10.003Z</time></trkpt><trkpt lat="44.84988" lon="7.2314683"><ele>1075.5</ele><time>2026-04-11T14:44:11.003Z</time></trkpt><trkpt lat="44.8498" lon="7.23147"><ele>1076.0</ele><time>2026-04-11T14:44:12.003Z</time></trkpt><trkpt lat="44.84972" lon="7.23147"><ele>1076.0</ele><time>2026-04-11T14:44:13.003Z</time></trkpt><trkpt lat="44.849635" lon="7.231485"><ele>1076.0</ele><time>2026-04-11T14:44:14.003Z</time></trkpt><trkpt lat="44.8495583" lon="7.23151"><ele>1076.0</ele><time>2026-04-11T14:44:15.003Z</time></trkpt><trkpt lat="44.849485" lon="7.2315367"><ele>1076.0</ele><time>2026-04-11T14:44:16.003Z</time></trkpt><trkpt lat="44.8494133" lon="7.2315917"><ele>1076.0</ele><time>2026-04-11T14:44:17.003Z</time></trkpt><trkpt lat="44.8493467" lon="7.231665"><ele>1076.0</ele><time>2026-04-11T14:44:18.003Z</time></trkpt><trkpt lat="44.8492867" lon="7.2317583"><ele>1074.0</ele><time>2026-04-11T14:44:19.003Z</time></trkpt><trkpt lat="44.849235" lon="7.2318783"><ele>1072.0</ele><time>2026-04-11T14:44:20.004Z</time></trkpt><trkpt lat="44.8491983" lon="7.2319983"><ele>1070.0</ele><time>2026-04-11T14:44:21.003Z</time></trkpt><trkpt lat="44.8491767" lon="7.2321167"><ele>1068.0</ele><time>2026-04-11T14:44:22.003Z</time></trkpt><trkpt lat="44.849165" lon="7.2322417"><ele>1066.0</ele><time>2026-04-11T14:44:23.003Z</time></trkpt><trkpt lat="44.8491617" lon="7.2323733"><ele>1066.0</ele><time>2026-04-11T14:44:24.003Z</time></trkpt><trkpt lat="44.8491717" lon="7.2324933"><ele>1066.0</ele><time>2026-04-11T14:44:25.003Z</time></trkpt><trkpt lat="44.8491667" lon="7.2326367"><ele>1066.0</ele><time>2026-04-11T14:44:26.003Z</time></trkpt><trkpt lat="44.8491533" lon="7.2327767"><ele>1066.0</ele><time>2026-04-11T14:44:27.003Z</time></trkpt><trkpt lat="44.8491333" lon="7.2329083"><ele>1066.0</ele><time>2026-04-11T14:44:28.003Z</time></trkpt><trkpt lat="44.8491233" lon="7.2330417"><ele>1066.6</ele><time>2026-04-11T14:44:29.003Z</time></trkpt><trkpt lat="44.8491083" lon="7.2331667"><ele>1067.1999999999998</ele><time>2026-04-11T14:44:30.003Z</time></trkpt><trkpt lat="44.84911" lon="7.233295"><ele>1067.8000000000002</ele><time>2026-04-11T14:44:31.003Z</time></trkpt><trkpt lat="44.8491167" lon="7.2334283"><ele>1068.4</ele><time>2026-04-11T14:44:32.003Z</time></trkpt><trkpt lat="44.8491233" lon="7.2335467"><ele>1069.0</ele><time>2026-04-11T14:44:33.003Z</time></trkpt><trkpt lat="44.8491317" lon="7.2336867"><ele>1069.0</ele><time>2026-04-11T14:44:34.004Z</time></trkpt><trkpt lat="44.8491233" lon="7.2337967"><ele>1069.0</ele><time>2026-04-11T14:44:35.004Z</time></trkpt><trkpt lat="44.84911" lon="7.2339167"><ele>1069.0</ele><time>2026-04-11T14:44:36.003Z</time></trkpt><trkpt lat="44.849085" lon="7.2340417"><ele>1069.0</ele><time>2026-04-11T14:44:37.003Z</time></trkpt><trkpt lat="44.8490683" lon="7.2341717"><ele>1069.0</ele><time>2026-04-11T14:44:38.003Z</time></trkpt><trkpt lat="44.8490483" lon="7.2342933"><ele>1069.0</ele><time>2026-04-11T14:44:39.004Z</time></trkpt><trkpt lat="44.84903" lon="7.2344283"><ele>1070.0</ele><time>2026-04-11T14:44:40.003Z</time></trkpt><trkpt lat="44.8490017" lon="7.2345633"><ele>1071.0</ele><time>2026-04-11T14:44:41.004Z</time></trkpt><trkpt lat="44.8489917" lon="7.2346917"><ele>1072.0</ele><time>2026-04-11T14:44:42.003Z</time></trkpt><trkpt lat="44.8489867" lon="7.2348117"><ele>1073.0</ele><time>2026-04-11T14:44:43.003Z</time></trkpt><trkpt lat="44.8489933" lon="7.234925"><ele>1074.0</ele><time>2026-04-11T14:44:44.003Z</time></trkpt><trkpt lat="44.849015" lon="7.2350417"><ele>1075.0</ele><time>2026-04-11T14:44:45.003Z</time></trkpt><trkpt lat="44.8490533" lon="7.235145"><ele>1075.1666666666665</ele><time>2026-04-11T14:44:46.003Z</time></trkpt><trkpt lat="44.8491067" lon="7.2352567"><ele>1075.3333333333333</ele><time>2026-04-11T14:44:47.003Z</time></trkpt><trkpt lat="44.8491567" lon="7.23536"><ele>1075.5</ele><time>2026-04-11T14:44:48.003Z</time></trkpt><trkpt lat="44.84918" lon="7.2354867"><ele>1075.6666666666667</ele><time>2026-04-11T14:44:49.003Z</time></trkpt><trkpt lat="44.8491567" lon="7.23559"><ele>1075.8333333333335</ele><time>2026-04-11T14:44:50.003Z</time></trkpt><trkpt lat="44.8491017" lon="7.2356767"><ele>1076.0</ele><time>2026-04-11T14:44:51.004Z</time></trkpt><trkpt lat="44.8490217" lon="7.2357383"><ele>1075.5</ele><time>2026-04-11T14:44:52.004Z</time></trkpt><trkpt lat="44.8489333" lon="7.2358067"><ele>1075.0</ele><time>2026-04-11T14:44:53.003Z</time></trkpt><trkpt lat="44.84885" lon="7.2358667"><ele>1074.5</ele><time>2026-04-11T14:44:54.003Z</time></trkpt><trkpt lat="44.8487833" lon="7.2359367"><ele>1074.0</ele><time>2026-04-11T14:44:55.003Z</time></trkpt><trkpt lat="44.8487317" lon="7.23601"><ele>1073.5</ele><time>2026-04-11T14:44:56.003Z</time></trkpt><trkpt lat="44.848685" lon="7.2361033"><ele>1073.0</ele><time>2026-04-11T14:44:57.003Z</time></trkpt><trkpt lat="44.8486433" lon="7.2361867"><ele>1073.0</ele><time>2026-04-11T14:44:58.004Z</time></trkpt><trkpt lat="44.8485833" lon="7.236325"><ele>1073.0</ele><time>2026-04-11T14:45:00.003Z</time></trkpt><trkpt lat="44.8485483" lon="7.236445"><ele>1073.0</ele><time>2026-04-11T14:45:02.003Z</time></trkpt><trkpt lat="44.8485333" lon="7.23655"><ele>1073.0</ele><time>2026-04-11T14:45:05.003Z</time></trkpt><trkpt lat="44.8485233" lon="7.2366433"><ele>1073.0</ele><time>2026-04-11T14:45:07.003Z</time></trkpt><trkpt lat="44.848485" lon="7.2367417"><ele>1073.0</ele><time>2026-04-11T14:45:09.003Z</time></trkpt><trkpt lat="44.8484167" lon="7.2367917"><ele>1069.8333333333335</ele><time>2026-04-11T14:45:10.003Z</time></trkpt><trkpt lat="44.848315" lon="7.2368367"><ele>1066.6666666666667</ele><time>2026-04-11T14:45:12.003Z</time></trkpt><trkpt lat="44.848215" lon="7.2368683"><ele>1063.5</ele><time>2026-04-11T14:45:14.003Z</time></trkpt><trkpt lat="44.84815" lon="7.236885"><ele>1060.3333333333333</ele><time>2026-04-11T14:45:15.004Z</time></trkpt><trkpt lat="44.8480933" lon="7.2369267"><ele>1057.1666666666665</ele><time>2026-04-11T14:45:16.003Z</time></trkpt><trkpt lat="44.8480333" lon="7.236985"><ele>1054.0</ele><time>2026-04-11T14:45:17.003Z</time></trkpt><trkpt lat="44.847975" lon="7.2370267"><ele>1054.0</ele><time>2026-04-11T14:45:18.003Z</time></trkpt><trkpt lat="44.84792" lon="7.237075"><ele>1054.0</ele><time>2026-04-11T14:45:19.003Z</time></trkpt><trkpt lat="44.847815" lon="7.2371783"><ele>1054.0</ele><time>2026-04-11T14:45:21.003Z</time></trkpt><trkpt lat="44.847765" lon="7.2372383"><ele>1054.0</ele><time>2026-04-11T14:45:22.003Z</time></trkpt><trkpt lat="44.847665" lon="7.2373267"><ele>1054.0</ele><time>2026-04-11T14:45:24.004Z</time></trkpt><trkpt lat="44.8475833" lon="7.2374367"><ele>1050.8333333333333</ele><time>2026-04-11T14:45:26.003Z</time></trkpt><trkpt lat="44.8475167" lon="7.2374983"><ele>1047.6666666666665</ele><time>2026-04-11T14:45:28.003Z</time></trkpt><trkpt lat="44.84742" lon="7.2375717"><ele>1044.5</ele><time>2026-04-11T14:45:30.003Z</time></trkpt><trkpt lat="44.8473617" lon="7.23762"><ele>1041.3333333333333</ele><time>2026-04-11T14:45:31.003Z</time></trkpt><trkpt lat="44.8473" lon="7.2376767"><ele>1038.1666666666667</ele><time>2026-04-11T14:45:32.003Z</time></trkpt><trkpt lat="44.8472433" lon="7.2377317"><ele>1035.0</ele><time>2026-04-11T14:45:33.004Z</time></trkpt><trkpt lat="44.847185" lon="7.2378033"><ele>1035.0</ele><time>2026-04-11T14:45:34.003Z</time></trkpt><trkpt lat="44.847085" lon="7.2379133"><ele>1035.0</ele><time>2026-04-11T14:45:36.003Z</time></trkpt><trkpt lat="44.847025" lon="7.23799"><ele>1035.0</ele><time>2026-04-11T14:45:37.003Z</time></trkpt><trkpt lat="44.84696" lon="7.2380467"><ele>1035.0</ele><time>2026-04-11T14:45:38.003Z</time></trkpt><trkpt lat="44.8468867" lon="7.2381083"><ele>1035.0</ele><time>2026-04-11T14:45:39.003Z</time></trkpt><trkpt lat="44.8468233" lon="7.2381583"><ele>1035.0</ele><time>2026-04-11T14:45:40.003Z</time></trkpt><trkpt lat="44.8467533" lon="7.2382183"><ele>1033.0</ele><time>2026-04-11T14:45:41.003Z</time></trkpt><trkpt lat="44.8466967" lon="7.238265"><ele>1031.0</ele><time>2026-04-11T14:45:42.003Z</time></trkpt><trkpt lat="44.8466367" lon="7.2383183"><ele>1029.0</ele><time>2026-04-11T14:45:43.003Z</time></trkpt><trkpt lat="44.8465633" lon="7.23837"><ele>1027.0</ele><time>2026-04-11T14:45:44.003Z</time></trkpt><trkpt lat="44.8464867" lon="7.2384283"><ele>1025.0</ele><time>2026-04-11T14:45:45.003Z</time></trkpt><trkpt lat="44.8464183" lon="7.238485"><ele>1023.0</ele><time>2026-04-11T14:45:46.003Z</time></trkpt><trkpt lat="44.8463633" lon="7.2385417"><ele>1023.0</ele><time>2026-04-11T14:45:47.003Z</time></trkpt><trkpt lat="44.8462667" lon="7.2385933"><ele>1023.0</ele><time>2026-04-11T14:45:49.004Z</time></trkpt><trkpt lat="44.8462017" lon="7.2386117"><ele>1023.0</ele><time>2026-04-11T14:45:50.003Z</time></trkpt><trkpt lat="44.8460883" lon="7.23864"><ele>1023.0</ele><time>2026-04-11T14:45:52.003Z</time></trkpt><trkpt lat="44.8459883" lon="7.23868"><ele>1023.0</ele><time>2026-04-11T14:45:54.003Z</time></trkpt><trkpt lat="44.845885" lon="7.2387367"><ele>1019.8</ele><time>2026-04-11T14:45:56.003Z</time></trkpt><trkpt lat="44.8458133" lon="7.2387883"><ele>1016.5999999999999</ele><time>2026-04-11T14:45:58.003Z</time></trkpt><trkpt lat="44.8457467" lon="7.2388467"><ele>1013.4000000000001</ele><time>2026-04-11T14:46:00.003Z</time></trkpt><trkpt lat="44.8456667" lon="7.2388917"><ele>1010.2</ele><time>2026-04-11T14:46:02.004Z</time></trkpt><trkpt lat="44.8455967" lon="7.238945"><ele>1007.0</ele><time>2026-04-11T14:46:04.003Z</time></trkpt><trkpt lat="44.8454967" lon="7.2390883"><ele>1007.0</ele><time>2026-04-11T14:47:06.003Z</time></trkpt><trkpt lat="44.8454117" lon="7.239115"><ele>1007.0</ele><time>2026-04-11T14:47:08.003Z</time></trkpt><trkpt lat="44.8452917" lon="7.23916"><ele>1007.0</ele><time>2026-04-11T14:47:10.003Z</time></trkpt><trkpt lat="44.8451767" lon="7.2392017"><ele>1007.0</ele><time>2026-04-11T14:47:12.003Z</time></trkpt><trkpt lat="44.8450883" lon="7.23923"><ele>1007.0</ele><time>2026-04-11T14:47:14.004Z</time></trkpt><trkpt lat="44.8449833" lon="7.239235"><ele>1005.3333333333334</ele><time>2026-04-11T14:47:16.003Z</time></trkpt><trkpt lat="44.8449183" lon="7.239245"><ele>1003.6666666666667</ele><time>2026-04-11T14:47:17.003Z</time></trkpt><trkpt lat="44.8448517" lon="7.239275"><ele>1002.0</ele><time>2026-04-11T14:47:18.003Z</time></trkpt><trkpt lat="44.844775" lon="7.239315"><ele>1000.3333333333333</ele><time>2026-04-11T14:47:19.003Z</time></trkpt><trkpt lat="44.8446933" lon="7.23938"><ele>998.6666666666666</ele><time>2026-04-11T14:47:20.003Z</time></trkpt><trkpt lat="44.844615" lon="7.2394733"><ele>997.0</ele><time>2026-04-11T14:47:21.003Z</time></trkpt><trkpt lat="44.84455" lon="7.2395783"><ele>997.0</ele><time>2026-04-11T14:47:22.003Z</time></trkpt><trkpt lat="44.8444917" lon="7.2396867"><ele>997.0</ele><time>2026-04-11T14:47:23.003Z</time></trkpt><trkpt lat="44.8444417" lon="7.2397983"><ele>997.0</ele><time>2026-04-11T14:47:24.003Z</time></trkpt><trkpt lat="44.844395" lon="7.239915"><ele>997.0</ele><time>2026-04-11T14:47:25.003Z</time></trkpt><trkpt lat="44.84435" lon="7.2400367"><ele>997.0</ele><time>2026-04-11T14:47:26.003Z</time></trkpt><trkpt lat="44.84432" lon="7.2401633"><ele>995.2</ele><time>2026-04-11T14:47:27.004Z</time></trkpt><trkpt lat="44.84429" lon="7.2402867"><ele>993.4000000000001</ele><time>2026-04-11T14:47:28.003Z</time></trkpt><trkpt lat="44.844275" lon="7.240425"><ele>991.5999999999999</ele><time>2026-04-11T14:47:29.004Z</time></trkpt><trkpt lat="44.84426" lon="7.2405533"><ele>989.8</ele><time>2026-04-11T14:47:30.003Z</time></trkpt><trkpt lat="44.84424" lon="7.24066"><ele>988.0</ele><time>2026-04-11T14:47:31.004Z</time></trkpt><trkpt lat="44.8442117" lon="7.2407783"><ele>986.4</ele><time>2026-04-11T14:47:32.003Z</time></trkpt><trkpt lat="44.8441633" lon="7.24089"><ele>984.8</ele><time>2026-04-11T14:47:33.003Z</time></trkpt><trkpt lat="44.8440933" lon="7.2409817"><ele>983.2</ele><time>2026-04-11T14:47:34.003Z</time></trkpt><trkpt lat="44.8440017" lon="7.2410683"><ele>981.6</ele><time>2026-04-11T14:47:35.003Z</time></trkpt><trkpt lat="44.8439083" lon="7.24114"><ele>980.0</ele><time>2026-04-11T14:47:36.003Z</time></trkpt><trkpt lat="44.84381" lon="7.241215"><ele>980.0</ele><time>2026-04-11T14:47:37.003Z</time></trkpt><trkpt lat="44.843715" lon="7.2412817"><ele>980.0</ele><time>2026-04-11T14:47:38.003Z</time></trkpt><trkpt lat="44.8436233" lon="7.2413367"><ele>980.0</ele><time>2026-04-11T14:47:39.004Z</time></trkpt><trkpt lat="44.8435233" lon="7.24139"><ele>980.0</ele><time>2026-04-11T14:47:40.003Z</time></trkpt><trkpt lat="44.8434067" lon="7.2414533"><ele>980.0</ele><time>2026-04-11T14:47:41.003Z</time></trkpt><trkpt lat="44.8432867" lon="7.2415217"><ele>977.0</ele><time>2026-04-11T14:47:42.003Z</time></trkpt><trkpt lat="44.8431683" lon="7.2415967"><ele>974.0</ele><time>2026-04-11T14:47:43.003Z</time></trkpt><trkpt lat="44.843055" lon="7.2416683"><ele>971.0</ele><time>2026-04-11T14:47:44.003Z</time></trkpt><trkpt lat="44.8429533" lon="7.2417433"><ele>968.0</ele><time>2026-04-11T14:47:45.003Z</time></trkpt><trkpt lat="44.84286" lon="7.2418183"><ele>968.0</ele><time>2026-04-11T14:47:46.004Z</time></trkpt><trkpt lat="44.8427717" lon="7.241905"><ele>968.0</ele><time>2026-04-11T14:47:47.003Z</time></trkpt><trkpt lat="44.8426817" lon="7.2419667"><ele>968.0</ele><time>2026-04-11T14:47:48.003Z</time></trkpt><trkpt lat="44.8425817" lon="7.2419883"><ele>968.0</ele><time>2026-04-11T14:47:49.003Z</time></trkpt><trkpt lat="44.8424683" lon="7.24199"><ele>968.0</ele><time>2026-04-11T14:47:50.004Z</time></trkpt><trkpt lat="44.8423567" lon="7.2419817"><ele>966.8</ele><time>2026-04-11T14:47:51.003Z</time></trkpt><trkpt lat="44.8422417" lon="7.2419733"><ele>965.5999999999999</ele><time>2026-04-11T14:47:52.003Z</time></trkpt><trkpt lat="44.842145" lon="7.241955"><ele>964.4000000000001</ele><time>2026-04-11T14:47:53.003Z</time></trkpt><trkpt lat="44.8420367" lon="7.2419283"><ele>963.2</ele><time>2026-04-11T14:47:54.003Z</time></trkpt><trkpt lat="44.8419383" lon="7.24189"><ele>962.0</ele><time>2026-04-11T14:47:55.003Z</time></trkpt><trkpt lat="44.84186" lon="7.2418333"><ele>960.8333333333334</ele><time>2026-04-11T14:47:56.003Z</time></trkpt><trkpt lat="44.84179" lon="7.2417667"><ele>959.6666666666667</ele><time>2026-04-11T14:47:57.004Z</time></trkpt><trkpt lat="44.8417233" lon="7.2416717"><ele>958.5</ele><time>2026-04-11T14:47:58.003Z</time></trkpt><trkpt lat="44.841675" lon="7.24158"><ele>957.3333333333333</ele><time>2026-04-11T14:47:59.003Z</time></trkpt><trkpt lat="44.84163" lon="7.2414817"><ele>956.1666666666666</ele><time>2026-04-11T14:48:00.003Z</time></trkpt><trkpt lat="44.841605" lon="7.24137"><ele>955.0</ele><time>2026-04-11T14:48:01.003Z</time></trkpt><trkpt lat="44.8415967" lon="7.2412517"><ele>954.4999999999999</ele><time>2026-04-11T14:48:02.003Z</time></trkpt><trkpt lat="44.841615" lon="7.2411367"><ele>954.0</ele><time>2026-04-11T14:48:03.003Z</time></trkpt><trkpt lat="44.8416283" lon="7.2410283"><ele>953.5</ele><time>2026-04-11T14:48:04.003Z</time></trkpt><trkpt lat="44.8416533" lon="7.2409033"><ele>953.0</ele><time>2026-04-11T14:48:05.003Z</time></trkpt><trkpt lat="44.8417217" lon="7.2408167"><ele>952.4999999999999</ele><time>2026-04-11T14:48:06.003Z</time></trkpt><trkpt lat="44.8417933" lon="7.24075"><ele>952.0</ele><time>2026-04-11T14:48:07.003Z</time></trkpt><trkpt lat="44.8418483" lon="7.240695"><ele>952.0</ele><time>2026-04-11T14:48:08.003Z</time></trkpt><trkpt lat="44.8419" lon="7.2406383"><ele>952.0</ele><time>2026-04-11T14:48:09.003Z</time></trkpt><trkpt lat="44.8419533" lon="7.24053"><ele>952.0</ele><time>2026-04-11T14:48:11.003Z</time></trkpt><trkpt lat="44.841855" lon="7.2404717"><ele>952.0</ele><time>2026-04-11T14:48:15.003Z</time></trkpt><trkpt lat="44.8417217" lon="7.2405083"><ele>952.0</ele><time>2026-04-11T14:48:17.003Z</time></trkpt><trkpt lat="44.84164" lon="7.2405617"><ele>952.0</ele><time>2026-04-11T14:48:18.003Z</time></trkpt><trkpt lat="44.8415583" lon="7.2406383"><ele>952.0</ele><time>2026-04-11T14:48:19.003Z</time></trkpt><trkpt lat="44.8414783" lon="7.2407383"><ele>952.0</ele><time>2026-04-11T14:48:20.003Z</time></trkpt><trkpt lat="44.8414017" lon="7.2408867"><ele>952.0</ele><time>2026-04-11T14:48:21.003Z</time></trkpt><trkpt lat="44.84133" lon="7.2410433"><ele>951.9999999999999</ele><time>2026-04-11T14:48:22.003Z</time></trkpt><trkpt lat="44.8412867" lon="7.2411933"><ele>952.0</ele><time>2026-04-11T14:48:23.003Z</time></trkpt><trkpt lat="44.8412483" lon="7.241325"><ele>952.0</ele><time>2026-04-11T14:48:24.003Z</time></trkpt><trkpt lat="44.841225" lon="7.2414417"><ele>952.0</ele><time>2026-04-11T14:48:25.004Z</time></trkpt><trkpt lat="44.841205" lon="7.2415483"><ele>951.9999999999999</ele><time>2026-04-11T14:48:26.003Z</time></trkpt><trkpt lat="44.8411867" lon="7.2416367"><ele>952.0</ele><time>2026-04-11T14:48:27.003Z</time></trkpt><trkpt lat="44.8411367" lon="7.241755"><ele>952.4999999999999</ele><time>2026-04-11T14:48:29.003Z</time></trkpt><trkpt lat="44.84112" lon="7.2418733"><ele>953.0</ele><time>2026-04-11T14:48:31.004Z</time></trkpt><trkpt lat="44.8411267" lon="7.2420117"><ele>953.5</ele><time>2026-04-11T14:48:33.003Z</time></trkpt><trkpt lat="44.84117" lon="7.242165"><ele>954.0</ele><time>2026-04-11T14:48:35.003Z</time></trkpt><trkpt lat="44.8412" lon="7.24225"><ele>954.4999999999999</ele><time>2026-04-11T14:48:36.003Z</time></trkpt><trkpt lat="44.8412283" lon="7.2423433"><ele>955.0</ele><time>2026-04-11T14:48:37.003Z</time></trkpt><trkpt lat="44.8412683" lon="7.2424533"><ele>955.0</ele><time>2026-04-11T14:48:38.003Z</time></trkpt><trkpt lat="44.841315" lon="7.242575"><ele>955.0</ele><time>2026-04-11T14:48:39.003Z</time></trkpt><trkpt lat="44.8413683" lon="7.2426767"><ele>955.0</ele><time>2026-04-11T14:48:40.003Z</time></trkpt><trkpt lat="44.8414267" lon="7.2427667"><ele>955.0</ele><time>2026-04-11T14:48:41.003Z</time></trkpt><trkpt lat="44.84148" lon="7.242875"><ele>955.0</ele><time>2026-04-11T14:48:42.003Z</time></trkpt><trkpt lat="44.84153" lon="7.2429917"><ele>954.9999999999999</ele><time>2026-04-11T14:48:43.003Z</time></trkpt><trkpt lat="44.8415733" lon="7.24309"><ele>955.0</ele><time>2026-04-11T14:48:44.004Z</time></trkpt><trkpt lat="44.841615" lon="7.2431733"><ele>955.0</ele><time>2026-04-11T14:48:45.003Z</time></trkpt><trkpt lat="44.8416383" lon="7.2432617"><ele>955.0</ele><time>2026-04-11T14:48:46.003Z</time></trkpt><trkpt lat="44.8416617" lon="7.2433467"><ele>954.9999999999999</ele><time>2026-04-11T14:48:47.003Z</time></trkpt><trkpt lat="44.8417267" lon="7.2434933"><ele>955.0</ele><time>2026-04-11T14:48:49.003Z</time></trkpt><trkpt lat="44.841795" lon="7.2436217"><ele>953.4</ele><time>2026-04-11T14:48:51.004Z</time></trkpt><trkpt lat="44.8419" lon="7.2437033"><ele>951.8</ele><time>2026-04-11T14:48:53.004Z</time></trkpt><trkpt lat="44.8419633" lon="7.2437783"><ele>950.2</ele><time>2026-04-11T14:48:54.004Z</time></trkpt><trkpt lat="44.8420333" lon="7.243855"><ele>948.6</ele><time>2026-04-11T14:48:55.004Z</time></trkpt><trkpt lat="44.8420983" lon="7.243935"><ele>947.0</ele><time>2026-04-11T14:48:56.004Z</time></trkpt><trkpt lat="44.8421667" lon="7.2440117"><ele>943.1666666666667</ele><time>2026-04-11T14:48:57.004Z</time></trkpt><trkpt lat="44.8422333" lon="7.24409"><ele>939.3333333333334</ele><time>2026-04-11T14:48:58.004Z</time></trkpt><trkpt lat="44.842305" lon="7.2441533"><ele>935.5</ele><time>2026-04-11T14:48:59.004Z</time></trkpt><trkpt lat="44.842375" lon="7.2442183"><ele>931.6666666666667</ele><time>2026-04-11T14:49:00.004Z</time></trkpt><trkpt lat="44.84243" lon="7.2442883"><ele>927.8333333333334</ele><time>2026-04-11T14:49:01.004Z</time></trkpt><trkpt lat="44.8424833" lon="7.24435"><ele>924.0</ele><time>2026-04-11T14:49:02.004Z</time></trkpt><trkpt lat="44.8425433" lon="7.2444067"><ele>924.0</ele><time>2026-04-11T14:49:03.004Z</time></trkpt><trkpt lat="44.8426033" lon="7.2444517"><ele>924.0</ele><time>2026-04-11T14:49:04.004Z</time></trkpt><trkpt lat="44.8426667" lon="7.2444917"><ele>924.0</ele><time>2026-04-11T14:49:05.004Z</time></trkpt><trkpt lat="44.8427783" lon="7.2445333"><ele>924.0</ele><time>2026-04-11T14:49:07.004Z</time></trkpt><trkpt lat="44.8428517" lon="7.2445333"><ele>924.0</ele><time>2026-04-11T14:49:09.004Z</time></trkpt><trkpt lat="44.8429367" lon="7.24447"><ele>924.0</ele><time>2026-04-11T14:49:11.004Z</time></trkpt><trkpt lat="44.8429867" lon="7.2444083"><ele>922.6666666666666</ele><time>2026-04-11T14:49:12.004Z</time></trkpt><trkpt lat="44.8430367" lon="7.2443483"><ele>921.3333333333333</ele><time>2026-04-11T14:49:13.004Z</time></trkpt><trkpt lat="44.8430917" lon="7.2443017"><ele>920.0</ele><time>2026-04-11T14:49:14.004Z</time></trkpt><trkpt lat="44.8431467" lon="7.2442517"><ele>918.6666666666666</ele><time>2026-04-11T14:49:15.005Z</time></trkpt><trkpt lat="44.84325" lon="7.244145"><ele>917.3333333333333</ele><time>2026-04-11T14:49:17.004Z</time></trkpt><trkpt lat="44.8433" lon="7.244085"><ele>916.0</ele><time>2026-04-11T14:49:18.004Z</time></trkpt><trkpt lat="44.8434017" lon="7.2440167"><ele>910.4</ele><time>2026-04-11T14:49:20.004Z</time></trkpt><trkpt lat="44.8435133" lon="7.244035"><ele>904.8</ele><time>2026-04-11T14:49:22.004Z</time></trkpt><trkpt lat="44.8436167" lon="7.2441167"><ele>899.1999999999999</ele><time>2026-04-11T14:49:24.004Z</time></trkpt><trkpt lat="44.8436767" lon="7.244245"><ele>893.5999999999999</ele><time>2026-04-11T14:49:26.004Z</time></trkpt><trkpt lat="44.843705" lon="7.2443333"><ele>888.0</ele><time>2026-04-11T14:49:27.004Z</time></trkpt><trkpt lat="44.843755" lon="7.244485"><ele>888.0</ele><time>2026-04-11T14:49:29.004Z</time></trkpt><trkpt lat="44.8438233" lon="7.2445983"><ele>888.0</ele><time>2026-04-11T14:49:31.005Z</time></trkpt><trkpt lat="44.8438967" lon="7.2446133"><ele>888.0</ele><time>2026-04-11T14:49:33.004Z</time></trkpt><trkpt lat="44.843955" lon="7.2445583"><ele>888.0</ele><time>2026-04-11T14:49:35.004Z</time></trkpt><trkpt lat="44.8439883" lon="7.2444683"><ele>888.0</ele><time>2026-04-11T14:49:37.004Z</time></trkpt><trkpt lat="44.84403" lon="7.24434"><ele>888.0</ele><time>2026-04-11T14:49:39.004Z</time></trkpt><trkpt lat="44.8440583" lon="7.2442467"><ele>888.0</ele><time>2026-04-11T14:49:41.004Z</time></trkpt><trkpt lat="44.8441333" lon="7.2442533"><ele>888.0</ele><time>2026-04-11T14:49:52.004Z</time></trkpt><trkpt lat="44.8441767" lon="7.24436"><ele>888.0</ele><time>2026-04-11T14:49:54.004Z</time></trkpt><trkpt lat="44.8442433" lon="7.2444967"><ele>888.0</ele><time>2026-04-11T14:49:56.004Z</time></trkpt><trkpt lat="44.8442833" lon="7.2446467"><ele>888.0</ele><time>2026-04-11T14:49:58.004Z</time></trkpt><trkpt lat="44.84432" lon="7.24479"><ele>880.0</ele><time>2026-04-11T14:50:00.004Z</time></trkpt><trkpt lat="44.8443533" lon="7.24495"><ele>872.0</ele><time>2026-04-11T14:50:02.004Z</time></trkpt><trkpt lat="44.8444183" lon="7.2451083"><ele>864.0</ele><time>2026-04-11T14:50:04.004Z</time></trkpt><trkpt lat="44.8444483" lon="7.2451933"><ele>856.0</ele><time>2026-04-11T14:50:05.004Z</time></trkpt><trkpt lat="44.8444933" lon="7.24531"><ele>848.0</ele><time>2026-04-11T14:50:07.004Z</time></trkpt><trkpt lat="44.844475" lon="7.2454317"><ele>848.0</ele><time>2026-04-11T14:50:10.004Z</time></trkpt><trkpt lat="44.8444283" lon="7.245525"><ele>848.0</ele><time>2026-04-11T14:50:12.004Z</time></trkpt><trkpt lat="44.8443717" lon="7.245615"><ele>848.0</ele><time>2026-04-11T14:50:14.004Z</time></trkpt><trkpt lat="44.8443267" lon="7.2457"><ele>848.0</ele><time>2026-04-11T14:50:16.004Z</time></trkpt><trkpt lat="44.844265" lon="7.2458233"><ele>848.0</ele><time>2026-04-11T14:50:18.004Z</time></trkpt><trkpt lat="44.8442" lon="7.2459667"><ele>850.1666666666667</ele><time>2026-04-11T14:50:20.004Z</time></trkpt><trkpt lat="44.844135" lon="7.2460617"><ele>852.3333333333334</ele><time>2026-04-11T14:50:22.004Z</time></trkpt><trkpt lat="44.8440633" lon="7.24613"><ele>854.5</ele><time>2026-04-11T14:50:24.004Z</time></trkpt><trkpt lat="44.84399" lon="7.2461583"><ele>856.6666666666667</ele><time>2026-04-11T14:50:26.004Z</time></trkpt><trkpt lat="44.8439083" lon="7.2461933"><ele>858.8333333333334</ele><time>2026-04-11T14:50:28.004Z</time></trkpt><trkpt lat="44.843805" lon="7.2462217"><ele>861.0</ele><time>2026-04-11T14:50:30.004Z</time></trkpt><trkpt lat="44.8437167" lon="7.2462767"><ele>861.0</ele><time>2026-04-11T14:50:32.004Z</time></trkpt><trkpt lat="44.8436083" lon="7.2463517"><ele>861.0</ele><time>2026-04-11T14:50:34.004Z</time></trkpt><trkpt lat="44.8435033" lon="7.2464217"><ele>861.0</ele><time>2026-04-11T14:50:36.004Z</time></trkpt><trkpt lat="44.8434033" lon="7.2464717"><ele>861.0</ele><time>2026-04-11T14:50:38.004Z</time></trkpt><trkpt lat="44.8432967" lon="7.2465133"><ele>854.4</ele><time>2026-04-11T14:50:40.004Z</time></trkpt><trkpt lat="44.8431767" lon="7.2465467"><ele>847.8</ele><time>2026-04-11T14:50:42.004Z</time></trkpt><trkpt lat="44.8431083" lon="7.246575"><ele>841.1999999999999</ele><time>2026-04-11T14:50:43.004Z</time></trkpt><trkpt lat="44.8429983" lon="7.2466017"><ele>834.5999999999999</ele><time>2026-04-11T14:50:45.004Z</time></trkpt><trkpt lat="44.842885" lon="7.2465817"><ele>828.0</ele><time>2026-04-11T14:50:47.004Z</time></trkpt><trkpt lat="44.8427667" lon="7.2465683"><ele>828.0</ele><time>2026-04-11T14:50:49.004Z</time></trkpt><trkpt lat="44.8427033" lon="7.246565"><ele>828.0</ele><time>2026-04-11T14:50:50.004Z</time></trkpt><trkpt lat="44.8425667" lon="7.246575"><ele>828.0</ele><time>2026-04-11T14:50:52.004Z</time></trkpt><trkpt lat="44.8424333" lon="7.2465733"><ele>828.0</ele><time>2026-04-11T14:50:54.004Z</time></trkpt><trkpt lat="44.842365" lon="7.24659"><ele>828.0</ele><time>2026-04-11T14:50:55.004Z</time></trkpt><trkpt lat="44.8423017" lon="7.2466183"><ele>827.1666666666666</ele><time>2026-04-11T14:50:56.004Z</time></trkpt><trkpt lat="44.8421917" lon="7.2466617"><ele>826.3333333333333</ele><time>2026-04-11T14:50:58.004Z</time></trkpt><trkpt lat="44.8421067" lon="7.2467083"><ele>825.5</ele><time>2026-04-11T14:51:00.004Z</time></trkpt><trkpt lat="44.8420417" lon="7.2466783"><ele>824.6666666666666</ele><time>2026-04-11T14:51:03.004Z</time></trkpt><trkpt lat="44.8419733" lon="7.246655"><ele>823.8333333333333</ele><time>2026-04-11T14:51:07.005Z</time></trkpt><trkpt lat="44.8419" lon="7.2467283"><ele>823.0</ele><time>2026-04-11T14:52:56.004Z</time></trkpt><trkpt lat="44.8418267" lon="7.2466733"><ele>820.2</ele><time>2026-04-11T15:09:33.006Z</time></trkpt><trkpt lat="44.8417533" lon="7.2466067"><ele>817.4</ele><time>2026-04-11T15:09:35.006Z</time></trkpt><trkpt lat="44.8416417" lon="7.2465583"><ele>814.6</ele><time>2026-04-11T15:09:37.006Z</time></trkpt><trkpt lat="44.8415183" lon="7.24655"><ele>811.8000000000001</ele><time>2026-04-11T15:09:39.007Z</time></trkpt><trkpt lat="44.8414433" lon="7.2465367"><ele>809.0</ele><time>2026-04-11T15:09:40.006Z</time></trkpt><trkpt lat="44.8413717" lon="7.24651"><ele>809.0000000000001</ele><time>2026-04-11T15:09:41.006Z</time></trkpt><trkpt lat="44.8412983" lon="7.2464733"><ele>809.0</ele><time>2026-04-11T15:09:42.006Z</time></trkpt><trkpt lat="44.841225" lon="7.24644"><ele>809.0</ele><time>2026-04-11T15:09:43.006Z</time></trkpt><trkpt lat="44.84116" lon="7.2464133"><ele>809.0</ele><time>2026-04-11T15:09:44.006Z</time></trkpt><trkpt lat="44.8410583" lon="7.2463067"><ele>809.0000000000001</ele><time>2026-04-11T15:09:46.007Z</time></trkpt><trkpt lat="44.8410117" lon="7.24623"><ele>809.0</ele><time>2026-04-11T15:09:47.006Z</time></trkpt><trkpt lat="44.8409783" lon="7.2461333"><ele>811.3333333333334</ele><time>2026-04-11T15:09:48.006Z</time></trkpt><trkpt lat="44.8409467" lon="7.2460417"><ele>813.6666666666667</ele><time>2026-04-11T15:09:49.006Z</time></trkpt><trkpt lat="44.8409283" lon="7.2459517"><ele>816.0</ele><time>2026-04-11T15:09:50.006Z</time></trkpt><trkpt lat="44.8408933" lon="7.2458083"><ele>818.3333333333333</ele><time>2026-04-11T15:09:52.006Z</time></trkpt><trkpt lat="44.8408283" lon="7.24571"><ele>820.6666666666666</ele><time>2026-04-11T15:09:54.006Z</time></trkpt><trkpt lat="44.84076" lon="7.24571"><ele>823.0</ele><time>2026-04-11T15:09:56.006Z</time></trkpt><trkpt lat="44.8406983" lon="7.2457883"><ele>823.0</ele><time>2026-04-11T15:09:58.006Z</time></trkpt><trkpt lat="44.840635" lon="7.2458617"><ele>823.0</ele><time>2026-04-11T15:10:00.006Z</time></trkpt><trkpt lat="44.8405083" lon="7.2459233"><ele>823.0</ele><time>2026-04-11T15:10:02.006Z</time></trkpt><trkpt lat="44.8404167" lon="7.2459517"><ele>823.0</ele><time>2026-04-11T15:10:03.007Z</time></trkpt><trkpt lat="44.8403117" lon="7.2459933"><ele>823.0</ele><time>2026-04-11T15:10:04.006Z</time></trkpt><trkpt lat="44.840195" lon="7.2460267"><ele>825.0</ele><time>2026-04-11T15:10:05.006Z</time></trkpt><trkpt lat="44.8400633" lon="7.24607"><ele>827.0</ele><time>2026-04-11T15:10:06.006Z</time></trkpt><trkpt lat="44.8399317" lon="7.246105"><ele>829.0</ele><time>2026-04-11T15:10:07.006Z</time></trkpt><trkpt lat="44.8397967" lon="7.2461517"><ele>831.0</ele><time>2026-04-11T15:10:08.006Z</time></trkpt><trkpt lat="44.8396767" lon="7.2462"><ele>831.0</ele><time>2026-04-11T15:10:09.006Z</time></trkpt><trkpt lat="44.8395783" lon="7.2462667"><ele>831.0</ele><time>2026-04-11T15:10:10.006Z</time></trkpt><trkpt lat="44.8394817" lon="7.2463467"><ele>831.0</ele><time>2026-04-11T15:10:11.006Z</time></trkpt><trkpt lat="44.839395" lon="7.246435"><ele>831.0</ele><time>2026-04-11T15:10:12.007Z</time></trkpt><trkpt lat="44.8393067" lon="7.2465233"><ele>831.0</ele><time>2026-04-11T15:10:13.006Z</time></trkpt><trkpt lat="44.839225" lon="7.2466183"><ele>831.4</ele><time>2026-04-11T15:10:14.006Z</time></trkpt><trkpt lat="44.8391367" lon="7.2467033"><ele>831.8</ele><time>2026-04-11T15:10:15.006Z</time></trkpt><trkpt lat="44.8390467" lon="7.246785"><ele>832.1999999999999</ele><time>2026-04-11T15:10:16.006Z</time></trkpt><trkpt lat="44.8389567" lon="7.24685"><ele>832.5999999999999</ele><time>2026-04-11T15:10:17.006Z</time></trkpt><trkpt lat="44.8388817" lon="7.2469317"><ele>833.0</ele><time>2026-04-11T15:10:18.006Z</time></trkpt><trkpt lat="44.838805" lon="7.24701"><ele>833.0000000000001</ele><time>2026-04-11T15:10:19.006Z</time></trkpt><trkpt lat="44.8387383" lon="7.2470983"><ele>833.0</ele><time>2026-04-11T15:10:20.006Z</time></trkpt><trkpt lat="44.83866" lon="7.2471933"><ele>833.0</ele><time>2026-04-11T15:10:21.006Z</time></trkpt><trkpt lat="44.83859" lon="7.24727"><ele>833.0</ele><time>2026-04-11T15:10:22.006Z</time></trkpt><trkpt lat="44.8385217" lon="7.2473333"><ele>833.0000000000001</ele><time>2026-04-11T15:10:23.006Z</time></trkpt><trkpt lat="44.8384583" lon="7.247375"><ele>833.0</ele><time>2026-04-11T15:10:24.006Z</time></trkpt><trkpt lat="44.8383583" lon="7.24738"><ele>832.6666666666667</ele><time>2026-04-11T15:10:26.006Z</time></trkpt><trkpt lat="44.8382917" lon="7.2473533"><ele>832.3333333333334</ele><time>2026-04-11T15:10:27.006Z</time></trkpt><trkpt lat="44.83821" lon="7.2472983"><ele>832.0</ele><time>2026-04-11T15:10:28.006Z</time></trkpt><trkpt lat="44.83813" lon="7.2472417"><ele>831.6666666666667</ele><time>2026-04-11T15:10:29.006Z</time></trkpt><trkpt lat="44.8380467" lon="7.247195"><ele>831.3333333333334</ele><time>2026-04-11T15:10:30.006Z</time></trkpt><trkpt lat="44.83797" lon="7.2471417"><ele>831.0</ele><time>2026-04-11T15:10:31.006Z</time></trkpt><trkpt lat="44.8379" lon="7.247075"><ele>831.1999999999999</ele><time>2026-04-11T15:10:32.006Z</time></trkpt><trkpt lat="44.8378267" lon="7.2469833"><ele>831.4</ele><time>2026-04-11T15:10:33.006Z</time></trkpt><trkpt lat="44.83775" lon="7.2468733"><ele>831.6</ele><time>2026-04-11T15:10:34.006Z</time></trkpt><trkpt lat="44.83768" lon="7.2467467"><ele>831.8</ele><time>2026-04-11T15:10:35.006Z</time></trkpt><trkpt lat="44.8376083" lon="7.2466267"><ele>832.0</ele><time>2026-04-11T15:10:36.006Z</time></trkpt><trkpt lat="44.8375233" lon="7.246505"><ele>836.6</ele><time>2026-04-11T15:10:37.006Z</time></trkpt><trkpt lat="44.837435" lon="7.2463967"><ele>841.2</ele><time>2026-04-11T15:10:38.007Z</time></trkpt><trkpt lat="44.837365" lon="7.2463033"><ele>845.8</ele><time>2026-04-11T15:10:39.006Z</time></trkpt><trkpt lat="44.837275" lon="7.2462233"><ele>850.4</ele><time>2026-04-11T15:10:40.006Z</time></trkpt><trkpt lat="44.8372033" lon="7.2461583"><ele>855.0</ele><time>2026-04-11T15:10:41.006Z</time></trkpt><trkpt lat="44.83713" lon="7.2461167"><ele>855.0</ele><time>2026-04-11T15:10:42.006Z</time></trkpt><trkpt lat="44.8370083" lon="7.2460917"><ele>855.0</ele><time>2026-04-11T15:10:44.006Z</time></trkpt><trkpt lat="44.8369333" lon="7.24613"><ele>855.0</ele><time>2026-04-11T15:10:45.007Z</time></trkpt><trkpt lat="44.8368567" lon="7.246185"><ele>855.0</ele><time>2026-04-11T15:10:46.006Z</time></trkpt><trkpt lat="44.8367817" lon="7.2462467"><ele>855.0</ele><time>2026-04-11T15:10:47.006Z</time></trkpt><trkpt lat="44.83671" lon="7.2463083"><ele>855.4</ele><time>2026-04-11T15:10:48.006Z</time></trkpt><trkpt lat="44.8366333" lon="7.2463967"><ele>855.8</ele><time>2026-04-11T15:10:49.006Z</time></trkpt><trkpt lat="44.8365717" lon="7.246505"><ele>856.2</ele><time>2026-04-11T15:10:50.006Z</time></trkpt><trkpt lat="44.83652" lon="7.2466167"><ele>856.6</ele><time>2026-04-11T15:10:51.006Z</time></trkpt><trkpt lat="44.8364617" lon="7.24673"><ele>857.0</ele><time>2026-04-11T15:10:52.007Z</time></trkpt><trkpt lat="44.8363967" lon="7.2468367"><ele>853.2</ele><time>2026-04-11T15:10:53.007Z</time></trkpt><trkpt lat="44.8363283" lon="7.2469383"><ele>849.4000000000001</ele><time>2026-04-11T15:10:54.007Z</time></trkpt><trkpt lat="44.8362483" lon="7.2470183"><ele>845.5999999999999</ele><time>2026-04-11T15:10:55.006Z</time></trkpt><trkpt lat="44.8361633" lon="7.2471183"><ele>841.8</ele><time>2026-04-11T15:10:56.006Z</time></trkpt><trkpt lat="44.836085" lon="7.247225"><ele>838.0</ele><time>2026-04-11T15:10:57.006Z</time></trkpt><trkpt lat="44.8360067" lon="7.2473333"><ele>838.9999999999999</ele><time>2026-04-11T15:10:58.006Z</time></trkpt><trkpt lat="44.8359433" lon="7.247405"><ele>840.0</ele><time>2026-04-11T15:10:59.006Z</time></trkpt><trkpt lat="44.835885" lon="7.247455"><ele>841.0</ele><time>2026-04-11T15:11:00.006Z</time></trkpt><trkpt lat="44.8358183" lon="7.2474817"><ele>842.0</ele><time>2026-04-11T15:11:01.006Z</time></trkpt><trkpt lat="44.835695" lon="7.24747"><ele>842.9999999999999</ele><time>2026-04-11T15:11:03.006Z</time></trkpt><trkpt lat="44.835625" lon="7.2474267"><ele>844.0</ele><time>2026-04-11T15:11:04.006Z</time></trkpt><trkpt lat="44.8355533" lon="7.2473817"><ele>843.9999999999999</ele><time>2026-04-11T15:11:05.006Z</time></trkpt><trkpt lat="44.8355" lon="7.2473317"><ele>844.0</ele><time>2026-04-11T15:11:06.006Z</time></trkpt><trkpt lat="44.835435" lon="7.2472467"><ele>844.0</ele><time>2026-04-11T15:11:08.006Z</time></trkpt><trkpt lat="44.8353867" lon="7.24731"><ele>844.0</ele><time>2026-04-11T15:11:12.006Z</time></trkpt><trkpt lat="44.83533" lon="7.2474183"><ele>843.9999999999999</ele><time>2026-04-11T15:11:16.006Z</time></trkpt><trkpt lat="44.83527" lon="7.247525"><ele>844.0</ele><time>2026-04-11T15:11:18.006Z</time></trkpt><trkpt lat="44.835215" lon="7.24762"><ele>843.9999999999999</ele><time>2026-04-11T15:11:20.006Z</time></trkpt><trkpt lat="44.8351533" lon="7.2476983"><ele>844.0</ele><time>2026-04-11T15:11:23.006Z</time></trkpt><trkpt lat="44.835065" lon="7.2478033"><ele>844.0</ele><time>2026-04-11T15:11:38.006Z</time></trkpt><trkpt lat="44.8350117" lon="7.247885"><ele>844.0</ele><time>2026-04-11T15:11:39.006Z</time></trkpt><trkpt lat="44.8349583" lon="7.2479717"><ele>843.9999999999999</ele><time>2026-04-11T15:11:40.006Z</time></trkpt><trkpt lat="44.8349017" lon="7.2480367"><ele>844.0</ele><time>2026-04-11T15:11:41.006Z</time></trkpt><trkpt lat="44.8348433" lon="7.2481033"><ele>843.0</ele><time>2026-04-11T15:11:42.006Z</time></trkpt><trkpt lat="44.8347883" lon="7.2481633"><ele>842.0</ele><time>2026-04-11T15:11:43.006Z</time></trkpt><trkpt lat="44.8346783" lon="7.24821"><ele>841.0</ele><time>2026-04-11T15:11:45.006Z</time></trkpt><trkpt lat="44.83462" lon="7.2482583"><ele>840.0</ele><time>2026-04-11T15:11:46.006Z</time></trkpt><trkpt lat="44.83454" lon="7.2483733"><ele>839.0</ele><time>2026-04-11T15:11:48.006Z</time></trkpt><trkpt lat="44.8344867" lon="7.2485167"><ele>839.0</ele><time>2026-04-11T15:11:50.006Z</time></trkpt><trkpt lat="44.834425" lon="7.24865"><ele>839.0</ele><time>2026-04-11T15:11:52.006Z</time></trkpt><trkpt lat="44.8343633" lon="7.2487783"><ele>839.0</ele><time>2026-04-11T15:11:54.006Z</time></trkpt><trkpt lat="44.834325" lon="7.2489083"><ele>839.0</ele><time>2026-04-11T15:11:56.006Z</time></trkpt><trkpt lat="44.8342683" lon="7.2490217"><ele>839.0</ele><time>2026-04-11T15:11:58.006Z</time></trkpt><trkpt lat="44.8341967" lon="7.2490283"><ele>835.8333333333334</ele><time>2026-04-11T15:12:00.006Z</time></trkpt><trkpt lat="44.83413" lon="7.24895"><ele>832.6666666666667</ele><time>2026-04-11T15:12:02.007Z</time></trkpt><trkpt lat="44.83407" lon="7.2487867"><ele>829.5</ele><time>2026-04-11T15:12:04.006Z</time></trkpt><trkpt lat="44.8340383" lon="7.2487017"><ele>826.3333333333333</ele><time>2026-04-11T15:12:05.006Z</time></trkpt><trkpt lat="44.834005" lon="7.2486167"><ele>823.1666666666666</ele><time>2026-04-11T15:12:06.006Z</time></trkpt><trkpt lat="44.83396" lon="7.248545"><ele>820.0</ele><time>2026-04-11T15:12:07.006Z</time></trkpt><trkpt lat="44.8338933" lon="7.24849"><ele>819.9999999999999</ele><time>2026-04-11T15:12:08.006Z</time></trkpt><trkpt lat="44.8338083" lon="7.24845"><ele>820.0</ele><time>2026-04-11T15:12:09.006Z</time></trkpt><trkpt lat="44.8337217" lon="7.2484033"><ele>820.0</ele><time>2026-04-11T15:12:10.006Z</time></trkpt><trkpt lat="44.8336317" lon="7.2483617"><ele>820.0</ele><time>2026-04-11T15:12:11.006Z</time></trkpt><trkpt lat="44.8335467" lon="7.2483233"><ele>819.9999999999999</ele><time>2026-04-11T15:12:12.006Z</time></trkpt><trkpt lat="44.8334717" lon="7.2482933"><ele>820.0</ele><time>2026-04-11T15:12:13.006Z</time></trkpt><trkpt lat="44.8334067" lon="7.2482617"><ele>817.3333333333333</ele><time>2026-04-11T15:12:14.006Z</time></trkpt><trkpt lat="44.8333" lon="7.248225"><ele>814.6666666666666</ele><time>2026-04-11T15:12:16.006Z</time></trkpt><trkpt lat="44.83323" lon="7.2481667"><ele>812.0</ele><time>2026-04-11T15:12:18.006Z</time></trkpt><trkpt lat="44.8331617" lon="7.24815"><ele>809.3333333333333</ele><time>2026-04-11T15:12:22.006Z</time></trkpt><trkpt lat="44.83309" lon="7.24816"><ele>806.6666666666666</ele><time>2026-04-11T15:12:25.006Z</time></trkpt><trkpt lat="44.833005" lon="7.2482267"><ele>804.0</ele><time>2026-04-11T15:12:28.006Z</time></trkpt><trkpt lat="44.8329467" lon="7.2483267"><ele>804.0</ele><time>2026-04-11T15:12:30.006Z</time></trkpt><trkpt lat="44.8328817" lon="7.248405"><ele>804.0</ele><time>2026-04-11T15:12:32.006Z</time></trkpt><trkpt lat="44.8328133" lon="7.2484483"><ele>804.0</ele><time>2026-04-11T15:12:34.007Z</time></trkpt><trkpt lat="44.8327533" lon="7.248375"><ele>804.0</ele><time>2026-04-11T15:12:37.006Z</time></trkpt><trkpt lat="44.83272" lon="7.2482617"><ele>804.0</ele><time>2026-04-11T15:12:39.006Z</time></trkpt><trkpt lat="44.8326833" lon="7.2481333"><ele>804.0</ele><time>2026-04-11T15:12:41.006Z</time></trkpt><trkpt lat="44.83265" lon="7.2480167"><ele>799.6666666666666</ele><time>2026-04-11T15:12:43.006Z</time></trkpt><trkpt lat="44.8326067" lon="7.2479"><ele>795.3333333333333</ele><time>2026-04-11T15:12:45.006Z</time></trkpt><trkpt lat="44.83258" lon="7.2478"><ele>791.0</ele><time>2026-04-11T15:12:47.006Z</time></trkpt><trkpt lat="44.832535" lon="7.2477333"><ele>786.6666666666666</ele><time>2026-04-11T15:12:49.006Z</time></trkpt><trkpt lat="44.8324667" lon="7.2477867"><ele>782.3333333333333</ele><time>2026-04-11T15:12:53.006Z</time></trkpt><trkpt lat="44.8324067" lon="7.2479267"><ele>778.0</ele><time>2026-04-11T15:12:55.006Z</time></trkpt><trkpt lat="44.83237" lon="7.2480267"><ele>779.6666666666666</ele><time>2026-04-11T15:12:56.006Z</time></trkpt><trkpt lat="44.83233" lon="7.2481283"><ele>781.3333333333333</ele><time>2026-04-11T15:12:57.006Z</time></trkpt><trkpt lat="44.8323033" lon="7.24823"><ele>783.0</ele><time>2026-04-11T15:12:58.006Z</time></trkpt><trkpt lat="44.8322817" lon="7.2483383"><ele>784.6666666666667</ele><time>2026-04-11T15:12:59.007Z</time></trkpt><trkpt lat="44.8322617" lon="7.2484533"><ele>786.3333333333334</ele><time>2026-04-11T15:13:00.006Z</time></trkpt><trkpt lat="44.8322317" lon="7.2485633"><ele>788.0</ele><time>2026-04-11T15:13:01.006Z</time></trkpt><trkpt lat="44.8322" lon="7.248675"><ele>788.0</ele><time>2026-04-11T15:13:02.006Z</time></trkpt><trkpt lat="44.8321633" lon="7.2487833"><ele>788.0</ele><time>2026-04-11T15:13:03.006Z</time></trkpt><trkpt lat="44.832135" lon="7.2488817"><ele>788.0</ele><time>2026-04-11T15:13:04.006Z</time></trkpt><trkpt lat="44.8320967" lon="7.2490267"><ele>788.0</ele><time>2026-04-11T15:13:06.006Z</time></trkpt><trkpt lat="44.83204" lon="7.2491633"><ele>788.0</ele><time>2026-04-11T15:13:08.006Z</time></trkpt><trkpt lat="44.8319733" lon="7.249285"><ele>788.2857142857143</ele><time>2026-04-11T15:13:10.006Z</time></trkpt><trkpt lat="44.83193" lon="7.249355"><ele>788.5714285714287</ele><time>2026-04-11T15:13:11.006Z</time></trkpt><trkpt lat="44.8318767" lon="7.2494167"><ele>788.8571428571429</ele><time>2026-04-11T15:13:12.006Z</time></trkpt><trkpt lat="44.8318317" lon="7.2494917"><ele>789.1428571428571</ele><time>2026-04-11T15:13:13.006Z</time></trkpt><trkpt lat="44.8318067" lon="7.2495783"><ele>789.4285714285714</ele><time>2026-04-11T15:13:14.006Z</time></trkpt><trkpt lat="44.831785" lon="7.2496783"><ele>789.7142857142857</ele><time>2026-04-11T15:13:15.006Z</time></trkpt><trkpt lat="44.8317867" lon="7.2497783"><ele>790.0</ele><time>2026-04-11T15:13:16.006Z</time></trkpt><trkpt lat="44.831805" lon="7.2498633"><ele>787.4999999999999</ele><time>2026-04-11T15:13:17.006Z</time></trkpt><trkpt lat="44.8318467" lon="7.2500083"><ele>785.0</ele><time>2026-04-11T15:13:19.006Z</time></trkpt><trkpt lat="44.8318383" lon="7.250135"><ele>782.5</ele><time>2026-04-11T15:13:21.006Z</time></trkpt><trkpt lat="44.8317783" lon="7.2502283"><ele>780.0</ele><time>2026-04-11T15:13:23.006Z</time></trkpt><trkpt lat="44.83172" lon="7.2502683"><ele>777.4999999999999</ele><time>2026-04-11T15:13:24.006Z</time></trkpt><trkpt lat="44.83166" lon="7.2503133"><ele>775.0</ele><time>2026-04-11T15:13:25.006Z</time></trkpt><trkpt lat="44.8315983" lon="7.25035"><ele>773.2857142857142</ele><time>2026-04-11T15:13:26.006Z</time></trkpt><trkpt lat="44.8315317" lon="7.2503967"><ele>771.5714285714286</ele><time>2026-04-11T15:13:27.006Z</time></trkpt><trkpt lat="44.8314767" lon="7.250445"><ele>769.8571428571429</ele><time>2026-04-11T15:13:28.006Z</time></trkpt><trkpt lat="44.8314117" lon="7.2504733"><ele>768.1428571428571</ele><time>2026-04-11T15:13:29.006Z</time></trkpt><trkpt lat="44.8313433" lon="7.2504783"><ele>766.4285714285714</ele><time>2026-04-11T15:13:30.007Z</time></trkpt><trkpt lat="44.8312817" lon="7.2504583"><ele>764.7142857142857</ele><time>2026-04-11T15:13:31.006Z</time></trkpt><trkpt lat="44.831205" lon="7.2504317"><ele>763.0</ele><time>2026-04-11T15:13:32.006Z</time></trkpt><trkpt lat="44.8310583" lon="7.2504117"><ele>763.0</ele><time>2026-04-11T15:13:34.006Z</time></trkpt><trkpt lat="44.8309783" lon="7.2504333"><ele>763.0</ele><time>2026-04-11T15:13:35.006Z</time></trkpt><trkpt lat="44.83091" lon="7.2504583"><ele>763.0</ele><time>2026-04-11T15:13:36.006Z</time></trkpt><trkpt lat="44.8308483" lon="7.2505033"><ele>763.0</ele><time>2026-04-11T15:13:37.006Z</time></trkpt><trkpt lat="44.83079" lon="7.2505683"><ele>763.0</ele><time>2026-04-11T15:13:38.007Z</time></trkpt><trkpt lat="44.8306583" lon="7.2506667"><ele>763.0</ele><time>2026-04-11T15:13:40.007Z</time></trkpt><trkpt lat="44.830575" lon="7.2507467"><ele>757.0</ele><time>2026-04-11T15:13:41.008Z</time></trkpt><trkpt lat="44.8304883" lon="7.2507983"><ele>751.0</ele><time>2026-04-11T15:13:42.007Z</time></trkpt><trkpt lat="44.830405" lon="7.2508483"><ele>745.0</ele><time>2026-04-11T15:13:43.007Z</time></trkpt><trkpt lat="44.830315" lon="7.25092"><ele>739.0</ele><time>2026-04-11T15:13:44.007Z</time></trkpt><trkpt lat="44.8302267" lon="7.2509967"><ele>733.0</ele><time>2026-04-11T15:13:45.007Z</time></trkpt><trkpt lat="44.8301517" lon="7.251065"><ele>731.0</ele><time>2026-04-11T15:13:46.007Z</time></trkpt><trkpt lat="44.83009" lon="7.2511483"><ele>729.0</ele><time>2026-04-11T15:13:47.007Z</time></trkpt><trkpt lat="44.830035" lon="7.251235"><ele>727.0</ele><time>2026-04-11T15:13:48.007Z</time></trkpt><trkpt lat="44.8299783" lon="7.2513133"><ele>725.0</ele><time>2026-04-11T15:13:49.007Z</time></trkpt><trkpt lat="44.8299217" lon="7.2513667"><ele>723.0</ele><time>2026-04-11T15:13:50.007Z</time></trkpt><trkpt lat="44.8298117" lon="7.2514433"><ele>721.0</ele><time>2026-04-11T15:13:52.007Z</time></trkpt><trkpt lat="44.829715" lon="7.2515317"><ele>718.8333333333334</ele><time>2026-04-11T15:13:54.007Z</time></trkpt><trkpt lat="44.8296583" lon="7.2516383"><ele>716.6666666666667</ele><time>2026-04-11T15:13:56.007Z</time></trkpt><trkpt lat="44.82961" lon="7.251745"><ele>714.5</ele><time>2026-04-11T15:13:58.007Z</time></trkpt><trkpt lat="44.829555" lon="7.2518333"><ele>712.3333333333334</ele><time>2026-04-11T15:14:00.007Z</time></trkpt><trkpt lat="44.8294967" lon="7.2519"><ele>710.1666666666666</ele><time>2026-04-11T15:14:02.008Z</time></trkpt><trkpt lat="44.8294583" lon="7.2519717"><ele>708.0</ele><time>2026-04-11T15:14:04.007Z</time></trkpt><trkpt lat="44.8294017" lon="7.2520917"><ele>708.0</ele><time>2026-04-11T15:14:17.007Z</time></trkpt><trkpt lat="44.82937" lon="7.252175"><ele>708.0</ele><time>2026-04-11T15:14:18.007Z</time></trkpt><trkpt lat="44.8293233" lon="7.2522583"><ele>708.0</ele><time>2026-04-11T15:14:19.007Z</time></trkpt><trkpt lat="44.8292783" lon="7.2523333"><ele>708.0</ele><time>2026-04-11T15:14:20.007Z</time></trkpt><trkpt lat="44.8292217" lon="7.25238"><ele>708.0</ele><time>2026-04-11T15:14:21.007Z</time></trkpt><trkpt lat="44.8291583" lon="7.2523833"><ele>708.0</ele><time>2026-04-11T15:14:22.007Z</time></trkpt><trkpt lat="44.8290917" lon="7.25234"><ele>708.0</ele><time>2026-04-11T15:14:23.007Z</time></trkpt><trkpt lat="44.82904" lon="7.2522767"><ele>707.6666666666666</ele><time>2026-04-11T15:14:24.007Z</time></trkpt><trkpt lat="44.8290017" lon="7.252185"><ele>707.3333333333334</ele><time>2026-04-11T15:14:25.007Z</time></trkpt><trkpt lat="44.8289767" lon="7.252085"><ele>707.0</ele><time>2026-04-11T15:14:26.007Z</time></trkpt><trkpt lat="44.8289583" lon="7.25199"><ele>706.6666666666667</ele><time>2026-04-11T15:14:27.007Z</time></trkpt><trkpt lat="44.8289433" lon="7.2518833"><ele>706.3333333333334</ele><time>2026-04-11T15:14:28.007Z</time></trkpt><trkpt lat="44.8289267" lon="7.2517733"><ele>706.0</ele><time>2026-04-11T15:14:29.007Z</time></trkpt><trkpt lat="44.8289067" lon="7.2516683"><ele>706.0</ele><time>2026-04-11T15:14:30.007Z</time></trkpt><trkpt lat="44.828875" lon="7.251575"><ele>706.0</ele><time>2026-04-11T15:14:31.007Z</time></trkpt><trkpt lat="44.82884" lon="7.251475"><ele>706.0</ele><time>2026-04-11T15:14:32.007Z</time></trkpt><trkpt lat="44.82881" lon="7.2513883"><ele>706.0</ele><time>2026-04-11T15:14:33.007Z</time></trkpt><trkpt lat="44.8287717" lon="7.2512933"><ele>706.0</ele><time>2026-04-11T15:14:34.007Z</time></trkpt><trkpt lat="44.8287633" lon="7.2512"><ele>706.0</ele><time>2026-04-11T15:14:35.007Z</time></trkpt><trkpt lat="44.82877" lon="7.2510867"><ele>706.0</ele><time>2026-04-11T15:14:36.007Z</time></trkpt><trkpt lat="44.828785" lon="7.2509833"><ele>705.5714285714286</ele><time>2026-04-11T15:14:37.007Z</time></trkpt><trkpt lat="44.82881" lon="7.2508833"><ele>705.1428571428572</ele><time>2026-04-11T15:14:38.007Z</time></trkpt><trkpt lat="44.8288417" lon="7.2507767"><ele>704.7142857142858</ele><time>2026-04-11T15:14:39.007Z</time></trkpt><trkpt lat="44.82887" lon="7.2506767"><ele>704.2857142857142</ele><time>2026-04-11T15:14:40.007Z</time></trkpt><trkpt lat="44.82891" lon="7.2505983"><ele>703.8571428571429</ele><time>2026-04-11T15:14:41.007Z</time></trkpt><trkpt lat="44.8289667" lon="7.25054"><ele>703.4285714285714</ele><time>2026-04-11T15:14:42.007Z</time></trkpt><trkpt lat="44.82903" lon="7.250485"><ele>703.0</ele><time>2026-04-11T15:14:43.007Z</time></trkpt><trkpt lat="44.8291017" lon="7.2504483"><ele>700.4</ele><time>2026-04-11T15:14:44.007Z</time></trkpt><trkpt lat="44.8291633" lon="7.2504083"><ele>697.8</ele><time>2026-04-11T15:14:45.007Z</time></trkpt><trkpt lat="44.8292383" lon="7.2503133"><ele>695.2</ele><time>2026-04-11T15:14:47.007Z</time></trkpt><trkpt lat="44.8292517" lon="7.2501667"><ele>692.6</ele><time>2026-04-11T15:14:49.007Z</time></trkpt><trkpt lat="44.8292067" lon="7.2500167"><ele>690.0</ele><time>2026-04-11T15:14:51.007Z</time></trkpt><trkpt lat="44.829165" lon="7.2499267"><ele>690.0</ele><time>2026-04-11T15:14:52.007Z</time></trkpt><trkpt lat="44.8291117" lon="7.249855"><ele>690.0</ele><time>2026-04-11T15:14:53.007Z</time></trkpt><trkpt lat="44.8290467" lon="7.249805"><ele>690.0</ele><time>2026-04-11T15:14:54.007Z</time></trkpt><trkpt lat="44.8289817" lon="7.2497633"><ele>690.0</ele><time>2026-04-11T15:14:55.007Z</time></trkpt><trkpt lat="44.82891" lon="7.2497367"><ele>690.0</ele><time>2026-04-11T15:14:56.007Z</time></trkpt><trkpt lat="44.828845" lon="7.2497067"><ele>690.0</ele><time>2026-04-11T15:14:57.007Z</time></trkpt><trkpt lat="44.8287817" lon="7.24965"><ele>690.0</ele><time>2026-04-11T15:14:58.007Z</time></trkpt><trkpt lat="44.8287483" lon="7.24957"><ele>688.0</ele><time>2026-04-11T15:14:59.007Z</time></trkpt><trkpt lat="44.8287317" lon="7.2494717"><ele>686.0</ele><time>2026-04-11T15:15:00.007Z</time></trkpt><trkpt lat="44.828745" lon="7.2492917"><ele>684.0</ele><time>2026-04-11T15:15:02.007Z</time></trkpt><trkpt lat="44.82878" lon="7.2491983"><ele>682.0</ele><time>2026-04-11T15:15:03.007Z</time></trkpt><trkpt lat="44.8288267" lon="7.2491333"><ele>680.0</ele><time>2026-04-11T15:15:04.007Z</time></trkpt><trkpt lat="44.8288917" lon="7.2490767"><ele>678.0</ele><time>2026-04-11T15:15:05.007Z</time></trkpt><trkpt lat="44.82896" lon="7.249025"><ele>678.0</ele><time>2026-04-11T15:15:06.007Z</time></trkpt><trkpt lat="44.8290217" lon="7.2489667"><ele>678.0</ele><time>2026-04-11T15:15:07.007Z</time></trkpt><trkpt lat="44.8290767" lon="7.248895"><ele>678.0</ele><time>2026-04-11T15:15:08.007Z</time></trkpt><trkpt lat="44.82912" lon="7.2488117"><ele>678.0</ele><time>2026-04-11T15:15:09.007Z</time></trkpt><trkpt lat="44.8291517" lon="7.248715"><ele>678.0</ele><time>2026-04-11T15:15:10.007Z</time></trkpt><trkpt lat="44.8291883" lon="7.2486383"><ele>678.0</ele><time>2026-04-11T15:15:11.007Z</time></trkpt><trkpt lat="44.8292417" lon="7.24859"><ele>678.0</ele><time>2026-04-11T15:15:12.007Z</time></trkpt><trkpt lat="44.8293433" lon="7.2485467"><ele>675.8</ele><time>2026-04-11T15:15:14.007Z</time></trkpt><trkpt lat="44.82942" lon="7.2484533"><ele>673.5999999999999</ele><time>2026-04-11T15:15:16.007Z</time></trkpt><trkpt lat="44.829375" lon="7.2483"><ele>671.4000000000001</ele><time>2026-04-11T15:15:18.007Z</time></trkpt><trkpt lat="44.8293233" lon="7.2482017"><ele>669.2</ele><time>2026-04-11T15:15:19.007Z</time></trkpt><trkpt lat="44.8292617" lon="7.2481083"><ele>667.0</ele><time>2026-04-11T15:15:20.007Z</time></trkpt><trkpt lat="44.8291967" lon="7.2480083"><ele>667.0</ele><time>2026-04-11T15:15:21.007Z</time></trkpt><trkpt lat="44.8291533" lon="7.2479267"><ele>667.0</ele><time>2026-04-11T15:15:22.007Z</time></trkpt><trkpt lat="44.8291" lon="7.2478433"><ele>667.0</ele><time>2026-04-11T15:15:23.007Z</time></trkpt><trkpt lat="44.8290717" lon="7.24773"><ele>667.0</ele><time>2026-04-11T15:15:24.007Z</time></trkpt><trkpt lat="44.829055" lon="7.2475883"><ele>667.0</ele><time>2026-04-11T15:15:25.007Z</time></trkpt><trkpt lat="44.829055" lon="7.2474217"><ele>665.75</ele><time>2026-04-11T15:15:26.007Z</time></trkpt><trkpt lat="44.8290567" lon="7.2472533"><ele>664.5</ele><time>2026-04-11T15:15:27.007Z</time></trkpt><trkpt lat="44.82906" lon="7.2470833"><ele>663.25</ele><time>2026-04-11T15:15:28.007Z</time></trkpt><trkpt lat="44.829075" lon="7.24691"><ele>662.0</ele><time>2026-04-11T15:15:29.007Z</time></trkpt><trkpt lat="44.8290833" lon="7.2467317"><ele>662.0</ele><time>2026-04-11T15:15:30.007Z</time></trkpt><trkpt lat="44.829095" lon="7.246555"><ele>662.0</ele><time>2026-04-11T15:15:31.007Z</time></trkpt><trkpt lat="44.8291017" lon="7.2463867"><ele>662.0</ele><time>2026-04-11T15:15:32.007Z</time></trkpt><trkpt lat="44.8291" lon="7.2462267"><ele>662.0</ele><time>2026-04-11T15:15:33.008Z</time></trkpt><trkpt lat="44.8290933" lon="7.2460733"><ele>661.2</ele><time>2026-04-11T15:15:34.007Z</time></trkpt><trkpt lat="44.8290783" lon="7.24593"><ele>660.4000000000001</ele><time>2026-04-11T15:15:35.007Z</time></trkpt><trkpt lat="44.8290583" lon="7.245805"><ele>659.5999999999999</ele><time>2026-04-11T15:15:36.007Z</time></trkpt><trkpt lat="44.8290417" lon="7.2457033"><ele>658.8</ele><time>2026-04-11T15:15:37.007Z</time></trkpt><trkpt lat="44.8290267" lon="7.2455233"><ele>658.0</ele><time>2026-04-11T15:15:39.007Z</time></trkpt><trkpt lat="44.8290433" lon="7.24543"><ele>656.6666666666667</ele><time>2026-04-11T15:15:40.007Z</time></trkpt><trkpt lat="44.829065" lon="7.245325"><ele>655.3333333333334</ele><time>2026-04-11T15:15:41.007Z</time></trkpt><trkpt lat="44.829105" lon="7.2452283"><ele>654.0</ele><time>2026-04-11T15:15:42.007Z</time></trkpt><trkpt lat="44.8291483" lon="7.24514"><ele>652.6666666666666</ele><time>2026-04-11T15:15:43.007Z</time></trkpt><trkpt lat="44.829195" lon="7.2450567"><ele>651.3333333333333</ele><time>2026-04-11T15:15:44.007Z</time></trkpt><trkpt lat="44.829265" lon="7.2449717"><ele>650.0</ele><time>2026-04-11T15:15:45.007Z</time></trkpt><trkpt lat="44.8293383" lon="7.2448983"><ele>650.0</ele><time>2026-04-11T15:15:46.007Z</time></trkpt><trkpt lat="44.8294083" lon="7.2448183"><ele>650.0</ele><time>2026-04-11T15:15:47.008Z</time></trkpt><trkpt lat="44.8294833" lon="7.24475"><ele>650.0</ele><time>2026-04-11T15:15:48.008Z</time></trkpt><trkpt lat="44.8295833" lon="7.2446917"><ele>650.0</ele><time>2026-04-11T15:15:49.008Z</time></trkpt><trkpt lat="44.82969" lon="7.2446483"><ele>650.0</ele><time>2026-04-11T15:15:50.007Z</time></trkpt><trkpt lat="44.829805" lon="7.244605"><ele>648.3333333333333</ele><time>2026-04-11T15:15:51.007Z</time></trkpt><trkpt lat="44.82991" lon="7.24459"><ele>646.6666666666666</ele><time>2026-04-11T15:15:52.007Z</time></trkpt><trkpt lat="44.83" lon="7.2445833"><ele>645.0</ele><time>2026-04-11T15:15:53.007Z</time></trkpt><trkpt lat="44.8300883" lon="7.2445933"><ele>643.3333333333334</ele><time>2026-04-11T15:15:54.007Z</time></trkpt><trkpt lat="44.83017" lon="7.2445967"><ele>641.6666666666667</ele><time>2026-04-11T15:15:55.007Z</time></trkpt><trkpt lat="44.8302383" lon="7.24458"><ele>640.0</ele><time>2026-04-11T15:15:56.007Z</time></trkpt><trkpt lat="44.8302983" lon="7.2444917"><ele>640.0</ele><time>2026-04-11T15:15:58.007Z</time></trkpt><trkpt lat="44.8302717" lon="7.2444017"><ele>640.0</ele><time>2026-04-11T15:15:59.007Z</time></trkpt><trkpt lat="44.8302333" lon="7.2443"><ele>640.0</ele><time>2026-04-11T15:16:00.007Z</time></trkpt><trkpt lat="44.8301683" lon="7.2441683"><ele>640.0</ele><time>2026-04-11T15:16:01.007Z</time></trkpt><trkpt lat="44.8300867" lon="7.2440333"><ele>640.0</ele><time>2026-04-11T15:16:02.007Z</time></trkpt><trkpt lat="44.8300233" lon="7.2439083"><ele>639.1666666666667</ele><time>2026-04-11T15:16:03.007Z</time></trkpt><trkpt lat="44.829975" lon="7.2437933"><ele>638.3333333333334</ele><time>2026-04-11T15:16:04.007Z</time></trkpt><trkpt lat="44.8299317" lon="7.2436567"><ele>637.5</ele><time>2026-04-11T15:16:05.007Z</time></trkpt><trkpt lat="44.8299083" lon="7.2435317"><ele>636.6666666666666</ele><time>2026-04-11T15:16:06.007Z</time></trkpt><trkpt lat="44.82989" lon="7.2434283"><ele>635.8333333333333</ele><time>2026-04-11T15:16:07.007Z</time></trkpt><trkpt lat="44.8298883" lon="7.2433333"><ele>635.0</ele><time>2026-04-11T15:16:08.007Z</time></trkpt><trkpt lat="44.8299033" lon="7.2432417"><ele>635.0</ele><time>2026-04-11T15:16:09.007Z</time></trkpt><trkpt lat="44.8299383" lon="7.2431483"><ele>635.0</ele><time>2026-04-11T15:16:10.007Z</time></trkpt><trkpt lat="44.8299767" lon="7.243065"><ele>635.0</ele><time>2026-04-11T15:16:11.007Z</time></trkpt><trkpt lat="44.8300417" lon="7.2430017"><ele>635.0</ele><time>2026-04-11T15:16:12.007Z</time></trkpt><trkpt lat="44.8301217" lon="7.2429483"><ele>635.0</ele><time>2026-04-11T15:16:13.007Z</time></trkpt><trkpt lat="44.8302183" lon="7.2428883"><ele>635.0</ele><time>2026-04-11T15:16:14.007Z</time></trkpt><trkpt lat="44.830305" lon="7.2428083"><ele>639.0</ele><time>2026-04-11T15:16:15.007Z</time></trkpt><trkpt lat="44.8303717" lon="7.24272"><ele>643.0</ele><time>2026-04-11T15:16:16.007Z</time></trkpt><trkpt lat="44.8304217" lon="7.2426383"><ele>647.0</ele><time>2026-04-11T15:16:17.007Z</time></trkpt><trkpt lat="44.830455" lon="7.2425483"><ele>651.0</ele><time>2026-04-11T15:16:18.007Z</time></trkpt><trkpt lat="44.830465" lon="7.2424083"><ele>655.0</ele><time>2026-04-11T15:16:20.007Z</time></trkpt><trkpt lat="44.8303883" lon="7.2422767"><ele>655.0</ele><time>2026-04-11T15:16:22.007Z</time></trkpt><trkpt lat="44.8303167" lon="7.24223"><ele>655.0</ele><time>2026-04-11T15:16:23.007Z</time></trkpt><trkpt lat="44.83021" lon="7.2422067"><ele>655.0</ele><time>2026-04-11T15:16:24.007Z</time></trkpt><trkpt lat="44.8300833" lon="7.2422017"><ele>655.0</ele><time>2026-04-11T15:16:25.007Z</time></trkpt><trkpt lat="44.82997" lon="7.242195"><ele>655.0</ele><time>2026-04-11T15:16:26.008Z</time></trkpt><trkpt lat="44.82986" lon="7.2421567"><ele>650.2</ele><time>2026-04-11T15:16:27.007Z</time></trkpt><trkpt lat="44.829755" lon="7.24212"><ele>645.4</ele><time>2026-04-11T15:16:28.008Z</time></trkpt><trkpt lat="44.8296633" lon="7.24208"><ele>640.6</ele><time>2026-04-11T15:16:29.007Z</time></trkpt><trkpt lat="44.8295933" lon="7.2420283"><ele>635.8</ele><time>2026-04-11T15:16:30.007Z</time></trkpt><trkpt lat="44.8295383" lon="7.2419117"><ele>631.0</ele><time>2026-04-11T15:16:32.007Z</time></trkpt><trkpt lat="44.8295483" lon="7.241815"><ele>631.0</ele><time>2026-04-11T15:16:33.007Z</time></trkpt><trkpt lat="44.8295717" lon="7.2416833"><ele>631.0</ele><time>2026-04-11T15:16:34.007Z</time></trkpt><trkpt lat="44.8295933" lon="7.2415617"><ele>631.0</ele><time>2026-04-11T15:16:35.007Z</time></trkpt><trkpt lat="44.8296117" lon="7.2414383"><ele>631.0</ele><time>2026-04-11T15:16:36.007Z</time></trkpt><trkpt lat="44.8296433" lon="7.2413233"><ele>631.0</ele><time>2026-04-11T15:16:37.007Z</time></trkpt><trkpt lat="44.82968" lon="7.2412233"><ele>631.0</ele><time>2026-04-11T15:16:38.007Z</time></trkpt><trkpt lat="44.8297283" lon="7.2411333"><ele>630.3333333333334</ele><time>2026-04-11T15:16:39.007Z</time></trkpt><trkpt lat="44.8297617" lon="7.241045"><ele>629.6666666666667</ele><time>2026-04-11T15:16:40.007Z</time></trkpt><trkpt lat="44.8297917" lon="7.24095"><ele>629.0</ele><time>2026-04-11T15:16:41.007Z</time></trkpt><trkpt lat="44.8297733" lon="7.2408317"><ele>628.3333333333334</ele><time>2026-04-11T15:16:43.007Z</time></trkpt><trkpt lat="44.8297117" lon="7.2407967"><ele>627.6666666666666</ele><time>2026-04-11T15:16:44.007Z</time></trkpt><trkpt lat="44.829615" lon="7.2407683"><ele>627.0</ele><time>2026-04-11T15:16:45.007Z</time></trkpt><trkpt lat="44.8294967" lon="7.24075"><ele>627.0</ele><time>2026-04-11T15:16:46.007Z</time></trkpt><trkpt lat="44.82937" lon="7.2407283"><ele>627.0</ele><time>2026-04-11T15:16:47.008Z</time></trkpt><trkpt lat="44.8292567" lon="7.240705"><ele>627.0</ele><time>2026-04-11T15:16:48.007Z</time></trkpt><trkpt lat="44.829145" lon="7.2406933"><ele>627.0</ele><time>2026-04-11T15:16:49.007Z</time></trkpt><trkpt lat="44.8290267" lon="7.240675"><ele>623.0</ele><time>2026-04-11T15:16:50.007Z</time></trkpt><trkpt lat="44.8289117" lon="7.24067"><ele>619.0</ele><time>2026-04-11T15:16:51.007Z</time></trkpt><trkpt lat="44.8287883" lon="7.2406733"><ele>615.0</ele><time>2026-04-11T15:16:52.008Z</time></trkpt><trkpt lat="44.828685" lon="7.2406883"><ele>611.0</ele><time>2026-04-11T15:16:53.007Z</time></trkpt><trkpt lat="44.8286067" lon="7.24069"><ele>607.0</ele><time>2026-04-11T15:16:54.007Z</time></trkpt><trkpt lat="44.8284933" lon="7.2406833"><ele>605.0</ele><time>2026-04-11T15:16:56.007Z</time></trkpt><trkpt lat="44.8283617" lon="7.24067"><ele>603.0</ele><time>2026-04-11T15:16:58.008Z</time></trkpt><trkpt lat="44.8282967" lon="7.240685"><ele>601.0</ele><time>2026-04-11T15:16:59.007Z</time></trkpt><trkpt lat="44.8282133" lon="7.2407167"><ele>599.0</ele><time>2026-04-11T15:17:00.007Z</time></trkpt><trkpt lat="44.8281367" lon="7.2407683"><ele>597.0</ele><time>2026-04-11T15:17:01.007Z</time></trkpt><trkpt lat="44.8280583" lon="7.24086"><ele>597.0</ele><time>2026-04-11T15:17:02.007Z</time></trkpt><trkpt lat="44.8279667" lon="7.2409617"><ele>597.0</ele><time>2026-04-11T15:17:03.008Z</time></trkpt><trkpt lat="44.8278817" lon="7.24106"><ele>597.0</ele><time>2026-04-11T15:17:04.007Z</time></trkpt><trkpt lat="44.8277883" lon="7.2411617"><ele>597.0</ele><time>2026-04-11T15:17:05.007Z</time></trkpt><trkpt lat="44.8277067" lon="7.2412633"><ele>594.8000000000001</ele><time>2026-04-11T15:17:06.007Z</time></trkpt><trkpt lat="44.8276217" lon="7.24136"><ele>592.6</ele><time>2026-04-11T15:17:07.007Z</time></trkpt><trkpt lat="44.8275333" lon="7.2414467"><ele>590.4000000000001</ele><time>2026-04-11T15:17:08.007Z</time></trkpt><trkpt lat="44.8274517" lon="7.24153"><ele>588.2</ele><time>2026-04-11T15:17:09.007Z</time></trkpt><trkpt lat="44.8273783" lon="7.2416017"><ele>586.0</ele><time>2026-04-11T15:17:10.008Z</time></trkpt><trkpt lat="44.8272933" lon="7.2416467"><ele>584.6666666666667</ele><time>2026-04-11T15:17:11.007Z</time></trkpt><trkpt lat="44.827215" lon="7.2416767"><ele>583.3333333333334</ele><time>2026-04-11T15:17:12.007Z</time></trkpt><trkpt lat="44.8271333" lon="7.2417017"><ele>582.0</ele><time>2026-04-11T15:17:13.007Z</time></trkpt><trkpt lat="44.827065" lon="7.2417"><ele>580.6666666666666</ele><time>2026-04-11T15:17:14.007Z</time></trkpt><trkpt lat="44.8269617" lon="7.2416733"><ele>579.3333333333333</ele><time>2026-04-11T15:17:16.007Z</time></trkpt><trkpt lat="44.8268917" lon="7.2416667"><ele>578.0</ele><time>2026-04-11T15:17:18.007Z</time></trkpt><trkpt lat="44.826815" lon="7.2416583"><ele>577.6666666666666</ele><time>2026-04-11T15:17:21.007Z</time></trkpt><trkpt lat="44.8267433" lon="7.2416433"><ele>577.3333333333333</ele><time>2026-04-11T15:17:25.007Z</time></trkpt><trkpt lat="44.82666" lon="7.2416167"><ele>577.0</ele><time>2026-04-11T15:18:09.007Z</time></trkpt><trkpt lat="44.8265617" lon="7.24157"><ele>576.6666666666666</ele><time>2026-04-11T15:18:11.007Z</time></trkpt><trkpt lat="44.8265017" lon="7.24153"><ele>576.3333333333334</ele><time>2026-04-11T15:18:12.007Z</time></trkpt><trkpt lat="44.826435" lon="7.2414733"><ele>576.0</ele><time>2026-04-11T15:18:13.007Z</time></trkpt><trkpt lat="44.8263667" lon="7.241395"><ele>576.0</ele><time>2026-04-11T15:18:14.007Z</time></trkpt><trkpt lat="44.8263083" lon="7.2413033"><ele>576.0</ele><time>2026-04-11T15:18:15.007Z</time></trkpt><trkpt lat="44.8262667" lon="7.241195"><ele>576.0</ele><time>2026-04-11T15:18:16.007Z</time></trkpt><trkpt lat="44.82624" lon="7.2410783"><ele>576.0</ele><time>2026-04-11T15:18:17.007Z</time></trkpt><trkpt lat="44.8262383" lon="7.2409567"><ele>576.0</ele><time>2026-04-11T15:18:18.007Z</time></trkpt><trkpt lat="44.8262633" lon="7.24081"><ele>576.0</ele><time>2026-04-11T15:18:19.007Z</time></trkpt><trkpt lat="44.826285" lon="7.2406533"><ele>576.0</ele><time>2026-04-11T15:18:20.007Z</time></trkpt><trkpt lat="44.8263117" lon="7.24051"><ele>576.0</ele><time>2026-04-11T15:18:21.007Z</time></trkpt><trkpt lat="44.8263367" lon="7.240365"><ele>576.0</ele><time>2026-04-11T15:18:22.007Z</time></trkpt><trkpt lat="44.8263617" lon="7.2402217"><ele>576.0</ele><time>2026-04-11T15:18:23.007Z</time></trkpt><trkpt lat="44.8263767" lon="7.240095"><ele>575.8</ele><time>2026-04-11T15:18:24.007Z</time></trkpt><trkpt lat="44.8263983" lon="7.2399933"><ele>575.6</ele><time>2026-04-11T15:18:25.007Z</time></trkpt><trkpt lat="44.8264383" lon="7.2398333"><ele>575.4</ele><time>2026-04-11T15:18:27.007Z</time></trkpt><trkpt lat="44.82644" lon="7.2396867"><ele>575.2</ele><time>2026-04-11T15:18:29.007Z</time></trkpt><trkpt lat="44.8263867" lon="7.2396183"><ele>575.0</ele><time>2026-04-11T15:18:31.007Z</time></trkpt><trkpt lat="44.8262533" lon="7.2395683"><ele>575.0</ele><time>2026-04-11T15:18:33.007Z</time></trkpt><trkpt lat="44.8261667" lon="7.2395317"><ele>575.0</ele><time>2026-04-11T15:18:34.007Z</time></trkpt><trkpt lat="44.826065" lon="7.23949"><ele>575.0</ele><time>2026-04-11T15:18:35.007Z</time></trkpt><trkpt lat="44.825955" lon="7.2394383"><ele>575.0</ele><time>2026-04-11T15:18:36.007Z</time></trkpt><trkpt lat="44.8258433" lon="7.2393867"><ele>575.0</ele><time>2026-04-11T15:18:37.008Z</time></trkpt><trkpt lat="44.8257317" lon="7.2393383"><ele>572.75</ele><time>2026-04-11T15:18:38.007Z</time></trkpt><trkpt lat="44.825615" lon="7.2392917"><ele>570.5</ele><time>2026-04-11T15:18:39.007Z</time></trkpt><trkpt lat="44.8254983" lon="7.2392383"><ele>568.25</ele><time>2026-04-11T15:18:40.007Z</time></trkpt><trkpt lat="44.8253783" lon="7.2391867"><ele>566.0</ele><time>2026-04-11T15:18:41.008Z</time></trkpt><trkpt lat="44.8252583" lon="7.239125"><ele>563.5</ele><time>2026-04-11T15:18:42.007Z</time></trkpt><trkpt lat="44.825135" lon="7.2390733"><ele>561.0</ele><time>2026-04-11T15:18:43.007Z</time></trkpt><trkpt lat="44.825015" lon="7.2390167"><ele>558.5</ele><time>2026-04-11T15:18:44.007Z</time></trkpt><trkpt lat="44.8248867" lon="7.2389533"><ele>556.0</ele><time>2026-04-11T15:18:45.007Z</time></trkpt><trkpt lat="44.8247633" lon="7.2388883"><ele>555.0</ele><time>2026-04-11T15:18:46.007Z</time></trkpt><trkpt lat="44.8246417" lon="7.2388317"><ele>554.0</ele><time>2026-04-11T15:18:47.007Z</time></trkpt><trkpt lat="44.824525" lon="7.2387817"><ele>553.0</ele><time>2026-04-11T15:18:48.007Z</time></trkpt><trkpt lat="44.8244017" lon="7.2387433"><ele>552.0</ele><time>2026-04-11T15:18:49.007Z</time></trkpt><trkpt lat="44.8242783" lon="7.2387283"><ele>551.25</ele><time>2026-04-11T15:18:50.007Z</time></trkpt><trkpt lat="44.824145" lon="7.23876"><ele>550.5</ele><time>2026-04-11T15:18:51.007Z</time></trkpt><trkpt lat="44.8240133" lon="7.2388317"><ele>549.75</ele><time>2026-04-11T15:18:52.008Z</time></trkpt><trkpt lat="44.8238883" lon="7.2389283"><ele>549.0</ele><time>2026-04-11T15:18:53.007Z</time></trkpt><trkpt lat="44.8237683" lon="7.2390233"><ele>549.0</ele><time>2026-04-11T15:18:54.007Z</time></trkpt><trkpt lat="44.823655" lon="7.2391083"><ele>549.0</ele><time>2026-04-11T15:18:55.007Z</time></trkpt><trkpt lat="44.8235433" lon="7.23919"><ele>549.0</ele><time>2026-04-11T15:18:56.007Z</time></trkpt><trkpt lat="44.8234417" lon="7.2392583"><ele>549.0</ele><time>2026-04-11T15:18:57.007Z</time></trkpt><trkpt lat="44.82333" lon="7.2393167"><ele>547.4</ele><time>2026-04-11T15:18:58.007Z</time></trkpt><trkpt lat="44.8232233" lon="7.2393517"><ele>545.8</ele><time>2026-04-11T15:18:59.007Z</time></trkpt><trkpt lat="44.82311" lon="7.2393867"><ele>544.2</ele><time>2026-04-11T15:19:00.008Z</time></trkpt><trkpt lat="44.82301" lon="7.239425"><ele>542.6</ele><time>2026-04-11T15:19:01.008Z</time></trkpt><trkpt lat="44.822915" lon="7.2394667"><ele>541.0</ele><time>2026-04-11T15:19:02.007Z</time></trkpt><trkpt lat="44.822825" lon="7.2395117"><ele>541.0</ele><time>2026-04-11T15:19:03.007Z</time></trkpt><trkpt lat="44.8227433" lon="7.2395733"><ele>541.0</ele><time>2026-04-11T15:19:04.007Z</time></trkpt><trkpt lat="44.8226767" lon="7.23966"><ele>541.0</ele><time>2026-04-11T15:19:05.007Z</time></trkpt><trkpt lat="44.822625" lon="7.2397583"><ele>541.0</ele><time>2026-04-11T15:19:06.007Z</time></trkpt><trkpt lat="44.82259" lon="7.2398817"><ele>541.0</ele><time>2026-04-11T15:19:07.007Z</time></trkpt><trkpt lat="44.8225783" lon="7.2400267"><ele>538.5</ele><time>2026-04-11T15:19:08.007Z</time></trkpt><trkpt lat="44.82257" lon="7.2401883"><ele>536.0</ele><time>2026-04-11T15:19:09.007Z</time></trkpt><trkpt lat="44.8225817" lon="7.24034"><ele>533.5</ele><time>2026-04-11T15:19:10.008Z</time></trkpt><trkpt lat="44.8226017" lon="7.2405017"><ele>531.0</ele><time>2026-04-11T15:19:11.007Z</time></trkpt><trkpt lat="44.8226233" lon="7.24067"><ele>533.25</ele><time>2026-04-11T15:19:12.007Z</time></trkpt><trkpt lat="44.8226667" lon="7.2408517"><ele>535.5</ele><time>2026-04-11T15:19:13.007Z</time></trkpt><trkpt lat="44.82271" lon="7.24103"><ele>537.75</ele><time>2026-04-11T15:19:14.007Z</time></trkpt><trkpt lat="44.8227717" lon="7.2412267"><ele>540.0</ele><time>2026-04-11T15:19:15.007Z</time></trkpt><trkpt lat="44.8228517" lon="7.2413983"><ele>538.5</ele><time>2026-04-11T15:19:16.007Z</time></trkpt><trkpt lat="44.822925" lon="7.2415767"><ele>537.0</ele><time>2026-04-11T15:19:17.007Z</time></trkpt><trkpt lat="44.8229983" lon="7.2417317"><ele>535.5</ele><time>2026-04-11T15:19:18.007Z</time></trkpt><trkpt lat="44.8230617" lon="7.241875"><ele>534.0</ele><time>2026-04-11T15:19:19.007Z</time></trkpt><trkpt lat="44.823125" lon="7.2420383"><ele>534.0</ele><time>2026-04-11T15:19:20.007Z</time></trkpt><trkpt lat="44.8231867" lon="7.242205"><ele>534.0</ele><time>2026-04-11T15:19:21.007Z</time></trkpt><trkpt lat="44.82323" lon="7.2423783"><ele>534.0</ele><time>2026-04-11T15:19:22.007Z</time></trkpt><trkpt lat="44.8232733" lon="7.2425617"><ele>534.0</ele><time>2026-04-11T15:19:23.007Z</time></trkpt><trkpt lat="44.82331" lon="7.242725"><ele>532.6</ele><time>2026-04-11T15:19:24.007Z</time></trkpt><trkpt lat="44.82334" lon="7.242875"><ele>531.2</ele><time>2026-04-11T15:19:25.007Z</time></trkpt><trkpt lat="44.8233733" lon="7.24302"><ele>529.8000000000001</ele><time>2026-04-11T15:19:26.007Z</time></trkpt><trkpt lat="44.8233967" lon="7.2431417"><ele>528.4</ele><time>2026-04-11T15:19:27.007Z</time></trkpt><trkpt lat="44.823405" lon="7.2432717"><ele>527.0</ele><time>2026-04-11T15:19:28.007Z</time></trkpt><trkpt lat="44.8233817" lon="7.2434"><ele>525.8000000000001</ele><time>2026-04-11T15:19:29.007Z</time></trkpt><trkpt lat="44.8233467" lon="7.2435183"><ele>524.6</ele><time>2026-04-11T15:19:30.007Z</time></trkpt><trkpt lat="44.8232883" lon="7.2436217"><ele>523.4000000000001</ele><time>2026-04-11T15:19:31.007Z</time></trkpt><trkpt lat="44.82321" lon="7.243705"><ele>522.2</ele><time>2026-04-11T15:19:32.008Z</time></trkpt><trkpt lat="44.8231283" lon="7.24376"><ele>521.0</ele><time>2026-04-11T15:19:33.007Z</time></trkpt><trkpt lat="44.8230333" lon="7.2438067"><ele>521.0</ele><time>2026-04-11T15:19:34.008Z</time></trkpt><trkpt lat="44.8229367" lon="7.2438517"><ele>521.0</ele><time>2026-04-11T15:19:35.007Z</time></trkpt><trkpt lat="44.8228383" lon="7.2439"><ele>521.0</ele><time>2026-04-11T15:19:36.007Z</time></trkpt><trkpt lat="44.8227433" lon="7.2439433"><ele>521.0</ele><time>2026-04-11T15:19:37.007Z</time></trkpt><trkpt lat="44.8226533" lon="7.2439867"><ele>521.0</ele><time>2026-04-11T15:19:38.007Z</time></trkpt><trkpt lat="44.8225767" lon="7.2440133"><ele>519.2</ele><time>2026-04-11T15:19:39.007Z</time></trkpt><trkpt lat="44.8225117" lon="7.244035"><ele>517.4000000000001</ele><time>2026-04-11T15:19:40.007Z</time></trkpt><trkpt lat="44.8224333" lon="7.2440783"><ele>515.6</ele><time>2026-04-11T15:19:42.007Z</time></trkpt><trkpt lat="44.8224067" lon="7.2442017"><ele>513.8000000000001</ele><time>2026-04-11T15:19:45.007Z</time></trkpt><trkpt lat="44.822435" lon="7.2443267"><ele>512.0</ele><time>2026-04-11T15:19:47.007Z</time></trkpt><trkpt lat="44.82246" lon="7.244515"><ele>511.99999999999994</ele><time>2026-04-11T15:19:49.008Z</time></trkpt><trkpt lat="44.8224567" lon="7.244625"><ele>512.0</ele><time>2026-04-11T15:19:50.007Z</time></trkpt><trkpt lat="44.822435" lon="7.24472"><ele>512.0</ele><time>2026-04-11T15:19:51.007Z</time></trkpt><trkpt lat="44.82239" lon="7.2448133"><ele>512.0</ele><time>2026-04-11T15:19:52.007Z</time></trkpt><trkpt lat="44.8223217" lon="7.2448967"><ele>511.99999999999994</ele><time>2026-04-11T15:19:53.007Z</time></trkpt><trkpt lat="44.8222417" lon="7.2449667"><ele>512.0</ele><time>2026-04-11T15:19:54.007Z</time></trkpt><trkpt lat="44.82215" lon="7.24503"><ele>511.75</ele><time>2026-04-11T15:19:55.007Z</time></trkpt><trkpt lat="44.8220383" lon="7.24508"><ele>511.5</ele><time>2026-04-11T15:19:56.007Z</time></trkpt><trkpt lat="44.8219167" lon="7.2451433"><ele>511.25</ele><time>2026-04-11T15:19:57.007Z</time></trkpt><trkpt lat="44.82179" lon="7.2452133"><ele>511.0</ele><time>2026-04-11T15:19:58.007Z</time></trkpt><trkpt lat="44.8216683" lon="7.2453017"><ele>509.5</ele><time>2026-04-11T15:19:59.007Z</time></trkpt><trkpt lat="44.8215517" lon="7.2454033"><ele>508.0</ele><time>2026-04-11T15:20:00.008Z</time></trkpt><trkpt lat="44.821445" lon="7.2455283"><ele>506.5</ele><time>2026-04-11T15:20:01.007Z</time></trkpt><trkpt lat="44.8213517" lon="7.2456433"><ele>505.0</ele><time>2026-04-11T15:20:02.008Z</time></trkpt><trkpt lat="44.82127" lon="7.2457483"><ele>504.6666666666667</ele><time>2026-04-11T15:20:03.007Z</time></trkpt><trkpt lat="44.8211933" lon="7.2458417"><ele>504.33333333333337</ele><time>2026-04-11T15:20:04.007Z</time></trkpt><trkpt lat="44.8211217" lon="7.2459233"><ele>504.0</ele><time>2026-04-11T15:20:05.007Z</time></trkpt><trkpt lat="44.82106" lon="7.2459867"><ele>503.66666666666663</ele><time>2026-04-11T15:20:06.007Z</time></trkpt><trkpt lat="44.8209967" lon="7.246045"><ele>503.3333333333333</ele><time>2026-04-11T15:20:07.007Z</time></trkpt><trkpt lat="44.82093" lon="7.2460967"><ele>503.0</ele><time>2026-04-11T15:20:08.007Z</time></trkpt><trkpt lat="44.82087" lon="7.246135"><ele>502.66666666666663</ele><time>2026-04-11T15:20:09.008Z</time></trkpt><trkpt lat="44.8208033" lon="7.246175"><ele>502.3333333333333</ele><time>2026-04-11T15:20:10.007Z</time></trkpt><trkpt lat="44.8206917" lon="7.2462083"><ele>502.0</ele><time>2026-04-11T15:20:12.007Z</time></trkpt><trkpt lat="44.8206233" lon="7.2462217"><ele>501.66666666666663</ele><time>2026-04-11T15:20:13.007Z</time></trkpt><trkpt lat="44.82056" lon="7.2462617"><ele>501.3333333333333</ele><time>2026-04-11T15:20:14.007Z</time></trkpt><trkpt lat="44.8204983" lon="7.2462917"><ele>501.0</ele><time>2026-04-11T15:20:15.007Z</time></trkpt><trkpt lat="44.8203767" lon="7.246355"><ele>501.0</ele><time>2026-04-11T15:20:17.007Z</time></trkpt><trkpt lat="44.8202967" lon="7.2463683"><ele>501.0</ele><time>2026-04-11T15:20:18.007Z</time></trkpt><trkpt lat="44.8202117" lon="7.2463633"><ele>501.0</ele><time>2026-04-11T15:20:19.007Z</time></trkpt><trkpt lat="44.820105" lon="7.2463267"><ele>501.0</ele><time>2026-04-11T15:20:20.007Z</time></trkpt><trkpt lat="44.8199917" lon="7.2462917"><ele>501.0</ele><time>2026-04-11T15:20:21.007Z</time></trkpt><trkpt lat="44.81988" lon="7.2462483"><ele>500.25</ele><time>2026-04-11T15:20:22.007Z</time></trkpt><trkpt lat="44.8197617" lon="7.24622"><ele>499.5</ele><time>2026-04-11T15:20:23.007Z</time></trkpt><trkpt lat="44.81963" lon="7.24619"><ele>498.75</ele><time>2026-04-11T15:20:24.007Z</time></trkpt><trkpt lat="44.819495" lon="7.2461767"><ele>498.0</ele><time>2026-04-11T15:20:25.007Z</time></trkpt><trkpt lat="44.8193567" lon="7.24615"><ele>496.75</ele><time>2026-04-11T15:20:26.007Z</time></trkpt><trkpt lat="44.8192267" lon="7.246125"><ele>495.5</ele><time>2026-04-11T15:20:27.007Z</time></trkpt><trkpt lat="44.8191067" lon="7.2460883"><ele>494.25</ele><time>2026-04-11T15:20:28.007Z</time></trkpt><trkpt lat="44.8189867" lon="7.2460567"><ele>493.0</ele><time>2026-04-11T15:20:29.007Z</time></trkpt><trkpt lat="44.81886" lon="7.2460383"><ele>493.0</ele><time>2026-04-11T15:20:30.007Z</time></trkpt><trkpt lat="44.8187367" lon="7.246"><ele>493.0</ele><time>2026-04-11T15:20:31.007Z</time></trkpt><trkpt lat="44.81862" lon="7.2459883"><ele>493.0</ele><time>2026-04-11T15:20:32.007Z</time></trkpt><trkpt lat="44.8184983" lon="7.24597"><ele>493.0</ele><time>2026-04-11T15:20:33.007Z</time></trkpt><trkpt lat="44.8183717" lon="7.2459433"><ele>491.25</ele><time>2026-04-11T15:20:34.007Z</time></trkpt><trkpt lat="44.8182533" lon="7.2459383"><ele>489.5</ele><time>2026-04-11T15:20:35.007Z</time></trkpt><trkpt lat="44.8181283" lon="7.2459217"><ele>487.75</ele><time>2026-04-11T15:20:36.007Z</time></trkpt><trkpt lat="44.8180083" lon="7.245905"><ele>486.0</ele><time>2026-04-11T15:20:37.007Z</time></trkpt><trkpt lat="44.81788" lon="7.2458667"><ele>486.0</ele><time>2026-04-11T15:20:38.007Z</time></trkpt><trkpt lat="44.8177483" lon="7.2458333"><ele>486.0</ele><time>2026-04-11T15:20:39.007Z</time></trkpt><trkpt lat="44.8176183" lon="7.2458033"><ele>486.0</ele><time>2026-04-11T15:20:40.007Z</time></trkpt><trkpt lat="44.8174933" lon="7.2457867"><ele>486.0</ele><time>2026-04-11T15:20:41.007Z</time></trkpt><trkpt lat="44.817365" lon="7.2457717"><ele>485.5</ele><time>2026-04-11T15:20:42.007Z</time></trkpt><trkpt lat="44.8172333" lon="7.2457533"><ele>485.0</ele><time>2026-04-11T15:20:43.007Z</time></trkpt><trkpt lat="44.817105" lon="7.2457333"><ele>484.5</ele><time>2026-04-11T15:20:44.007Z</time></trkpt><trkpt lat="44.816975" lon="7.2457067"><ele>484.0</ele><time>2026-04-11T15:20:45.007Z</time></trkpt><trkpt lat="44.8168583" lon="7.24569"><ele>483.5</ele><time>2026-04-11T15:20:46.007Z</time></trkpt><trkpt lat="44.81675" lon="7.2456717"><ele>483.0</ele><time>2026-04-11T15:20:47.007Z</time></trkpt><trkpt lat="44.81663" lon="7.2456517"><ele>482.5</ele><time>2026-04-11T15:20:48.007Z</time></trkpt><trkpt lat="44.8165133" lon="7.2456567"><ele>482.0</ele><time>2026-04-11T15:20:49.007Z</time></trkpt><trkpt lat="44.81639" lon="7.2456217"><ele>482.0</ele><time>2026-04-11T15:20:50.007Z</time></trkpt><trkpt lat="44.816285" lon="7.245595"><ele>482.00000000000006</ele><time>2026-04-11T15:20:51.007Z</time></trkpt><trkpt lat="44.8162017" lon="7.245555"><ele>482.00000000000006</ele><time>2026-04-11T15:20:52.007Z</time></trkpt><trkpt lat="44.8161283" lon="7.2455417"><ele>482.0</ele><time>2026-04-11T15:20:53.008Z</time></trkpt><trkpt lat="44.8160217" lon="7.2455117"><ele>482.0</ele><time>2026-04-11T15:20:55.007Z</time></trkpt><trkpt lat="44.8158933" lon="7.2454817"><ele>481.6</ele><time>2026-04-11T15:20:57.007Z</time></trkpt><trkpt lat="44.8158083" lon="7.2454733"><ele>481.20000000000005</ele><time>2026-04-11T15:20:58.007Z</time></trkpt><trkpt lat="44.815705" lon="7.245455"><ele>480.8</ele><time>2026-04-11T15:20:59.007Z</time></trkpt><trkpt lat="44.8155983" lon="7.2454383"><ele>480.4</ele><time>2026-04-11T15:21:00.007Z</time></trkpt><trkpt lat="44.81548" lon="7.2454083"><ele>480.0</ele><time>2026-04-11T15:21:01.007Z</time></trkpt><trkpt lat="44.8153767" lon="7.2453783"><ele>480.0</ele><time>2026-04-11T15:21:02.007Z</time></trkpt><trkpt lat="44.81527" lon="7.245355"><ele>480.0</ele><time>2026-04-11T15:21:03.007Z</time></trkpt><trkpt lat="44.8151683" lon="7.245335"><ele>480.0</ele><time>2026-04-11T15:21:04.007Z</time></trkpt><trkpt lat="44.8150633" lon="7.2453167"><ele>480.0</ele><time>2026-04-11T15:21:05.007Z</time></trkpt><trkpt lat="44.8149633" lon="7.2453133"><ele>480.0</ele><time>2026-04-11T15:21:06.007Z</time></trkpt><trkpt lat="44.8148617" lon="7.2452917"><ele>480.0</ele><time>2026-04-11T15:21:07.007Z</time></trkpt><trkpt lat="44.8147667" lon="7.2452767"><ele>480.0</ele><time>2026-04-11T15:21:08.007Z</time></trkpt><trkpt lat="44.8146767" lon="7.2452633"><ele>480.0</ele><time>2026-04-11T15:21:09.008Z</time></trkpt><trkpt lat="44.814605" lon="7.24525"><ele>480.0</ele><time>2026-04-11T15:21:10.007Z</time></trkpt><trkpt lat="44.8145383" lon="7.2452367"><ele>480.0</ele><time>2026-04-11T15:21:11.007Z</time></trkpt><trkpt lat="44.814445" lon="7.2452383"><ele>480.0</ele><time>2026-04-11T15:21:13.007Z</time></trkpt><trkpt lat="44.8143983" lon="7.2453033"><ele>480.0</ele><time>2026-04-11T15:21:26.007Z</time></trkpt><trkpt lat="44.814335" lon="7.2452367"><ele>480.0</ele><time>2026-04-11T15:21:29.008Z</time></trkpt><trkpt lat="44.8143183" lon="7.2451417"><ele>480.0</ele><time>2026-04-11T15:21:33.008Z</time></trkpt><trkpt lat="44.8143233" lon="7.2449583"><ele>480.0</ele><time>2026-04-11T15:21:42.007Z</time></trkpt><trkpt lat="44.8143283" lon="7.2448283"><ele>480.0</ele><time>2026-04-11T15:21:44.007Z</time></trkpt><trkpt lat="44.814335" lon="7.2447317"><ele>480.0</ele><time>2026-04-11T15:21:46.007Z</time></trkpt><trkpt lat="44.8143619" lon="7.2448886"><ele>480.0</ele><time>2026-04-11T15:23:58.008Z</time></trkpt><trkpt lat="44.8143307" lon="7.2450236"><ele>480.0</ele><time>2026-04-11T15:24:24.008Z</time></trkpt><trkpt lat="44.8143806" lon="7.2450988"><ele>480.0</ele><time>2026-04-11T15:25:18.008Z</time></trkpt><trkpt lat="44.8143239" lon="7.2450334"><ele>480.0</ele><time>2026-04-11T15:28:44.008Z</time></trkpt><trkpt lat="44.8143097" lon="7.2449027"><ele>480.0</ele><time>2026-04-11T15:32:30.008Z</time></trkpt><trkpt lat="44.8143213" lon="7.2448125"><ele>480.0</ele><time>2026-04-11T15:32:34.008Z</time></trkpt><trkpt lat="44.8143367" lon="7.2447117"><ele>480.0</ele><time>2026-04-11T15:36:17.009Z</time></trkpt><trkpt lat="44.8143517" lon="7.24459"><ele>480.0</ele><time>2026-04-11T15:36:20.009Z</time></trkpt><trkpt lat="44.8143717" lon="7.2444783"><ele>480.0</ele><time>2026-04-11T15:37:15.009Z</time></trkpt><trkpt lat="44.81441" lon="7.244355"><ele>480.0</ele><time>2026-04-11T15:37:17.009Z</time></trkpt><trkpt lat="44.81443" lon="7.2442533"><ele>480.0</ele><time>2026-04-11T15:37:19.009Z</time></trkpt><trkpt lat="44.8144433" lon="7.2441517"><ele>480.0</ele><time>2026-04-11T15:37:21.009Z</time></trkpt><trkpt lat="44.81445" lon="7.2440433"><ele>480.0</ele><time>2026-04-11T15:37:23.009Z</time></trkpt><trkpt lat="44.814495" lon="7.2439117"><ele>480.0</ele><time>2026-04-11T15:37:32.009Z</time></trkpt><trkpt lat="44.814565" lon="7.2437483"><ele>480.0</ele><time>2026-04-11T15:37:34.009Z</time></trkpt><trkpt lat="44.8146133" lon="7.2436483"><ele>480.0</ele><time>2026-04-11T15:37:35.009Z</time></trkpt><trkpt lat="44.8146733" lon="7.2435767"><ele>480.0</ele><time>2026-04-11T15:37:36.01Z</time></trkpt><trkpt lat="44.8147317" lon="7.2434833"><ele>480.0</ele><time>2026-04-11T15:37:37.009Z</time></trkpt><trkpt lat="44.8147783" lon="7.2433917"><ele>480.0</ele><time>2026-04-11T15:37:38.009Z</time></trkpt><trkpt lat="44.8148317" lon="7.2432917"><ele>480.0</ele><time>2026-04-11T15:37:39.01Z</time></trkpt><trkpt lat="44.814875" lon="7.24319"><ele>480.0</ele><time>2026-04-11T15:37:40.009Z</time></trkpt><trkpt lat="44.8149067" lon="7.2430683"><ele>480.0</ele><time>2026-04-11T15:37:41.009Z</time></trkpt><trkpt lat="44.814945" lon="7.2429583"><ele>480.0</ele><time>2026-04-11T15:37:42.009Z</time></trkpt><trkpt lat="44.8149867" lon="7.2428517"><ele>480.3333333333333</ele><time>2026-04-11T15:37:43.009Z</time></trkpt><trkpt lat="44.81504" lon="7.2427533"><ele>480.66666666666663</ele><time>2026-04-11T15:37:44.009Z</time></trkpt><trkpt lat="44.815085" lon="7.2426567"><ele>481.0</ele><time>2026-04-11T15:37:45.009Z</time></trkpt><trkpt lat="44.81513" lon="7.24256"><ele>481.3333333333333</ele><time>2026-04-11T15:37:46.009Z</time></trkpt><trkpt lat="44.815175" lon="7.2424567"><ele>481.66666666666663</ele><time>2026-04-11T15:37:47.009Z</time></trkpt><trkpt lat="44.8152267" lon="7.2423417"><ele>482.0</ele><time>2026-04-11T15:37:48.009Z</time></trkpt><trkpt lat="44.8152833" lon="7.2422233"><ele>482.8</ele><time>2026-04-11T15:37:49.009Z</time></trkpt><trkpt lat="44.8153417" lon="7.2420983"><ele>483.6</ele><time>2026-04-11T15:37:50.009Z</time></trkpt><trkpt lat="44.8154017" lon="7.2419767"><ele>484.40000000000003</ele><time>2026-04-11T15:37:51.009Z</time></trkpt><trkpt lat="44.8154667" lon="7.2418533"><ele>485.20000000000005</ele><time>2026-04-11T15:37:52.009Z</time></trkpt><trkpt lat="44.8155383" lon="7.2417417"><ele>486.0</ele><time>2026-04-11T15:37:53.009Z</time></trkpt><trkpt lat="44.8156133" lon="7.241615"><ele>486.0</ele><time>2026-04-11T15:37:54.009Z</time></trkpt><trkpt lat="44.815695" lon="7.241505"><ele>486.0</ele><time>2026-04-11T15:37:55.009Z</time></trkpt><trkpt lat="44.815765" lon="7.241385"><ele>486.0</ele><time>2026-04-11T15:37:56.009Z</time></trkpt><trkpt lat="44.8158167" lon="7.2412417"><ele>486.0</ele><time>2026-04-11T15:37:57.009Z</time></trkpt><trkpt lat="44.8158667" lon="7.241105"><ele>486.0</ele><time>2026-04-11T15:37:58.01Z</time></trkpt><trkpt lat="44.81592" lon="7.2409783"><ele>486.4</ele><time>2026-04-11T15:37:59.009Z</time></trkpt><trkpt lat="44.81598" lon="7.2408417"><ele>486.8</ele><time>2026-04-11T15:38:00.009Z</time></trkpt><trkpt lat="44.8160333" lon="7.2407117"><ele>487.19999999999993</ele><time>2026-04-11T15:38:01.009Z</time></trkpt><trkpt lat="44.8160933" lon="7.24058"><ele>487.59999999999997</ele><time>2026-04-11T15:38:02.009Z</time></trkpt><trkpt lat="44.8161583" lon="7.2404483"><ele>488.0</ele><time>2026-04-11T15:38:03.009Z</time></trkpt><trkpt lat="44.81622" lon="7.2403167"><ele>488.25</ele><time>2026-04-11T15:38:04.009Z</time></trkpt><trkpt lat="44.8162767" lon="7.24018"><ele>488.5</ele><time>2026-04-11T15:38:05.009Z</time></trkpt><trkpt lat="44.8163367" lon="7.2400433"><ele>488.75</ele><time>2026-04-11T15:38:06.009Z</time></trkpt><trkpt lat="44.81641" lon="7.23991"><ele>489.0</ele><time>2026-04-11T15:38:07.009Z</time></trkpt><trkpt lat="44.8164767" lon="7.2397717"><ele>489.25</ele><time>2026-04-11T15:38:08.009Z</time></trkpt><trkpt lat="44.81654" lon="7.2396383"><ele>489.5</ele><time>2026-04-11T15:38:09.01Z</time></trkpt><trkpt lat="44.81661" lon="7.2395083"><ele>489.75</ele><time>2026-04-11T15:38:10.009Z</time></trkpt><trkpt lat="44.8166783" lon="7.2393733"><ele>490.0</ele><time>2026-04-11T15:38:11.009Z</time></trkpt><trkpt lat="44.816735" lon="7.2392217"><ele>490.0</ele><time>2026-04-11T15:38:12.009Z</time></trkpt><trkpt lat="44.8167967" lon="7.2390883"><ele>490.0</ele><time>2026-04-11T15:38:13.01Z</time></trkpt><trkpt lat="44.81686" lon="7.2389467"><ele>490.0</ele><time>2026-04-11T15:38:14.009Z</time></trkpt><trkpt lat="44.81693" lon="7.2388167"><ele>490.0</ele><time>2026-04-11T15:38:15.009Z</time></trkpt><trkpt lat="44.817" lon="7.2386883"><ele>491.5</ele><time>2026-04-11T15:38:16.01Z</time></trkpt><trkpt lat="44.81707" lon="7.23855"><ele>493.0</ele><time>2026-04-11T15:38:17.009Z</time></trkpt><trkpt lat="44.8171317" lon="7.23842"><ele>494.5</ele><time>2026-04-11T15:38:18.009Z</time></trkpt><trkpt lat="44.817195" lon="7.2382917"><ele>496.0</ele><time>2026-04-11T15:38:19.009Z</time></trkpt><trkpt lat="44.8172567" lon="7.2381667"><ele>496.4</ele><time>2026-04-11T15:38:20.009Z</time></trkpt><trkpt lat="44.817315" lon="7.23804"><ele>496.8</ele><time>2026-04-11T15:38:21.009Z</time></trkpt><trkpt lat="44.8173783" lon="7.2379067"><ele>497.19999999999993</ele><time>2026-04-11T15:38:22.009Z</time></trkpt><trkpt lat="44.8174383" lon="7.2377867"><ele>497.59999999999997</ele><time>2026-04-11T15:38:23.009Z</time></trkpt><trkpt lat="44.8174917" lon="7.23767"><ele>498.0</ele><time>2026-04-11T15:38:24.009Z</time></trkpt><trkpt lat="44.81755" lon="7.2375533"><ele>498.0</ele><time>2026-04-11T15:38:25.009Z</time></trkpt><trkpt lat="44.8176033" lon="7.2374333"><ele>498.0</ele><time>2026-04-11T15:38:26.009Z</time></trkpt><trkpt lat="44.8176533" lon="7.2373233"><ele>498.0</ele><time>2026-04-11T15:38:27.009Z</time></trkpt><trkpt lat="44.8176967" lon="7.2372267"><ele>498.0</ele><time>2026-04-11T15:38:28.009Z</time></trkpt><trkpt lat="44.8177417" lon="7.2371383"><ele>498.0</ele><time>2026-04-11T15:38:29.009Z</time></trkpt><trkpt lat="44.817795" lon="7.2370533"><ele>498.0</ele><time>2026-04-11T15:38:30.009Z</time></trkpt><trkpt lat="44.8178483" lon="7.2369367"><ele>498.59999999999997</ele><time>2026-04-11T15:38:31.009Z</time></trkpt><trkpt lat="44.8179033" lon="7.2368183"><ele>499.19999999999993</ele><time>2026-04-11T15:38:32.009Z</time></trkpt><trkpt lat="44.817955" lon="7.2366983"><ele>499.8</ele><time>2026-04-11T15:38:33.009Z</time></trkpt><trkpt lat="44.8180133" lon="7.2365767"><ele>500.4</ele><time>2026-04-11T15:38:34.009Z</time></trkpt><trkpt lat="44.8180767" lon="7.236445"><ele>501.0</ele><time>2026-04-11T15:38:35.009Z</time></trkpt><trkpt lat="44.8181467" lon="7.2363167"><ele>501.0</ele><time>2026-04-11T15:38:36.009Z</time></trkpt><trkpt lat="44.8182083" lon="7.2361867"><ele>501.0</ele><time>2026-04-11T15:38:37.009Z</time></trkpt><trkpt lat="44.8182783" lon="7.236055"><ele>501.0</ele><time>2026-04-11T15:38:38.009Z</time></trkpt><trkpt lat="44.8183467" lon="7.2359067"><ele>501.0</ele><time>2026-04-11T15:38:39.009Z</time></trkpt><trkpt lat="44.8184133" lon="7.23577"><ele>501.75</ele><time>2026-04-11T15:38:40.009Z</time></trkpt><trkpt lat="44.8184783" lon="7.23562"><ele>502.5</ele><time>2026-04-11T15:38:41.009Z</time></trkpt><trkpt lat="44.8185467" lon="7.235485"><ele>503.25</ele><time>2026-04-11T15:38:42.009Z</time></trkpt><trkpt lat="44.8186117" lon="7.2353483"><ele>504.0</ele><time>2026-04-11T15:38:43.009Z</time></trkpt><trkpt lat="44.8186717" lon="7.23521"><ele>504.75</ele><time>2026-04-11T15:38:44.009Z</time></trkpt><trkpt lat="44.818735" lon="7.2350767"><ele>505.5</ele><time>2026-04-11T15:38:45.009Z</time></trkpt><trkpt lat="44.818805" lon="7.2349333"><ele>506.25</ele><time>2026-04-11T15:38:46.009Z</time></trkpt><trkpt lat="44.81888" lon="7.234795"><ele>507.0</ele><time>2026-04-11T15:38:47.009Z</time></trkpt><trkpt lat="44.8189483" lon="7.2346567"><ele>507.5</ele><time>2026-04-11T15:38:48.009Z</time></trkpt><trkpt lat="44.819025" lon="7.234515"><ele>508.0</ele><time>2026-04-11T15:38:49.009Z</time></trkpt><trkpt lat="44.8191" lon="7.2343683"><ele>508.5</ele><time>2026-04-11T15:38:50.009Z</time></trkpt><trkpt lat="44.8191717" lon="7.2342217"><ele>509.0</ele><time>2026-04-11T15:38:51.009Z</time></trkpt><trkpt lat="44.8192467" lon="7.2340717"><ele>509.75</ele><time>2026-04-11T15:38:52.009Z</time></trkpt><trkpt lat="44.819315" lon="7.233925"><ele>510.5</ele><time>2026-04-11T15:38:53.009Z</time></trkpt><trkpt lat="44.819385" lon="7.23378"><ele>511.25</ele><time>2026-04-11T15:38:54.009Z</time></trkpt><trkpt lat="44.8194517" lon="7.2336333"><ele>512.0</ele><time>2026-04-11T15:38:55.009Z</time></trkpt><trkpt lat="44.8195233" lon="7.2334883"><ele>512.0</ele><time>2026-04-11T15:38:56.009Z</time></trkpt><trkpt lat="44.819585" lon="7.2333467"><ele>512.0</ele><time>2026-04-11T15:38:57.01Z</time></trkpt><trkpt lat="44.8196467" lon="7.2332183"><ele>512.0</ele><time>2026-04-11T15:38:58.009Z</time></trkpt><trkpt lat="44.8197167" lon="7.2330933"><ele>512.0</ele><time>2026-04-11T15:38:59.009Z</time></trkpt><trkpt lat="44.8197783" lon="7.2329517"><ele>512.5</ele><time>2026-04-11T15:39:00.009Z</time></trkpt><trkpt lat="44.8198367" lon="7.232805"><ele>513.0</ele><time>2026-04-11T15:39:01.009Z</time></trkpt><trkpt lat="44.819895" lon="7.2326483"><ele>513.5</ele><time>2026-04-11T15:39:02.009Z</time></trkpt><trkpt lat="44.819955" lon="7.2324917"><ele>514.0</ele><time>2026-04-11T15:39:03.009Z</time></trkpt><trkpt lat="44.8200067" lon="7.2323333"><ele>514.2</ele><time>2026-04-11T15:39:04.009Z</time></trkpt><trkpt lat="44.8200467" lon="7.232175"><ele>514.4</ele><time>2026-04-11T15:39:05.009Z</time></trkpt><trkpt lat="44.8200767" lon="7.2320217"><ele>514.6</ele><time>2026-04-11T15:39:06.009Z</time></trkpt><trkpt lat="44.8201017" lon="7.231875"><ele>514.8</ele><time>2026-04-11T15:39:07.009Z</time></trkpt><trkpt lat="44.82013" lon="7.23175"><ele>515.0</ele><time>2026-04-11T15:39:08.009Z</time></trkpt><trkpt lat="44.820145" lon="7.2316483"><ele>515.5</ele><time>2026-04-11T15:39:09.009Z</time></trkpt><trkpt lat="44.820175" lon="7.2314983"><ele>516.0</ele><time>2026-04-11T15:39:11.009Z</time></trkpt><trkpt lat="44.8202133" lon="7.231405"><ele>516.5</ele><time>2026-04-11T15:39:13.009Z</time></trkpt><trkpt lat="44.8202433" lon="7.2312867"><ele>517.0</ele><time>2026-04-11T15:39:16.009Z</time></trkpt><trkpt lat="44.820255" lon="7.2311933"><ele>517.5</ele><time>2026-04-11T15:40:38.009Z</time></trkpt><trkpt lat="44.8202083" lon="7.2312817"><ele>518.0</ele><time>2026-04-11T15:44:05.009Z</time></trkpt><trkpt lat="44.8201817" lon="7.2313767"><ele>518.0</ele><time>2026-04-11T15:44:08.009Z</time></trkpt><trkpt lat="44.8201783" lon="7.23148"><ele>518.0</ele><time>2026-04-11T15:44:37.01Z</time></trkpt><trkpt lat="44.820155" lon="7.2315633"><ele>518.0</ele><time>2026-04-11T15:44:47.009Z</time></trkpt><trkpt lat="44.8201367" lon="7.2316533"><ele>518.0</ele><time>2026-04-11T15:44:48.01Z</time></trkpt><trkpt lat="44.82011" lon="7.23179"><ele>518.0</ele><time>2026-04-11T15:44:49.009Z</time></trkpt><trkpt lat="44.82008" lon="7.2319383"><ele>518.0</ele><time>2026-04-11T15:44:50.009Z</time></trkpt><trkpt lat="44.8200483" lon="7.2320867"><ele>517.25</ele><time>2026-04-11T15:44:51.009Z</time></trkpt><trkpt lat="44.820015" lon="7.2322567"><ele>516.5</ele><time>2026-04-11T15:44:52.009Z</time></trkpt><trkpt lat="44.81996" lon="7.23242"><ele>515.75</ele><time>2026-04-11T15:44:53.009Z</time></trkpt><trkpt lat="44.81989" lon="7.232595"><ele>515.0</ele><time>2026-04-11T15:44:54.01Z</time></trkpt><trkpt lat="44.8198217" lon="7.2327367"><ele>514.75</ele><time>2026-04-11T15:44:55.009Z</time></trkpt><trkpt lat="44.8197433" lon="7.2328833"><ele>514.5</ele><time>2026-04-11T15:44:56.009Z</time></trkpt><trkpt lat="44.819665" lon="7.2330333"><ele>514.25</ele><time>2026-04-11T15:44:57.009Z</time></trkpt><trkpt lat="44.81959" lon="7.2331867"><ele>514.0</ele><time>2026-04-11T15:44:58.009Z</time></trkpt><trkpt lat="44.81951" lon="7.233355"><ele>513.5</ele><time>2026-04-11T15:44:59.009Z</time></trkpt><trkpt lat="44.8194333" lon="7.233525"><ele>513.0</ele><time>2026-04-11T15:45:00.009Z</time></trkpt><trkpt lat="44.8193583" lon="7.2336833"><ele>512.5</ele><time>2026-04-11T15:45:01.009Z</time></trkpt><trkpt lat="44.8192767" lon="7.23384"><ele>512.0</ele><time>2026-04-11T15:45:02.01Z</time></trkpt><trkpt lat="44.8191967" lon="7.23399"><ele>511.25</ele><time>2026-04-11T15:45:03.009Z</time></trkpt><trkpt lat="44.8191183" lon="7.2341433"><ele>510.5</ele><time>2026-04-11T15:45:04.009Z</time></trkpt><trkpt lat="44.8190483" lon="7.234295"><ele>509.75</ele><time>2026-04-11T15:45:05.009Z</time></trkpt><trkpt lat="44.8189733" lon="7.23445"><ele>509.0</ele><time>2026-04-11T15:45:06.009Z</time></trkpt><trkpt lat="44.8188983" lon="7.234605"><ele>509.0</ele><time>2026-04-11T15:45:07.009Z</time></trkpt><trkpt lat="44.8188233" lon="7.2347667"><ele>509.0</ele><time>2026-04-11T15:45:08.009Z</time></trkpt><trkpt lat="44.818755" lon="7.2349183"><ele>509.0</ele><time>2026-04-11T15:45:09.009Z</time></trkpt><trkpt lat="44.81868" lon="7.2350683"><ele>509.0</ele><time>2026-04-11T15:45:10.009Z</time></trkpt><trkpt lat="44.818605" lon="7.2352067"><ele>508.5</ele><time>2026-04-11T15:45:11.009Z</time></trkpt><trkpt lat="44.818535" lon="7.2353467"><ele>508.0</ele><time>2026-04-11T15:45:12.009Z</time></trkpt><trkpt lat="44.8184633" lon="7.2354983"><ele>507.5</ele><time>2026-04-11T15:45:13.009Z</time></trkpt><trkpt lat="44.818395" lon="7.235645"><ele>507.0</ele><time>2026-04-11T15:45:14.01Z</time></trkpt><trkpt lat="44.8183217" lon="7.2357967"><ele>505.5</ele><time>2026-04-11T15:45:15.009Z</time></trkpt><trkpt lat="44.8182483" lon="7.23594"><ele>504.0</ele><time>2026-04-11T15:45:16.009Z</time></trkpt><trkpt lat="44.818175" lon="7.2360783"><ele>502.5</ele><time>2026-04-11T15:45:17.009Z</time></trkpt><trkpt lat="44.8181067" lon="7.23621"><ele>501.0</ele><time>2026-04-11T15:45:18.009Z</time></trkpt><trkpt lat="44.8180517" lon="7.2363367"><ele>501.0</ele><time>2026-04-11T15:45:19.009Z</time></trkpt><trkpt lat="44.8179967" lon="7.23645"><ele>501.0</ele><time>2026-04-11T15:45:20.009Z</time></trkpt><trkpt lat="44.8179417" lon="7.23655"><ele>501.0</ele><time>2026-04-11T15:45:21.01Z</time></trkpt><trkpt lat="44.8178933" lon="7.2366283"><ele>501.0</ele><time>2026-04-11T15:45:22.009Z</time></trkpt><trkpt lat="44.8178433" lon="7.2367"><ele>501.0</ele><time>2026-04-11T15:45:23.009Z</time></trkpt><trkpt lat="44.817755" lon="7.2368183"><ele>501.3333333333333</ele><time>2026-04-11T15:45:25.009Z</time></trkpt><trkpt lat="44.8177033" lon="7.2368833"><ele>501.66666666666663</ele><time>2026-04-11T15:45:26.009Z</time></trkpt><trkpt lat="44.8176683" lon="7.2369717"><ele>502.0</ele><time>2026-04-11T15:45:27.009Z</time></trkpt><trkpt lat="44.8176433" lon="7.23707"><ele>502.3333333333333</ele><time>2026-04-11T15:45:28.009Z</time></trkpt><trkpt lat="44.8176317" lon="7.2371717"><ele>502.66666666666663</ele><time>2026-04-11T15:45:29.009Z</time></trkpt><trkpt lat="44.8176017" lon="7.2372767"><ele>503.0</ele><time>2026-04-11T15:45:30.009Z</time></trkpt><trkpt lat="44.8175667" lon="7.23739"><ele>502.0</ele><time>2026-04-11T15:45:31.009Z</time></trkpt><trkpt lat="44.81751" lon="7.237495"><ele>500.99999999999994</ele><time>2026-04-11T15:45:32.009Z</time></trkpt><trkpt lat="44.8174633" lon="7.2376267"><ele>499.99999999999994</ele><time>2026-04-11T15:45:33.009Z</time></trkpt><trkpt lat="44.8173967" lon="7.2377583"><ele>499.0</ele><time>2026-04-11T15:45:34.009Z</time></trkpt><trkpt lat="44.81732" lon="7.23789"><ele>498.0</ele><time>2026-04-11T15:45:35.009Z</time></trkpt><trkpt lat="44.8172417" lon="7.2380183"><ele>497.5</ele><time>2026-04-11T15:45:36.009Z</time></trkpt><trkpt lat="44.8171717" lon="7.2381383"><ele>497.0</ele><time>2026-04-11T15:45:37.009Z</time></trkpt><trkpt lat="44.8170983" lon="7.2382567"><ele>496.5</ele><time>2026-04-11T15:45:38.009Z</time></trkpt><trkpt lat="44.8170317" lon="7.2383883"><ele>496.0</ele><time>2026-04-11T15:45:39.009Z</time></trkpt><trkpt lat="44.8169733" lon="7.23853"><ele>496.0</ele><time>2026-04-11T15:45:40.009Z</time></trkpt><trkpt lat="44.8169067" lon="7.23866"><ele>496.0</ele><time>2026-04-11T15:45:41.009Z</time></trkpt><trkpt lat="44.8168383" lon="7.2387933"><ele>496.0</ele><time>2026-04-11T15:45:42.009Z</time></trkpt><trkpt lat="44.8167717" lon="7.2389367"><ele>496.0</ele><time>2026-04-11T15:45:43.009Z</time></trkpt><trkpt lat="44.8167067" lon="7.2390683"><ele>494.5</ele><time>2026-04-11T15:45:44.009Z</time></trkpt><trkpt lat="44.8166483" lon="7.2392"><ele>493.0</ele><time>2026-04-11T15:45:45.009Z</time></trkpt><trkpt lat="44.81659" lon="7.2393333"><ele>491.5</ele><time>2026-04-11T15:45:46.009Z</time></trkpt><trkpt lat="44.816525" lon="7.2394717"><ele>490.0</ele><time>2026-04-11T15:45:47.009Z</time></trkpt><trkpt lat="44.8164517" lon="7.23959"><ele>490.0</ele><time>2026-04-11T15:45:48.009Z</time></trkpt><trkpt lat="44.8163933" lon="7.2397133"><ele>490.0</ele><time>2026-04-11T15:45:49.009Z</time></trkpt><trkpt lat="44.81634" lon="7.2398367"><ele>490.0</ele><time>2026-04-11T15:45:50.009Z</time></trkpt><trkpt lat="44.8162733" lon="7.2399767"><ele>490.0</ele><time>2026-04-11T15:45:51.009Z</time></trkpt><trkpt lat="44.816205" lon="7.2401033"><ele>490.0</ele><time>2026-04-11T15:45:52.009Z</time></trkpt><trkpt lat="44.81615" lon="7.2402233"><ele>489.75</ele><time>2026-04-11T15:45:53.009Z</time></trkpt><trkpt lat="44.816085" lon="7.2403667"><ele>489.5</ele><time>2026-04-11T15:45:54.009Z</time></trkpt><trkpt lat="44.8160267" lon="7.2405067"><ele>489.25</ele><time>2026-04-11T15:45:55.009Z</time></trkpt><trkpt lat="44.815965" lon="7.2406383"><ele>489.0</ele><time>2026-04-11T15:45:56.009Z</time></trkpt><trkpt lat="44.8159033" lon="7.2407667"><ele>488.75</ele><time>2026-04-11T15:45:57.009Z</time></trkpt><trkpt lat="44.8158383" lon="7.240895"><ele>488.5</ele><time>2026-04-11T15:45:58.009Z</time></trkpt><trkpt lat="44.81577" lon="7.2410217"><ele>488.25</ele><time>2026-04-11T15:45:59.009Z</time></trkpt><trkpt lat="44.8157067" lon="7.2411583"><ele>488.0</ele><time>2026-04-11T15:46:00.009Z</time></trkpt><trkpt lat="44.81565" lon="7.2412917"><ele>488.0</ele><time>2026-04-11T15:46:01.009Z</time></trkpt><trkpt lat="44.8155883" lon="7.24143"><ele>488.0</ele><time>2026-04-11T15:46:02.009Z</time></trkpt><trkpt lat="44.815525" lon="7.2415667"><ele>488.0</ele><time>2026-04-11T15:46:03.009Z</time></trkpt><trkpt lat="44.8154633" lon="7.2417033"><ele>488.0</ele><time>2026-04-11T15:46:04.009Z</time></trkpt><trkpt lat="44.8154033" lon="7.2418433"><ele>487.5</ele><time>2026-04-11T15:46:05.009Z</time></trkpt><trkpt lat="44.8153383" lon="7.241975"><ele>487.0</ele><time>2026-04-11T15:46:06.009Z</time></trkpt><trkpt lat="44.81528" lon="7.2421217"><ele>486.5</ele><time>2026-04-11T15:46:07.009Z</time></trkpt><trkpt lat="44.8152183" lon="7.24225"><ele>486.0</ele><time>2026-04-11T15:46:08.009Z</time></trkpt><trkpt lat="44.8151483" lon="7.2423833"><ele>485.20000000000005</ele><time>2026-04-11T15:46:09.009Z</time></trkpt><trkpt lat="44.81508" lon="7.2425033"><ele>484.40000000000003</ele><time>2026-04-11T15:46:10.009Z</time></trkpt><trkpt lat="44.8150083" lon="7.2426183"><ele>483.6</ele><time>2026-04-11T15:46:11.009Z</time></trkpt><trkpt lat="44.814945" lon="7.2427433"><ele>482.8</ele><time>2026-04-11T15:46:12.009Z</time></trkpt><trkpt lat="44.8148867" lon="7.242875"><ele>482.0</ele><time>2026-04-11T15:46:13.009Z</time></trkpt><trkpt lat="44.8148217" lon="7.2430067"><ele>481.6</ele><time>2026-04-11T15:46:14.009Z</time></trkpt><trkpt lat="44.814765" lon="7.243135"><ele>481.20000000000005</ele><time>2026-04-11T15:46:15.009Z</time></trkpt><trkpt lat="44.8147083" lon="7.243265"><ele>480.8</ele><time>2026-04-11T15:46:16.009Z</time></trkpt><trkpt lat="44.8146467" lon="7.2433967"><ele>480.4</ele><time>2026-04-11T15:46:17.009Z</time></trkpt><trkpt lat="44.81459" lon="7.24353"><ele>480.0</ele><time>2026-04-11T15:46:18.009Z</time></trkpt><trkpt lat="44.814535" lon="7.243665"><ele>480.0</ele><time>2026-04-11T15:46:19.009Z</time></trkpt><trkpt lat="44.8144733" lon="7.243795"><ele>480.0</ele><time>2026-04-11T15:46:20.009Z</time></trkpt><trkpt lat="44.8144217" lon="7.2439283"><ele>480.0</ele><time>2026-04-11T15:46:21.01Z</time></trkpt><trkpt lat="44.8143583" lon="7.2440433"><ele>480.0</ele><time>2026-04-11T15:46:22.009Z</time></trkpt><trkpt lat="44.8142933" lon="7.244155"><ele>480.0</ele><time>2026-04-11T15:46:23.009Z</time></trkpt><trkpt lat="44.814235" lon="7.2442617"><ele>479.8</ele><time>2026-04-11T15:46:24.009Z</time></trkpt><trkpt lat="44.8141783" lon="7.2443817"><ele>479.6</ele><time>2026-04-11T15:46:25.009Z</time></trkpt><trkpt lat="44.8141233" lon="7.2445033"><ele>479.4</ele><time>2026-04-11T15:46:26.009Z</time></trkpt><trkpt lat="44.8140533" lon="7.244605"><ele>479.2</ele><time>2026-04-11T15:46:27.01Z</time></trkpt><trkpt lat="44.8139883" lon="7.2446983"><ele>479.0</ele><time>2026-04-11T15:46:28.009Z</time></trkpt><trkpt lat="44.81394" lon="7.2448083"><ele>478.8333333333333</ele><time>2026-04-11T15:46:29.009Z</time></trkpt><trkpt lat="44.8139083" lon="7.2448867"><ele>478.66666666666663</ele><time>2026-04-11T15:46:30.009Z</time></trkpt><trkpt lat="44.8138667" lon="7.2449733"><ele>478.5</ele><time>2026-04-11T15:46:32.009Z</time></trkpt><trkpt lat="44.8137983" lon="7.24502"><ele>478.33333333333337</ele><time>2026-04-11T15:46:34.01Z</time></trkpt><trkpt lat="44.8136967" lon="7.2450667"><ele>478.1666666666667</ele><time>2026-04-11T15:46:36.01Z</time></trkpt><trkpt lat="44.81358" lon="7.2450383"><ele>478.0</ele><time>2026-04-11T15:46:38.009Z</time></trkpt><trkpt lat="44.8134733" lon="7.24497"><ele>477.4</ele><time>2026-04-11T15:46:40.009Z</time></trkpt><trkpt lat="44.81339" lon="7.244925"><ele>476.79999999999995</ele><time>2026-04-11T15:46:42.01Z</time></trkpt><trkpt lat="44.8133083" lon="7.244915"><ele>476.2</ele><time>2026-04-11T15:46:44.01Z</time></trkpt><trkpt lat="44.813185" lon="7.2448667"><ele>475.6</ele><time>2026-04-11T15:46:46.009Z</time></trkpt><trkpt lat="44.813105" lon="7.2448283"><ele>475.0</ele><time>2026-04-11T15:46:47.009Z</time></trkpt><trkpt lat="44.813015" lon="7.2447783"><ele>474.75</ele><time>2026-04-11T15:46:48.01Z</time></trkpt><trkpt lat="44.8129183" lon="7.2447267"><ele>474.5</ele><time>2026-04-11T15:46:49.009Z</time></trkpt><trkpt lat="44.8128133" lon="7.2446833"><ele>474.25</ele><time>2026-04-11T15:46:50.009Z</time></trkpt><trkpt lat="44.8127" lon="7.24464"><ele>474.0</ele><time>2026-04-11T15:46:51.009Z</time></trkpt><trkpt lat="44.8125833" lon="7.2445867"><ele>473.25</ele><time>2026-04-11T15:46:52.009Z</time></trkpt><trkpt lat="44.81246" lon="7.244535"><ele>472.5</ele><time>2026-04-11T15:46:53.01Z</time></trkpt><trkpt lat="44.8123317" lon="7.2444833"><ele>471.75</ele><time>2026-04-11T15:46:54.009Z</time></trkpt><trkpt lat="44.8122017" lon="7.2444333"><ele>471.0</ele><time>2026-04-11T15:46:55.01Z</time></trkpt><trkpt lat="44.8120533" lon="7.244385"><ele>471.0</ele><time>2026-04-11T15:46:56.009Z</time></trkpt><trkpt lat="44.8119133" lon="7.2443283"><ele>471.0</ele><time>2026-04-11T15:46:57.009Z</time></trkpt><trkpt lat="44.8117833" lon="7.2442817"><ele>471.0</ele><time>2026-04-11T15:46:58.01Z</time></trkpt><trkpt lat="44.811655" lon="7.2442333"><ele>471.0</ele><time>2026-04-11T15:46:59.009Z</time></trkpt><trkpt lat="44.8115283" lon="7.24418"><ele>470.5</ele><time>2026-04-11T15:47:00.009Z</time></trkpt><trkpt lat="44.8114" lon="7.244125"><ele>470.0</ele><time>2026-04-11T15:47:01.009Z</time></trkpt><trkpt lat="44.8112767" lon="7.244075"><ele>469.5</ele><time>2026-04-11T15:47:02.009Z</time></trkpt><trkpt lat="44.81115" lon="7.2440167"><ele>469.0</ele><time>2026-04-11T15:47:03.009Z</time></trkpt><trkpt lat="44.8110167" lon="7.2439583"><ele>469.0</ele><time>2026-04-11T15:47:04.009Z</time></trkpt><trkpt lat="44.8108933" lon="7.243905"><ele>469.0</ele><time>2026-04-11T15:47:05.009Z</time></trkpt><trkpt lat="44.8107683" lon="7.2438533"><ele>469.0</ele><time>2026-04-11T15:47:06.009Z</time></trkpt><trkpt lat="44.8106533" lon="7.2438017"><ele>469.0</ele><time>2026-04-11T15:47:07.009Z</time></trkpt><trkpt lat="44.8105417" lon="7.2437483"><ele>469.0</ele><time>2026-04-11T15:47:08.009Z</time></trkpt><trkpt lat="44.8104417" lon="7.24365"><ele>469.0</ele><time>2026-04-11T15:47:09.009Z</time></trkpt><trkpt lat="44.810355" lon="7.2435083"><ele>469.0</ele><time>2026-04-11T15:47:10.009Z</time></trkpt><trkpt lat="44.8103033" lon="7.2433267"><ele>469.0</ele><time>2026-04-11T15:47:11.009Z</time></trkpt><trkpt lat="44.8102867" lon="7.2431233"><ele>469.0</ele><time>2026-04-11T15:47:12.009Z</time></trkpt><trkpt lat="44.8102833" lon="7.2429133"><ele>469.0</ele><time>2026-04-11T15:47:13.009Z</time></trkpt><trkpt lat="44.8102767" lon="7.2427067"><ele>469.0</ele><time>2026-04-11T15:47:14.009Z</time></trkpt><trkpt lat="44.8102633" lon="7.2425083"><ele>469.0</ele><time>2026-04-11T15:47:15.009Z</time></trkpt><trkpt lat="44.81025" lon="7.2423233"><ele>469.4</ele><time>2026-04-11T15:47:16.009Z</time></trkpt><trkpt lat="44.8102383" lon="7.2421467"><ele>469.79999999999995</ele><time>2026-04-11T15:47:17.009Z</time></trkpt><trkpt lat="44.8102217" lon="7.24198"><ele>470.20000000000005</ele><time>2026-04-11T15:47:18.009Z</time></trkpt><trkpt lat="44.8102133" lon="7.241825"><ele>470.6</ele><time>2026-04-11T15:47:19.009Z</time></trkpt><trkpt lat="44.8101883" lon="7.241705"><ele>471.0</ele><time>2026-04-11T15:47:20.009Z</time></trkpt><trkpt lat="44.810145" lon="7.24162"><ele>473.1666666666667</ele><time>2026-04-11T15:47:21.009Z</time></trkpt><trkpt lat="44.8100767" lon="7.24158"><ele>475.33333333333337</ele><time>2026-04-11T15:47:22.009Z</time></trkpt><trkpt lat="44.8100033" lon="7.2415983"><ele>477.5</ele><time>2026-04-11T15:47:23.009Z</time></trkpt><trkpt lat="44.80994" lon="7.2416517"><ele>479.6666666666667</ele><time>2026-04-11T15:47:24.009Z</time></trkpt><trkpt lat="44.80989" lon="7.2417467"><ele>481.83333333333337</ele><time>2026-04-11T15:47:25.009Z</time></trkpt><trkpt lat="44.80985" lon="7.2419"><ele>484.0</ele><time>2026-04-11T15:47:26.009Z</time></trkpt><trkpt lat="44.8098133" lon="7.2420833"><ele>484.0</ele><time>2026-04-11T15:47:27.009Z</time></trkpt><trkpt lat="44.8097717" lon="7.2422567"><ele>484.0</ele><time>2026-04-11T15:47:28.009Z</time></trkpt><trkpt lat="44.80974" lon="7.2424333"><ele>484.0</ele><time>2026-04-11T15:47:29.009Z</time></trkpt><trkpt lat="44.80971" lon="7.2425983"><ele>484.0</ele><time>2026-04-11T15:47:30.009Z</time></trkpt><trkpt lat="44.8096767" lon="7.2427417"><ele>483.4</ele><time>2026-04-11T15:47:31.009Z</time></trkpt><trkpt lat="44.80964" lon="7.24288"><ele>482.79999999999995</ele><time>2026-04-11T15:47:32.009Z</time></trkpt><trkpt lat="44.809605" lon="7.2430083"><ele>482.20000000000005</ele><time>2026-04-11T15:47:33.009Z</time></trkpt><trkpt lat="44.8095783" lon="7.2431217"><ele>481.6</ele><time>2026-04-11T15:47:34.009Z</time></trkpt><trkpt lat="44.8095467" lon="7.2432167"><ele>481.0</ele><time>2026-04-11T15:47:35.009Z</time></trkpt><trkpt lat="44.8094417" lon="7.24334"><ele>481.0</ele><time>2026-04-11T15:47:37.009Z</time></trkpt><trkpt lat="44.8093517" lon="7.2433633"><ele>481.0</ele><time>2026-04-11T15:47:38.01Z</time></trkpt><trkpt lat="44.8092467" lon="7.2433467"><ele>481.0</ele><time>2026-04-11T15:47:39.009Z</time></trkpt><trkpt lat="44.80914" lon="7.2433067"><ele>481.0</ele><time>2026-04-11T15:47:40.009Z</time></trkpt><trkpt lat="44.809055" lon="7.2432833"><ele>481.0</ele><time>2026-04-11T15:47:41.009Z</time></trkpt><trkpt lat="44.8089733" lon="7.24327"><ele>483.20000000000005</ele><time>2026-04-11T15:47:42.009Z</time></trkpt><trkpt lat="44.8089067" lon="7.2432467"><ele>485.40000000000003</ele><time>2026-04-11T15:47:43.009Z</time></trkpt><trkpt lat="44.8088483" lon="7.2432133"><ele>487.6</ele><time>2026-04-11T15:47:44.009Z</time></trkpt><trkpt lat="44.8087533" lon="7.243125"><ele>489.8</ele><time>2026-04-11T15:47:46.009Z</time></trkpt><trkpt lat="44.8086717" lon="7.24304"><ele>492.0</ele><time>2026-04-11T15:47:48.009Z</time></trkpt><trkpt lat="44.8085783" lon="7.2429667"><ele>492.0</ele><time>2026-04-11T15:47:50.009Z</time></trkpt><trkpt lat="44.808515" lon="7.2428983"><ele>492.00000000000006</ele><time>2026-04-11T15:47:52.009Z</time></trkpt><trkpt lat="44.8083967" lon="7.242855"><ele>492.00000000000006</ele><time>2026-04-11T15:48:01.009Z</time></trkpt><trkpt lat="44.8082783" lon="7.24284"><ele>492.0</ele><time>2026-04-11T15:48:03.009Z</time></trkpt><trkpt lat="44.8082017" lon="7.24283"><ele>492.0</ele><time>2026-04-11T15:48:04.009Z</time></trkpt><trkpt lat="44.8081167" lon="7.24282"><ele>493.0</ele><time>2026-04-11T15:48:05.009Z</time></trkpt><trkpt lat="44.80803" lon="7.2428083"><ele>494.00000000000006</ele><time>2026-04-11T15:48:06.009Z</time></trkpt><trkpt lat="44.807935" lon="7.2427833"><ele>495.00000000000006</ele><time>2026-04-11T15:48:07.009Z</time></trkpt><trkpt lat="44.807825" lon="7.2427783"><ele>496.0</ele><time>2026-04-11T15:48:08.009Z</time></trkpt><trkpt lat="44.8077083" lon="7.2427767"><ele>497.0</ele><time>2026-04-11T15:48:09.009Z</time></trkpt><trkpt lat="44.8076067" lon="7.242765"><ele>497.8</ele><time>2026-04-11T15:48:10.009Z</time></trkpt><trkpt lat="44.807515" lon="7.2427517"><ele>498.6</ele><time>2026-04-11T15:48:11.01Z</time></trkpt><trkpt lat="44.8074067" lon="7.2427433"><ele>499.40000000000003</ele><time>2026-04-11T15:48:12.009Z</time></trkpt><trkpt lat="44.8072817" lon="7.2427433"><ele>500.20000000000005</ele><time>2026-04-11T15:48:13.009Z</time></trkpt><trkpt lat="44.80716" lon="7.2427367"><ele>501.0</ele><time>2026-04-11T15:48:14.009Z</time></trkpt><trkpt lat="44.8070483" lon="7.2427267"><ele>501.0</ele><time>2026-04-11T15:48:15.009Z</time></trkpt><trkpt lat="44.8069417" lon="7.2427233"><ele>501.0</ele><time>2026-04-11T15:48:16.009Z</time></trkpt><trkpt lat="44.806845" lon="7.2427383"><ele>501.0</ele><time>2026-04-11T15:48:17.009Z</time></trkpt><trkpt lat="44.80674" lon="7.2427767"><ele>501.0</ele><time>2026-04-11T15:48:18.009Z</time></trkpt><trkpt lat="44.806655" lon="7.242855"><ele>501.0</ele><time>2026-04-11T15:48:19.009Z</time></trkpt><trkpt lat="44.8065533" lon="7.24292"><ele>500.8</ele><time>2026-04-11T15:48:20.009Z</time></trkpt><trkpt lat="44.8064617" lon="7.2429667"><ele>500.6</ele><time>2026-04-11T15:48:21.009Z</time></trkpt><trkpt lat="44.8063617" lon="7.24303"><ele>500.4</ele><time>2026-04-11T15:48:22.009Z</time></trkpt><trkpt lat="44.806255" lon="7.2430867"><ele>500.2</ele><time>2026-04-11T15:48:23.009Z</time></trkpt><trkpt lat="44.8061483" lon="7.2431283"><ele>500.0</ele><time>2026-04-11T15:48:24.009Z</time></trkpt><trkpt lat="44.8060433" lon="7.2431433"><ele>501.4</ele><time>2026-04-11T15:48:25.009Z</time></trkpt><trkpt lat="44.8059317" lon="7.2431467"><ele>502.8</ele><time>2026-04-11T15:48:26.009Z</time></trkpt><trkpt lat="44.80582" lon="7.2431333"><ele>504.20000000000005</ele><time>2026-04-11T15:48:27.009Z</time></trkpt><trkpt lat="44.8057083" lon="7.2431083"><ele>505.6</ele><time>2026-04-11T15:48:28.009Z</time></trkpt><trkpt lat="44.8056" lon="7.24308"><ele>507.0</ele><time>2026-04-11T15:48:29.009Z</time></trkpt><trkpt lat="44.8054933" lon="7.2430483"><ele>507.1666666666667</ele><time>2026-04-11T15:48:30.009Z</time></trkpt><trkpt lat="44.8054033" lon="7.2429983"><ele>507.33333333333337</ele><time>2026-04-11T15:48:31.009Z</time></trkpt><trkpt lat="44.8053283" lon="7.2429417"><ele>507.5</ele><time>2026-04-11T15:48:32.009Z</time></trkpt><trkpt lat="44.8052733" lon="7.2428683"><ele>507.6666666666667</ele><time>2026-04-11T15:48:33.009Z</time></trkpt><trkpt lat="44.80523" lon="7.2427967"><ele>507.83333333333337</ele><time>2026-04-11T15:48:34.01Z</time></trkpt><trkpt lat="44.8051883" lon="7.2427067"><ele>508.0</ele><time>2026-04-11T15:48:35.009Z</time></trkpt><trkpt lat="44.80515" lon="7.2426067"><ele>508.0</ele><time>2026-04-11T15:48:36.009Z</time></trkpt><trkpt lat="44.8051083" lon="7.2425067"><ele>507.99999999999994</ele><time>2026-04-11T15:48:37.01Z</time></trkpt><trkpt lat="44.8050633" lon="7.24238"><ele>507.99999999999994</ele><time>2026-04-11T15:48:38.009Z</time></trkpt><trkpt lat="44.8050283" lon="7.2422183"><ele>508.0</ele><time>2026-04-11T15:48:39.009Z</time></trkpt><trkpt lat="44.8049967" lon="7.2420417"><ele>508.0</ele><time>2026-04-11T15:48:40.009Z</time></trkpt><trkpt lat="44.8049517" lon="7.2418633"><ele>512.5</ele><time>2026-04-11T15:48:41.009Z</time></trkpt><trkpt lat="44.8049017" lon="7.2416783"><ele>517.0</ele><time>2026-04-11T15:48:42.009Z</time></trkpt><trkpt lat="44.8048283" lon="7.2415067"><ele>521.5</ele><time>2026-04-11T15:48:43.009Z</time></trkpt><trkpt lat="44.804745" lon="7.2413233"><ele>526.0</ele><time>2026-04-11T15:48:44.009Z</time></trkpt><trkpt lat="44.8046617" lon="7.2411617"><ele>530.25</ele><time>2026-04-11T15:48:45.009Z</time></trkpt><trkpt lat="44.8045717" lon="7.2410133"><ele>534.5</ele><time>2026-04-11T15:48:46.009Z</time></trkpt><trkpt lat="44.8045" lon="7.2408283"><ele>538.75</ele><time>2026-04-11T15:48:47.009Z</time></trkpt><trkpt lat="44.8044467" lon="7.24063"><ele>543.0</ele><time>2026-04-11T15:48:48.009Z</time></trkpt><trkpt lat="44.8043967" lon="7.24045"><ele>545.5</ele><time>2026-04-11T15:48:49.009Z</time></trkpt><trkpt lat="44.80433" lon="7.240275"><ele>548.0</ele><time>2026-04-11T15:48:50.009Z</time></trkpt><trkpt lat="44.804245" lon="7.2401117"><ele>550.5</ele><time>2026-04-11T15:48:51.009Z</time></trkpt><trkpt lat="44.8041367" lon="7.2399583"><ele>553.0</ele><time>2026-04-11T15:48:52.009Z</time></trkpt><trkpt lat="44.804025" lon="7.2398183"><ele>545.25</ele><time>2026-04-11T15:48:53.009Z</time></trkpt><trkpt lat="44.80393" lon="7.2396817"><ele>537.5</ele><time>2026-04-11T15:48:54.009Z</time></trkpt><trkpt lat="44.8038417" lon="7.239535"><ele>529.75</ele><time>2026-04-11T15:48:55.01Z</time></trkpt><trkpt lat="44.8037667" lon="7.2393567"><ele>522.0</ele><time>2026-04-11T15:48:56.009Z</time></trkpt><trkpt lat="44.803705" lon="7.23919"><ele>522.0</ele><time>2026-04-11T15:48:57.009Z</time></trkpt><trkpt lat="44.803645" lon="7.239025"><ele>522.0</ele><time>2026-04-11T15:48:58.009Z</time></trkpt><trkpt lat="44.8036033" lon="7.2388467"><ele>522.0</ele><time>2026-04-11T15:48:59.009Z</time></trkpt><trkpt lat="44.8035833" lon="7.2386483"><ele>522.0</ele><time>2026-04-11T15:49:00.009Z</time></trkpt><trkpt lat="44.8035733" lon="7.23846"><ele>523.6666666666666</ele><time>2026-04-11T15:49:01.01Z</time></trkpt><trkpt lat="44.8035783" lon="7.2382417"><ele>525.3333333333333</ele><time>2026-04-11T15:49:02.009Z</time></trkpt><trkpt lat="44.803595" lon="7.2380133"><ele>527.0</ele><time>2026-04-11T15:49:03.009Z</time></trkpt><trkpt lat="44.80362" lon="7.23779"><ele>527.6666666666666</ele><time>2026-04-11T15:49:04.009Z</time></trkpt><trkpt lat="44.80364" lon="7.2375633"><ele>528.3333333333334</ele><time>2026-04-11T15:49:05.009Z</time></trkpt><trkpt lat="44.80366" lon="7.237335"><ele>529.0</ele><time>2026-04-11T15:49:06.009Z</time></trkpt><trkpt lat="44.8036883" lon="7.2371283"><ele>529.0</ele><time>2026-04-11T15:49:07.009Z</time></trkpt><trkpt lat="44.8037167" lon="7.2369267"><ele>529.0</ele><time>2026-04-11T15:49:08.009Z</time></trkpt><trkpt lat="44.8037433" lon="7.236705"><ele>529.0</ele><time>2026-04-11T15:49:09.009Z</time></trkpt><trkpt lat="44.8037633" lon="7.236485"><ele>532.3333333333334</ele><time>2026-04-11T15:49:10.009Z</time></trkpt><trkpt lat="44.80377" lon="7.236245"><ele>535.6666666666666</ele><time>2026-04-11T15:49:11.01Z</time></trkpt><trkpt lat="44.8037683" lon="7.236"><ele>539.0</ele><time>2026-04-11T15:49:12.009Z</time></trkpt><trkpt lat="44.80376" lon="7.2357483"><ele>543.0</ele><time>2026-04-11T15:49:13.009Z</time></trkpt><trkpt lat="44.80375" lon="7.2354967"><ele>547.0</ele><time>2026-04-11T15:49:14.009Z</time></trkpt><trkpt lat="44.8037533" lon="7.2352567"><ele>551.0</ele><time>2026-04-11T15:49:15.009Z</time></trkpt><trkpt lat="44.8037533" lon="7.23502"><ele>554.3333333333333</ele><time>2026-04-11T15:49:16.009Z</time></trkpt><trkpt lat="44.8037467" lon="7.2347867"><ele>557.6666666666666</ele><time>2026-04-11T15:49:17.009Z</time></trkpt><trkpt lat="44.8037267" lon="7.2345583"><ele>561.0</ele><time>2026-04-11T15:49:18.009Z</time></trkpt><trkpt lat="44.8037017" lon="7.23433"><ele>561.0</ele><time>2026-04-11T15:49:19.009Z</time></trkpt><trkpt lat="44.8036667" lon="7.2340967"><ele>561.0</ele><time>2026-04-11T15:49:20.009Z</time></trkpt><trkpt lat="44.8036283" lon="7.2338533"><ele>561.0</ele><time>2026-04-11T15:49:21.009Z</time></trkpt><trkpt lat="44.803585" lon="7.2336067"><ele>561.6666666666666</ele><time>2026-04-11T15:49:22.009Z</time></trkpt><trkpt lat="44.8035267" lon="7.2333767"><ele>562.3333333333333</ele><time>2026-04-11T15:49:23.009Z</time></trkpt><trkpt lat="44.8034567" lon="7.23313"><ele>563.0</ele><time>2026-04-11T15:49:24.009Z</time></trkpt><trkpt lat="44.8033783" lon="7.2328967"><ele>556.6666666666666</ele><time>2026-04-11T15:49:25.01Z</time></trkpt><trkpt lat="44.8032783" lon="7.232665"><ele>550.3333333333334</ele><time>2026-04-11T15:49:26.009Z</time></trkpt><trkpt lat="44.8031783" lon="7.2324533"><ele>544.0</ele><time>2026-04-11T15:49:27.009Z</time></trkpt><trkpt lat="44.803085" lon="7.2322683"><ele>544.0</ele><time>2026-04-11T15:49:28.009Z</time></trkpt><trkpt lat="44.8029933" lon="7.2320667"><ele>544.0</ele><time>2026-04-11T15:49:29.009Z</time></trkpt><trkpt lat="44.8029017" lon="7.2318717"><ele>544.0</ele><time>2026-04-11T15:49:30.009Z</time></trkpt><trkpt lat="44.8028133" lon="7.2316683"><ele>544.6666666666667</ele><time>2026-04-11T15:49:31.009Z</time></trkpt><trkpt lat="44.8027233" lon="7.2314567"><ele>545.3333333333334</ele><time>2026-04-11T15:49:32.009Z</time></trkpt><trkpt lat="44.802635" lon="7.2312567"><ele>546.0</ele><time>2026-04-11T15:49:33.009Z</time></trkpt><trkpt lat="44.802545" lon="7.231065"><ele>546.0</ele><time>2026-04-11T15:49:34.009Z</time></trkpt><trkpt lat="44.8024567" lon="7.2308783"><ele>546.0</ele><time>2026-04-11T15:49:35.009Z</time></trkpt><trkpt lat="44.802365" lon="7.2307"><ele>546.0</ele><time>2026-04-11T15:49:36.009Z</time></trkpt><trkpt lat="44.8022617" lon="7.2305267"><ele>552.75</ele><time>2026-04-11T15:49:37.01Z</time></trkpt><trkpt lat="44.802155" lon="7.23038"><ele>559.5</ele><time>2026-04-11T15:49:38.009Z</time></trkpt><trkpt lat="44.802055" lon="7.230245"><ele>566.25</ele><time>2026-04-11T15:49:39.009Z</time></trkpt><trkpt lat="44.8019617" lon="7.2301"><ele>573.0</ele><time>2026-04-11T15:49:40.009Z</time></trkpt><trkpt lat="44.8018767" lon="7.22992"><ele>568.3333333333334</ele><time>2026-04-11T15:49:41.009Z</time></trkpt><trkpt lat="44.8018083" lon="7.2297267"><ele>563.6666666666667</ele><time>2026-04-11T15:49:42.009Z</time></trkpt><trkpt lat="44.8017467" lon="7.22951"><ele>559.0</ele><time>2026-04-11T15:49:43.009Z</time></trkpt><trkpt lat="44.8016867" lon="7.2293"><ele>559.0</ele><time>2026-04-11T15:49:44.009Z</time></trkpt><trkpt lat="44.8016283" lon="7.2291067"><ele>559.0</ele><time>2026-04-11T15:49:45.009Z</time></trkpt><trkpt lat="44.8015933" lon="7.228905"><ele>559.0</ele><time>2026-04-11T15:49:46.01Z</time></trkpt><trkpt lat="44.80156" lon="7.2286933"><ele>560.25</ele><time>2026-04-11T15:49:47.009Z</time></trkpt><trkpt lat="44.801505" lon="7.2284933"><ele>561.5</ele><time>2026-04-11T15:49:48.009Z</time></trkpt><trkpt lat="44.8014333" lon="7.2283183"><ele>562.75</ele><time>2026-04-11T15:49:49.009Z</time></trkpt><trkpt lat="44.801345" lon="7.2281633"><ele>564.0</ele><time>2026-04-11T15:49:50.009Z</time></trkpt><trkpt lat="44.80123" lon="7.2280183"><ele>564.0</ele><time>2026-04-11T15:49:51.009Z</time></trkpt><trkpt lat="44.8011417" lon="7.2278817"><ele>564.0</ele><time>2026-04-11T15:49:52.009Z</time></trkpt><trkpt lat="44.8010617" lon="7.2277183"><ele>564.0</ele><time>2026-04-11T15:49:53.009Z</time></trkpt><trkpt lat="44.8010217" lon="7.227535"><ele>564.0</ele><time>2026-04-11T15:49:54.009Z</time></trkpt><trkpt lat="44.800995" lon="7.2273233"><ele>561.6666666666666</ele><time>2026-04-11T15:49:55.009Z</time></trkpt><trkpt lat="44.80098" lon="7.2271083"><ele>559.3333333333333</ele><time>2026-04-11T15:49:56.009Z</time></trkpt><trkpt lat="44.800945" lon="7.2268867"><ele>557.0</ele><time>2026-04-11T15:49:57.009Z</time></trkpt><trkpt lat="44.8008817" lon="7.22669"><ele>557.0</ele><time>2026-04-11T15:49:58.009Z</time></trkpt><trkpt lat="44.800795" lon="7.2265117"><ele>557.0</ele><time>2026-04-11T15:49:59.009Z</time></trkpt><trkpt lat="44.8007117" lon="7.2263317"><ele>557.0</ele><time>2026-04-11T15:50:00.009Z</time></trkpt><trkpt lat="44.8006233" lon="7.2261083"><ele>559.6666666666666</ele><time>2026-04-11T15:50:01.009Z</time></trkpt><trkpt lat="44.80054" lon="7.2259067"><ele>562.3333333333334</ele><time>2026-04-11T15:50:02.009Z</time></trkpt><trkpt lat="44.8004633" lon="7.2257117"><ele>565.0</ele><time>2026-04-11T15:50:03.009Z</time></trkpt><trkpt lat="44.800385" lon="7.22552"><ele>564.6666666666667</ele><time>2026-04-11T15:50:04.009Z</time></trkpt><trkpt lat="44.80029" lon="7.2253317"><ele>564.3333333333334</ele><time>2026-04-11T15:50:05.009Z</time></trkpt><trkpt lat="44.800195" lon="7.2251467"><ele>564.0</ele><time>2026-04-11T15:50:06.009Z</time></trkpt><trkpt lat="44.8000633" lon="7.2249667"><ele>570.0</ele><time>2026-04-11T15:50:07.009Z</time></trkpt><trkpt lat="44.7999167" lon="7.224805"><ele>576.0</ele><time>2026-04-11T15:50:08.009Z</time></trkpt><trkpt lat="44.799785" lon="7.2246467"><ele>582.0</ele><time>2026-04-11T15:50:09.009Z</time></trkpt><trkpt lat="44.7996433" lon="7.2245017"><ele>582.0</ele><time>2026-04-11T15:50:10.009Z</time></trkpt><trkpt lat="44.7995067" lon="7.2243683"><ele>582.0</ele><time>2026-04-11T15:50:11.009Z</time></trkpt><trkpt lat="44.799365" lon="7.2242467"><ele>582.0</ele><time>2026-04-11T15:50:12.009Z</time></trkpt><trkpt lat="44.799215" lon="7.2241333"><ele>577.0</ele><time>2026-04-11T15:50:13.009Z</time></trkpt><trkpt lat="44.79908" lon="7.2240167"><ele>572.0</ele><time>2026-04-11T15:50:14.009Z</time></trkpt><trkpt lat="44.79896" lon="7.2238983"><ele>567.0</ele><time>2026-04-11T15:50:15.009Z</time></trkpt><trkpt lat="44.7988383" lon="7.2237833"><ele>571.75</ele><time>2026-04-11T15:50:16.009Z</time></trkpt><trkpt lat="44.7987267" lon="7.223655"><ele>576.5</ele><time>2026-04-11T15:50:17.009Z</time></trkpt><trkpt lat="44.7986067" lon="7.2235217"><ele>581.25</ele><time>2026-04-11T15:50:18.009Z</time></trkpt><trkpt lat="44.7984917" lon="7.2234233"><ele>586.0</ele><time>2026-04-11T15:50:19.009Z</time></trkpt><trkpt lat="44.798385" lon="7.2233467"><ele>586.0</ele><time>2026-04-11T15:50:20.009Z</time></trkpt><trkpt lat="44.7982667" lon="7.2232817"><ele>586.0</ele><time>2026-04-11T15:50:21.009Z</time></trkpt><trkpt lat="44.7981483" lon="7.2232617"><ele>586.0</ele><time>2026-04-11T15:50:22.009Z</time></trkpt><trkpt lat="44.7980383" lon="7.22323"><ele>586.0</ele><time>2026-04-11T15:50:23.009Z</time></trkpt><trkpt lat="44.7979217" lon="7.2232117"><ele>586.0</ele><time>2026-04-11T15:50:24.009Z</time></trkpt><trkpt lat="44.7978" lon="7.2231833"><ele>586.0</ele><time>2026-04-11T15:50:25.009Z</time></trkpt><trkpt lat="44.7976833" lon="7.2231483"><ele>586.0</ele><time>2026-04-11T15:50:26.009Z</time></trkpt><trkpt lat="44.79757" lon="7.2230617"><ele>586.0</ele><time>2026-04-11T15:50:27.009Z</time></trkpt><trkpt lat="44.79747" lon="7.222975"><ele>589.5</ele><time>2026-04-11T15:50:28.009Z</time></trkpt><trkpt lat="44.797365" lon="7.2228517"><ele>593.0</ele><time>2026-04-11T15:50:29.009Z</time></trkpt><trkpt lat="44.7972617" lon="7.2227083"><ele>596.5</ele><time>2026-04-11T15:50:30.009Z</time></trkpt><trkpt lat="44.79716" lon="7.222565"><ele>600.0</ele><time>2026-04-11T15:50:31.009Z</time></trkpt><trkpt lat="44.797065" lon="7.2224"><ele>596.6666666666666</ele><time>2026-04-11T15:50:32.009Z</time></trkpt><trkpt lat="44.7969767" lon="7.2222317"><ele>593.3333333333333</ele><time>2026-04-11T15:50:33.009Z</time></trkpt><trkpt lat="44.7968867" lon="7.222055"><ele>590.0</ele><time>2026-04-11T15:50:34.009Z</time></trkpt><trkpt lat="44.7967833" lon="7.221885"><ele>590.0</ele><time>2026-04-11T15:50:35.01Z</time></trkpt><trkpt lat="44.7966817" lon="7.2217183"><ele>590.0</ele><time>2026-04-11T15:50:36.009Z</time></trkpt><trkpt lat="44.796575" lon="7.2215367"><ele>590.0</ele><time>2026-04-11T15:50:37.009Z</time></trkpt><trkpt lat="44.7964733" lon="7.2213717"><ele>600.0</ele><time>2026-04-11T15:50:38.009Z</time></trkpt><trkpt lat="44.7963683" lon="7.2212017"><ele>610.0</ele><time>2026-04-11T15:50:39.009Z</time></trkpt><trkpt lat="44.7962717" lon="7.2210217"><ele>620.0</ele><time>2026-04-11T15:50:40.009Z</time></trkpt><trkpt lat="44.7961633" lon="7.2208417"><ele>620.0</ele><time>2026-04-11T15:50:41.009Z</time></trkpt><trkpt lat="44.796065" lon="7.2206683"><ele>620.0</ele><time>2026-04-11T15:50:42.009Z</time></trkpt><trkpt lat="44.7959683" lon="7.2204867"><ele>620.0</ele><time>2026-04-11T15:50:43.009Z</time></trkpt><trkpt lat="44.7958833" lon="7.22031"><ele>622.3333333333333</ele><time>2026-04-11T15:50:44.009Z</time></trkpt><trkpt lat="44.795805" lon="7.2201167"><ele>624.6666666666666</ele><time>2026-04-11T15:50:45.009Z</time></trkpt><trkpt lat="44.7957333" lon="7.219915"><ele>627.0</ele><time>2026-04-11T15:50:46.009Z</time></trkpt><trkpt lat="44.7956567" lon="7.2197117"><ele>627.0</ele><time>2026-04-11T15:50:47.009Z</time></trkpt><trkpt lat="44.7955833" lon="7.21951"><ele>627.0</ele><time>2026-04-11T15:50:48.009Z</time></trkpt><trkpt lat="44.7955017" lon="7.2193233"><ele>627.0</ele><time>2026-04-11T15:50:49.009Z</time></trkpt><trkpt lat="44.79541" lon="7.219135"><ele>621.3333333333334</ele><time>2026-04-11T15:50:50.009Z</time></trkpt><trkpt lat="44.79531" lon="7.21896"><ele>615.6666666666667</ele><time>2026-04-11T15:50:51.009Z</time></trkpt><trkpt lat="44.7952017" lon="7.2187867"><ele>610.0</ele><time>2026-04-11T15:50:52.009Z</time></trkpt><trkpt lat="44.7950917" lon="7.2186367"><ele>610.0</ele><time>2026-04-11T15:50:53.009Z</time></trkpt><trkpt lat="44.79498" lon="7.2185033"><ele>610.0</ele><time>2026-04-11T15:50:54.009Z</time></trkpt><trkpt lat="44.79487" lon="7.2183733"><ele>610.0</ele><time>2026-04-11T15:50:55.009Z</time></trkpt><trkpt lat="44.7947617" lon="7.2182417"><ele>610.0</ele><time>2026-04-11T15:50:56.009Z</time></trkpt><trkpt lat="44.794665" lon="7.2181117"><ele>616.75</ele><time>2026-04-11T15:50:57.009Z</time></trkpt><trkpt lat="44.7945717" lon="7.217975"><ele>623.5</ele><time>2026-04-11T15:50:58.009Z</time></trkpt><trkpt lat="44.794495" lon="7.217825"><ele>630.25</ele><time>2026-04-11T15:50:59.009Z</time></trkpt><trkpt lat="44.7944233" lon="7.2176783"><ele>637.0</ele><time>2026-04-11T15:51:00.009Z</time></trkpt><trkpt lat="44.7943417" lon="7.217545"><ele>634.8000000000001</ele><time>2026-04-11T15:51:01.009Z</time></trkpt><trkpt lat="44.7942683" lon="7.21742"><ele>632.6</ele><time>2026-04-11T15:51:02.009Z</time></trkpt><trkpt lat="44.7942033" lon="7.2172833"><ele>630.4000000000001</ele><time>2026-04-11T15:51:03.009Z</time></trkpt><trkpt lat="44.794145" lon="7.2171717"><ele>628.2</ele><time>2026-04-11T15:51:04.009Z</time></trkpt><trkpt lat="44.7941017" lon="7.2170683"><ele>626.0</ele><time>2026-04-11T15:51:05.009Z</time></trkpt><trkpt lat="44.794065" lon="7.216975"><ele>626.0</ele><time>2026-04-11T15:51:06.009Z</time></trkpt><trkpt lat="44.7940317" lon="7.2168917"><ele>626.0</ele><time>2026-04-11T15:51:07.009Z</time></trkpt><trkpt lat="44.79395" lon="7.2168083"><ele>626.0</ele><time>2026-04-11T15:51:09.009Z</time></trkpt><trkpt lat="44.7938567" lon="7.2168183"><ele>626.0</ele><time>2026-04-11T15:51:11.009Z</time></trkpt><trkpt lat="44.7937683" lon="7.2168467"><ele>626.0</ele><time>2026-04-11T15:51:13.009Z</time></trkpt><trkpt lat="44.793705" lon="7.21686"><ele>626.0</ele><time>2026-04-11T15:51:15.009Z</time></trkpt><trkpt lat="44.7936" lon="7.2168633"><ele>626.0</ele><time>2026-04-11T15:51:24.009Z</time></trkpt><trkpt lat="44.7935483" lon="7.21681"><ele>626.0</ele><time>2026-04-11T15:51:25.009Z</time></trkpt><trkpt lat="44.79348" lon="7.21674"><ele>626.0</ele><time>2026-04-11T15:51:26.009Z</time></trkpt><trkpt lat="44.7934017" lon="7.2166417"><ele>626.0</ele><time>2026-04-11T15:51:27.009Z</time></trkpt><trkpt lat="44.7933167" lon="7.216525"><ele>626.0</ele><time>2026-04-11T15:51:28.009Z</time></trkpt><trkpt lat="44.7932133" lon="7.21638"><ele>621.3333333333333</ele><time>2026-04-11T15:51:29.009Z</time></trkpt><trkpt lat="44.79311" lon="7.21623"><ele>616.6666666666666</ele><time>2026-04-11T15:51:30.009Z</time></trkpt><trkpt lat="44.793" lon="7.2160683"><ele>612.0</ele><time>2026-04-11T15:51:31.01Z</time></trkpt><trkpt lat="44.792885" lon="7.2159083"><ele>612.0</ele><time>2026-04-11T15:51:32.009Z</time></trkpt><trkpt lat="44.792775" lon="7.215725"><ele>612.0</ele><time>2026-04-11T15:51:33.009Z</time></trkpt><trkpt lat="44.79267" lon="7.21552"><ele>612.0</ele><time>2026-04-11T15:51:34.009Z</time></trkpt><trkpt lat="44.792575" lon="7.2153083"><ele>615.6666666666666</ele><time>2026-04-11T15:51:35.009Z</time></trkpt><trkpt lat="44.79249" lon="7.215095"><ele>619.3333333333333</ele><time>2026-04-11T15:51:36.009Z</time></trkpt><trkpt lat="44.7924033" lon="7.2148767"><ele>623.0</ele><time>2026-04-11T15:51:37.01Z</time></trkpt><trkpt lat="44.79233" lon="7.2146433"><ele>623.0</ele><time>2026-04-11T15:51:38.009Z</time></trkpt><trkpt lat="44.7922483" lon="7.2144133"><ele>623.0</ele><time>2026-04-11T15:51:39.009Z</time></trkpt><trkpt lat="44.7921517" lon="7.2142083"><ele>623.0</ele><time>2026-04-11T15:51:40.009Z</time></trkpt><trkpt lat="44.79205" lon="7.2140183"><ele>625.0</ele><time>2026-04-11T15:51:41.009Z</time></trkpt><trkpt lat="44.791955" lon="7.21383"><ele>627.0</ele><time>2026-04-11T15:51:42.009Z</time></trkpt><trkpt lat="44.791875" lon="7.21368"><ele>629.0</ele><time>2026-04-11T15:51:43.009Z</time></trkpt><trkpt lat="44.7917867" lon="7.2135167"><ele>631.0</ele><time>2026-04-11T15:51:44.009Z</time></trkpt><trkpt lat="44.7916767" lon="7.2133683"><ele>631.0</ele><time>2026-04-11T15:51:45.009Z</time></trkpt><trkpt lat="44.7915483" lon="7.2132283"><ele>631.0</ele><time>2026-04-11T15:51:46.009Z</time></trkpt><trkpt lat="44.79142" lon="7.2130733"><ele>631.0</ele><time>2026-04-11T15:51:47.01Z</time></trkpt><trkpt lat="44.7912767" lon="7.2129367"><ele>632.0</ele><time>2026-04-11T15:51:48.009Z</time></trkpt><trkpt lat="44.7911367" lon="7.212815"><ele>633.0</ele><time>2026-04-11T15:51:49.01Z</time></trkpt><trkpt lat="44.790985" lon="7.2127333"><ele>634.0</ele><time>2026-04-11T15:51:50.009Z</time></trkpt><trkpt lat="44.7908217" lon="7.21267"><ele>634.0</ele><time>2026-04-11T15:51:51.01Z</time></trkpt><trkpt lat="44.7906617" lon="7.2126183"><ele>634.0</ele><time>2026-04-11T15:51:52.009Z</time></trkpt><trkpt lat="44.7905083" lon="7.2125683"><ele>634.0</ele><time>2026-04-11T15:51:53.009Z</time></trkpt><trkpt lat="44.7903583" lon="7.2125133"><ele>634.0</ele><time>2026-04-11T15:51:54.009Z</time></trkpt><trkpt lat="44.7902067" lon="7.2124733"><ele>634.0</ele><time>2026-04-11T15:51:55.009Z</time></trkpt><trkpt lat="44.7900583" lon="7.2124633"><ele>634.0</ele><time>2026-04-11T15:51:56.009Z</time></trkpt><trkpt lat="44.7899133" lon="7.2124883"><ele>634.0</ele><time>2026-04-11T15:51:57.009Z</time></trkpt><trkpt lat="44.7897667" lon="7.2125517"><ele>635.0</ele><time>2026-04-11T15:51:58.009Z</time></trkpt><trkpt lat="44.78962" lon="7.2126367"><ele>636.0</ele><time>2026-04-11T15:51:59.009Z</time></trkpt><trkpt lat="44.7894833" lon="7.212725"><ele>637.0</ele><time>2026-04-11T15:52:00.009Z</time></trkpt><trkpt lat="44.78935" lon="7.2127533"><ele>638.0</ele><time>2026-04-11T15:52:01.009Z</time></trkpt><trkpt lat="44.7892283" lon="7.212745"><ele>637.5</ele><time>2026-04-11T15:52:02.009Z</time></trkpt><trkpt lat="44.78911" lon="7.2127117"><ele>637.0</ele><time>2026-04-11T15:52:03.009Z</time></trkpt><trkpt lat="44.7890133" lon="7.2126383"><ele>636.5</ele><time>2026-04-11T15:52:04.009Z</time></trkpt><trkpt lat="44.7889433" lon="7.2124667"><ele>636.0</ele><time>2026-04-11T15:52:05.01Z</time></trkpt><trkpt lat="44.788865" lon="7.2122967"><ele>636.0</ele><time>2026-04-11T15:52:06.009Z</time></trkpt><trkpt lat="44.7887767" lon="7.212135"><ele>636.0</ele><time>2026-04-11T15:52:07.009Z</time></trkpt><trkpt lat="44.7886783" lon="7.2119683"><ele>636.0</ele><time>2026-04-11T15:52:08.009Z</time></trkpt><trkpt lat="44.7886017" lon="7.2118167"><ele>636.0</ele><time>2026-04-11T15:52:09.009Z</time></trkpt><trkpt lat="44.7885383" lon="7.2116867"><ele>636.5</ele><time>2026-04-11T15:52:10.009Z</time></trkpt><trkpt lat="44.7884783" lon="7.211575"><ele>637.0</ele><time>2026-04-11T15:52:11.009Z</time></trkpt><trkpt lat="44.7884283" lon="7.2114883"><ele>637.5</ele><time>2026-04-11T15:52:12.009Z</time></trkpt><trkpt lat="44.78838" lon="7.2114117"><ele>638.0</ele><time>2026-04-11T15:52:13.009Z</time></trkpt><trkpt lat="44.78832" lon="7.2113483"><ele>638.5</ele><time>2026-04-11T15:52:14.009Z</time></trkpt><trkpt lat="44.7882367" lon="7.2112983"><ele>639.0</ele><time>2026-04-11T15:52:15.009Z</time></trkpt><trkpt lat="44.78813" lon="7.2112817"><ele>639.0</ele><time>2026-04-11T15:52:16.009Z</time></trkpt><trkpt lat="44.788015" lon="7.2112983"><ele>639.0</ele><time>2026-04-11T15:52:17.009Z</time></trkpt><trkpt lat="44.7879083" lon="7.2113333"><ele>639.0</ele><time>2026-04-11T15:52:18.009Z</time></trkpt><trkpt lat="44.78781" lon="7.2113683"><ele>639.0</ele><time>2026-04-11T15:52:19.009Z</time></trkpt><trkpt lat="44.78772" lon="7.211415"><ele>639.0</ele><time>2026-04-11T15:52:20.009Z</time></trkpt><trkpt lat="44.7876467" lon="7.21146"><ele>641.6</ele><time>2026-04-11T15:52:21.009Z</time></trkpt><trkpt lat="44.787575" lon="7.21152"><ele>644.2</ele><time>2026-04-11T15:52:22.009Z</time></trkpt><trkpt lat="44.7875017" lon="7.2116"><ele>646.8000000000001</ele><time>2026-04-11T15:52:23.009Z</time></trkpt><trkpt lat="44.787425" lon="7.2117117"><ele>649.4</ele><time>2026-04-11T15:52:24.009Z</time></trkpt><trkpt lat="44.7873517" lon="7.2118233"><ele>652.0</ele><time>2026-04-11T15:52:25.009Z</time></trkpt><trkpt lat="44.7872733" lon="7.2119267"><ele>652.0</ele><time>2026-04-11T15:52:26.009Z</time></trkpt><trkpt lat="44.7871833" lon="7.2120033"><ele>652.0</ele><time>2026-04-11T15:52:27.009Z</time></trkpt><trkpt lat="44.7870783" lon="7.2120467"><ele>652.0</ele><time>2026-04-11T15:52:28.009Z</time></trkpt><trkpt lat="44.786955" lon="7.2120667"><ele>652.0</ele><time>2026-04-11T15:52:29.01Z</time></trkpt><trkpt lat="44.78682" lon="7.2120533"><ele>653.3333333333334</ele><time>2026-04-11T15:52:30.009Z</time></trkpt><trkpt lat="44.7866683" lon="7.21203"><ele>654.6666666666666</ele><time>2026-04-11T15:52:31.009Z</time></trkpt><trkpt lat="44.7865117" lon="7.2119883"><ele>656.0</ele><time>2026-04-11T15:52:32.009Z</time></trkpt><trkpt lat="44.7863533" lon="7.2119317"><ele>656.0</ele><time>2026-04-11T15:52:33.009Z</time></trkpt><trkpt lat="44.7861917" lon="7.211865"><ele>656.0</ele><time>2026-04-11T15:52:34.009Z</time></trkpt><trkpt lat="44.7860383" lon="7.2117867"><ele>656.0</ele><time>2026-04-11T15:52:35.009Z</time></trkpt><trkpt lat="44.7859" lon="7.2116917"><ele>658.3333333333333</ele><time>2026-04-11T15:52:36.009Z</time></trkpt><trkpt lat="44.7857567" lon="7.2115633"><ele>660.6666666666666</ele><time>2026-04-11T15:52:37.009Z</time></trkpt><trkpt lat="44.7856167" lon="7.2114333"><ele>663.0</ele><time>2026-04-11T15:52:38.009Z</time></trkpt><trkpt lat="44.785485" lon="7.2112633"><ele>663.0</ele><time>2026-04-11T15:52:39.009Z</time></trkpt><trkpt lat="44.7853567" lon="7.211075"><ele>663.0</ele><time>2026-04-11T15:52:40.009Z</time></trkpt><trkpt lat="44.7852433" lon="7.21088"><ele>663.0</ele><time>2026-04-11T15:52:41.01Z</time></trkpt><trkpt lat="44.7851317" lon="7.2107217"><ele>664.6666666666666</ele><time>2026-04-11T15:52:42.009Z</time></trkpt><trkpt lat="44.7850133" lon="7.21055"><ele>666.3333333333333</ele><time>2026-04-11T15:52:43.009Z</time></trkpt><trkpt lat="44.78489" lon="7.21039"><ele>668.0</ele><time>2026-04-11T15:52:44.009Z</time></trkpt><trkpt lat="44.7847783" lon="7.2102233"><ele>668.0</ele><time>2026-04-11T15:52:45.009Z</time></trkpt><trkpt lat="44.784655" lon="7.2100483"><ele>668.0</ele><time>2026-04-11T15:52:46.009Z</time></trkpt><trkpt lat="44.7845467" lon="7.2098983"><ele>668.0</ele><time>2026-04-11T15:52:47.009Z</time></trkpt><trkpt lat="44.7844417" lon="7.2097583"><ele>670.0</ele><time>2026-04-11T15:52:48.01Z</time></trkpt><trkpt lat="44.7843483" lon="7.2096283"><ele>672.0</ele><time>2026-04-11T15:52:49.009Z</time></trkpt><trkpt lat="44.7842467" lon="7.2095117"><ele>674.0</ele><time>2026-04-11T15:52:50.009Z</time></trkpt><trkpt lat="44.7841383" lon="7.2094083"><ele>676.0</ele><time>2026-04-11T15:52:51.009Z</time></trkpt><trkpt lat="44.7840183" lon="7.2093217"><ele>676.0</ele><time>2026-04-11T15:52:52.009Z</time></trkpt><trkpt lat="44.783885" lon="7.2092583"><ele>676.0</ele><time>2026-04-11T15:52:53.009Z</time></trkpt><trkpt lat="44.78375" lon="7.2092033"><ele>676.0</ele><time>2026-04-11T15:52:54.009Z</time></trkpt><trkpt lat="44.7835967" lon="7.20914"><ele>676.0</ele><time>2026-04-11T15:52:55.009Z</time></trkpt><trkpt lat="44.783445" lon="7.2090717"><ele>677.75</ele><time>2026-04-11T15:52:56.009Z</time></trkpt><trkpt lat="44.783315" lon="7.2090133"><ele>679.5</ele><time>2026-04-11T15:52:57.009Z</time></trkpt><trkpt lat="44.783205" lon="7.20894"><ele>681.25</ele><time>2026-04-11T15:52:58.009Z</time></trkpt><trkpt lat="44.7831033" lon="7.2088517"><ele>683.0</ele><time>2026-04-11T15:52:59.01Z</time></trkpt><trkpt lat="44.7830117" lon="7.2087383"><ele>683.0</ele><time>2026-04-11T15:53:00.009Z</time></trkpt><trkpt lat="44.7829433" lon="7.2085983"><ele>683.0</ele><time>2026-04-11T15:53:01.009Z</time></trkpt><trkpt lat="44.7828683" lon="7.2084683"><ele>683.0</ele><time>2026-04-11T15:53:02.01Z</time></trkpt><trkpt lat="44.7827867" lon="7.208315"><ele>683.0</ele><time>2026-04-11T15:53:03.01Z</time></trkpt><trkpt lat="44.7827033" lon="7.208155"><ele>683.25</ele><time>2026-04-11T15:53:04.01Z</time></trkpt><trkpt lat="44.78262" lon="7.2080117"><ele>683.5</ele><time>2026-04-11T15:53:05.01Z</time></trkpt><trkpt lat="44.7825417" lon="7.2078717"><ele>683.75</ele><time>2026-04-11T15:53:06.01Z</time></trkpt><trkpt lat="44.78246" lon="7.2077283"><ele>684.0</ele><time>2026-04-11T15:53:07.01Z</time></trkpt><trkpt lat="44.782365" lon="7.2075967"><ele>684.0</ele><time>2026-04-11T15:53:08.01Z</time></trkpt><trkpt lat="44.7822683" lon="7.2074733"><ele>684.0</ele><time>2026-04-11T15:53:09.01Z</time></trkpt><trkpt lat="44.7821517" lon="7.20738"><ele>684.0</ele><time>2026-04-11T15:53:10.011Z</time></trkpt><trkpt lat="44.7820183" lon="7.2073267"><ele>684.0</ele><time>2026-04-11T15:53:11.011Z</time></trkpt><trkpt lat="44.7818683" lon="7.2072867"><ele>686.0</ele><time>2026-04-11T15:53:12.01Z</time></trkpt><trkpt lat="44.7817217" lon="7.207265"><ele>688.0</ele><time>2026-04-11T15:53:13.01Z</time></trkpt><trkpt lat="44.7815683" lon="7.20725"><ele>690.0</ele><time>2026-04-11T15:53:14.01Z</time></trkpt><trkpt lat="44.78141" lon="7.20723"><ele>690.0</ele><time>2026-04-11T15:53:15.01Z</time></trkpt><trkpt lat="44.7812567" lon="7.207195"><ele>690.0</ele><time>2026-04-11T15:53:16.01Z</time></trkpt><trkpt lat="44.7811" lon="7.207165"><ele>690.0</ele><time>2026-04-11T15:53:17.01Z</time></trkpt><trkpt lat="44.7809467" lon="7.2071433"><ele>691.25</ele><time>2026-04-11T15:53:18.01Z</time></trkpt><trkpt lat="44.7808" lon="7.207115"><ele>692.5</ele><time>2026-04-11T15:53:19.01Z</time></trkpt><trkpt lat="44.7806517" lon="7.2070817"><ele>693.75</ele><time>2026-04-11T15:53:20.01Z</time></trkpt><trkpt lat="44.7805067" lon="7.2070517"><ele>695.0</ele><time>2026-04-11T15:53:21.01Z</time></trkpt><trkpt lat="44.7803533" lon="7.20703"><ele>695.0</ele><time>2026-04-11T15:53:22.01Z</time></trkpt><trkpt lat="44.7802017" lon="7.207005"><ele>695.0</ele><time>2026-04-11T15:53:23.01Z</time></trkpt><trkpt lat="44.7800517" lon="7.2069817"><ele>695.0</ele><time>2026-04-11T15:53:24.01Z</time></trkpt><trkpt lat="44.779905" lon="7.2069533"><ele>697.0</ele><time>2026-04-11T15:53:25.01Z</time></trkpt><trkpt lat="44.7797633" lon="7.2069217"><ele>699.0</ele><time>2026-04-11T15:53:26.01Z</time></trkpt><trkpt lat="44.7796367" lon="7.2068967"><ele>701.0</ele><time>2026-04-11T15:53:27.01Z</time></trkpt><trkpt lat="44.779515" lon="7.2068833"><ele>703.0</ele><time>2026-04-11T15:53:28.01Z</time></trkpt><trkpt lat="44.7794017" lon="7.2068967"><ele>705.25</ele><time>2026-04-11T15:53:29.01Z</time></trkpt><trkpt lat="44.7792833" lon="7.2069433"><ele>707.5</ele><time>2026-04-11T15:53:30.01Z</time></trkpt><trkpt lat="44.7791683" lon="7.20701"><ele>709.75</ele><time>2026-04-11T15:53:31.01Z</time></trkpt><trkpt lat="44.7790567" lon="7.2070967"><ele>712.0</ele><time>2026-04-11T15:53:32.01Z</time></trkpt><trkpt lat="44.77894" lon="7.2071933"><ele>712.0</ele><time>2026-04-11T15:53:33.011Z</time></trkpt><trkpt lat="44.7788183" lon="7.2072967"><ele>712.0</ele><time>2026-04-11T15:53:34.01Z</time></trkpt><trkpt lat="44.7787033" lon="7.207405"><ele>712.0</ele><time>2026-04-11T15:53:35.01Z</time></trkpt><trkpt lat="44.7785933" lon="7.2074983"><ele>712.0</ele><time>2026-04-11T15:53:36.011Z</time></trkpt><trkpt lat="44.7784833" lon="7.2075917"><ele>713.25</ele><time>2026-04-11T15:53:37.01Z</time></trkpt><trkpt lat="44.77836" lon="7.2076717"><ele>714.5</ele><time>2026-04-11T15:53:38.01Z</time></trkpt><trkpt lat="44.7782417" lon="7.20774"><ele>715.75</ele><time>2026-04-11T15:53:39.01Z</time></trkpt><trkpt lat="44.7781233" lon="7.2077917"><ele>717.0</ele><time>2026-04-11T15:53:40.01Z</time></trkpt><trkpt lat="44.7779917" lon="7.2078217"><ele>717.0</ele><time>2026-04-11T15:53:41.01Z</time></trkpt><trkpt lat="44.77785" lon="7.2078167"><ele>717.0</ele><time>2026-04-11T15:53:42.01Z</time></trkpt><trkpt lat="44.7777117" lon="7.2077917"><ele>717.0</ele><time>2026-04-11T15:53:43.01Z</time></trkpt><trkpt lat="44.7775833" lon="7.207755"><ele>717.0</ele><time>2026-04-11T15:53:44.01Z</time></trkpt><trkpt lat="44.7774467" lon="7.2077117"><ele>719.75</ele><time>2026-04-11T15:53:45.011Z</time></trkpt><trkpt lat="44.77732" lon="7.20767"><ele>722.5</ele><time>2026-04-11T15:53:46.011Z</time></trkpt><trkpt lat="44.7771983" lon="7.2076183"><ele>725.25</ele><time>2026-04-11T15:53:47.01Z</time></trkpt><trkpt lat="44.7770767" lon="7.2075717"><ele>728.0</ele><time>2026-04-11T15:53:48.01Z</time></trkpt><trkpt lat="44.776955" lon="7.2075133"><ele>729.25</ele><time>2026-04-11T15:53:49.011Z</time></trkpt><trkpt lat="44.7768417" lon="7.20745"><ele>730.5</ele><time>2026-04-11T15:53:50.01Z</time></trkpt><trkpt lat="44.77672" lon="7.2073733"><ele>731.75</ele><time>2026-04-11T15:53:51.01Z</time></trkpt><trkpt lat="44.7765983" lon="7.2072717"><ele>733.0</ele><time>2026-04-11T15:53:52.01Z</time></trkpt><trkpt lat="44.77648" lon="7.207155"><ele>733.0</ele><time>2026-04-11T15:53:53.011Z</time></trkpt><trkpt lat="44.7763667" lon="7.20703"><ele>733.0</ele><time>2026-04-11T15:53:54.01Z</time></trkpt><trkpt lat="44.7762683" lon="7.2069133"><ele>733.0</ele><time>2026-04-11T15:53:55.01Z</time></trkpt><trkpt lat="44.7761867" lon="7.20681"><ele>733.0</ele><time>2026-04-11T15:53:56.01Z</time></trkpt><trkpt lat="44.77612" lon="7.2067217"><ele>733.0</ele><time>2026-04-11T15:53:57.01Z</time></trkpt><trkpt lat="44.7760617" lon="7.2066483"><ele>733.0</ele><time>2026-04-11T15:53:58.01Z</time></trkpt><trkpt lat="44.7760017" lon="7.2065867"><ele>733.0</ele><time>2026-04-11T15:53:59.01Z</time></trkpt><trkpt lat="44.77594" lon="7.2065283"><ele>733.0</ele><time>2026-04-11T15:54:00.01Z</time></trkpt><trkpt lat="44.7758767" lon="7.2064667"><ele>733.0</ele><time>2026-04-11T15:54:01.01Z</time></trkpt><trkpt lat="44.7758167" lon="7.206415"><ele>733.0</ele><time>2026-04-11T15:54:02.01Z</time></trkpt><trkpt lat="44.7757217" lon="7.206335"><ele>734.0</ele><time>2026-04-11T15:54:04.01Z</time></trkpt><trkpt lat="44.7756533" lon="7.2063267"><ele>735.0</ele><time>2026-04-11T15:54:06.01Z</time></trkpt><trkpt lat="44.7756267" lon="7.2064133"><ele>736.0</ele><time>2026-04-11T15:54:09.01Z</time></trkpt><trkpt lat="44.775675" lon="7.2065017"><ele>737.0</ele><time>2026-04-11T15:54:26.01Z</time></trkpt><trkpt lat="44.7757383" lon="7.2066533"><ele>738.0</ele><time>2026-04-11T15:54:28.01Z</time></trkpt><trkpt lat="44.7757767" lon="7.2067433"><ele>739.0</ele><time>2026-04-11T15:54:29.01Z</time></trkpt><trkpt lat="44.77583" lon="7.2068633"><ele>739.25</ele><time>2026-04-11T15:54:30.01Z</time></trkpt><trkpt lat="44.7758917" lon="7.2070267"><ele>739.5</ele><time>2026-04-11T15:54:31.01Z</time></trkpt><trkpt lat="44.775975" lon="7.2072233"><ele>739.75</ele><time>2026-04-11T15:54:32.01Z</time></trkpt><trkpt lat="44.7760483" lon="7.2074117"><ele>740.0</ele><time>2026-04-11T15:54:33.011Z</time></trkpt><trkpt lat="44.7761167" lon="7.207585"><ele>740.0</ele><time>2026-04-11T15:54:34.01Z</time></trkpt><trkpt lat="44.7761883" lon="7.2077383"><ele>740.0</ele><time>2026-04-11T15:54:35.01Z</time></trkpt><trkpt lat="44.7762617" lon="7.2078783"><ele>740.0</ele><time>2026-04-11T15:54:36.01Z</time></trkpt><trkpt lat="44.77634" lon="7.2080183"><ele>740.0</ele><time>2026-04-11T15:54:37.01Z</time></trkpt><trkpt lat="44.7764267" lon="7.2081467"><ele>747.25</ele><time>2026-04-11T15:54:38.01Z</time></trkpt><trkpt lat="44.7765217" lon="7.2082483"><ele>754.5</ele><time>2026-04-11T15:54:39.01Z</time></trkpt><trkpt lat="44.776605" lon="7.2083433"><ele>761.75</ele><time>2026-04-11T15:54:40.01Z</time></trkpt><trkpt lat="44.7766967" lon="7.2084333"><ele>769.0</ele><time>2026-04-11T15:54:41.01Z</time></trkpt><trkpt lat="44.776795" lon="7.2085333"><ele>765.75</ele><time>2026-04-11T15:54:42.01Z</time></trkpt><trkpt lat="44.77689" lon="7.20864"><ele>762.5</ele><time>2026-04-11T15:54:43.01Z</time></trkpt><trkpt lat="44.776985" lon="7.2087367"><ele>759.25</ele><time>2026-04-11T15:54:44.01Z</time></trkpt><trkpt lat="44.777075" lon="7.208825"><ele>756.0</ele><time>2026-04-11T15:54:45.01Z</time></trkpt><trkpt lat="44.7771733" lon="7.2089167"><ele>764.25</ele><time>2026-04-11T15:54:46.01Z</time></trkpt><trkpt lat="44.7772733" lon="7.2090017"><ele>772.5</ele><time>2026-04-11T15:54:47.01Z</time></trkpt><trkpt lat="44.7773833" lon="7.2091"><ele>780.75</ele><time>2026-04-11T15:54:48.01Z</time></trkpt><trkpt lat="44.7774867" lon="7.2091867"><ele>789.0</ele><time>2026-04-11T15:54:49.01Z</time></trkpt><trkpt lat="44.7775967" lon="7.209255"><ele>788.4000000000001</ele><time>2026-04-11T15:54:50.01Z</time></trkpt><trkpt lat="44.7777083" lon="7.2093117"><ele>787.8</ele><time>2026-04-11T15:54:51.01Z</time></trkpt><trkpt lat="44.7778067" lon="7.2093267"><ele>787.2</ele><time>2026-04-11T15:54:52.01Z</time></trkpt><trkpt lat="44.7778917" lon="7.209325"><ele>786.5999999999999</ele><time>2026-04-11T15:54:53.01Z</time></trkpt><trkpt lat="44.77797" lon="7.2093217"><ele>786.0</ele><time>2026-04-11T15:54:54.01Z</time></trkpt><trkpt lat="44.77804" lon="7.2093267"><ele>786.0</ele><time>2026-04-11T15:54:55.01Z</time></trkpt><trkpt lat="44.778115" lon="7.2093517"><ele>786.0</ele><time>2026-04-11T15:54:56.01Z</time></trkpt><trkpt lat="44.7781967" lon="7.2093933"><ele>786.0</ele><time>2026-04-11T15:54:57.01Z</time></trkpt><trkpt lat="44.778275" lon="7.2094433"><ele>786.0</ele><time>2026-04-11T15:54:58.01Z</time></trkpt><trkpt lat="44.778365" lon="7.2094967"><ele>786.0</ele><time>2026-04-11T15:54:59.01Z</time></trkpt><trkpt lat="44.77846" lon="7.2095533"><ele>784.5</ele><time>2026-04-11T15:55:00.01Z</time></trkpt><trkpt lat="44.7785617" lon="7.20961"><ele>783.0</ele><time>2026-04-11T15:55:01.01Z</time></trkpt><trkpt lat="44.778665" lon="7.2096533"><ele>781.5</ele><time>2026-04-11T15:55:02.01Z</time></trkpt><trkpt lat="44.77878" lon="7.2096833"><ele>780.0</ele><time>2026-04-11T15:55:03.01Z</time></trkpt><trkpt lat="44.7788933" lon="7.209715"><ele>780.0</ele><time>2026-04-11T15:55:04.01Z</time></trkpt><trkpt lat="44.7790067" lon="7.2097483"><ele>780.0</ele><time>2026-04-11T15:55:05.01Z</time></trkpt><trkpt lat="44.779135" lon="7.2097867"><ele>780.0</ele><time>2026-04-11T15:55:06.01Z</time></trkpt><trkpt lat="44.77926" lon="7.2098283"><ele>780.0</ele><time>2026-04-11T15:55:07.01Z</time></trkpt><trkpt lat="44.779375" lon="7.2098833"><ele>785.8</ele><time>2026-04-11T15:55:08.01Z</time></trkpt><trkpt lat="44.7794733" lon="7.2099267"><ele>791.6</ele><time>2026-04-11T15:55:09.01Z</time></trkpt><trkpt lat="44.7795483" lon="7.2099783"><ele>797.4000000000001</ele><time>2026-04-11T15:55:10.01Z</time></trkpt><trkpt lat="44.7796333" lon="7.210065"><ele>803.2</ele><time>2026-04-11T15:55:11.01Z</time></trkpt><trkpt lat="44.7797267" lon="7.2101567"><ele>809.0</ele><time>2026-04-11T15:55:12.01Z</time></trkpt><trkpt lat="44.77982" lon="7.210265"><ele>809.0</ele><time>2026-04-11T15:55:13.01Z</time></trkpt><trkpt lat="44.77989" lon="7.2103717"><ele>809.0</ele><time>2026-04-11T15:55:14.01Z</time></trkpt><trkpt lat="44.7799583" lon="7.2104767"><ele>809.0</ele><time>2026-04-11T15:55:15.01Z</time></trkpt><trkpt lat="44.7800183" lon="7.21058"><ele>809.0</ele><time>2026-04-11T15:55:16.011Z</time></trkpt><trkpt lat="44.7800767" lon="7.2106683"><ele>809.0</ele><time>2026-04-11T15:55:17.01Z</time></trkpt><trkpt lat="44.7801533" lon="7.210745"><ele>812.5</ele><time>2026-04-11T15:55:18.01Z</time></trkpt><trkpt lat="44.780245" lon="7.2108033"><ele>816.0</ele><time>2026-04-11T15:55:19.01Z</time></trkpt><trkpt lat="44.7803567" lon="7.21085"><ele>819.5</ele><time>2026-04-11T15:55:20.01Z</time></trkpt><trkpt lat="44.7804783" lon="7.2108833"><ele>823.0</ele><time>2026-04-11T15:55:21.01Z</time></trkpt><trkpt lat="44.7805883" lon="7.210895"><ele>823.0</ele><time>2026-04-11T15:55:22.01Z</time></trkpt><trkpt lat="44.7806917" lon="7.21092"><ele>823.0</ele><time>2026-04-11T15:55:23.01Z</time></trkpt><trkpt lat="44.7807783" lon="7.210955"><ele>823.0</ele><time>2026-04-11T15:55:24.01Z</time></trkpt><trkpt lat="44.780865" lon="7.211025"><ele>823.0</ele><time>2026-04-11T15:55:25.01Z</time></trkpt><trkpt lat="44.780965" lon="7.2111083"><ele>823.0</ele><time>2026-04-11T15:55:26.01Z</time></trkpt><trkpt lat="44.78106" lon="7.2111883"><ele>822.4</ele><time>2026-04-11T15:55:27.01Z</time></trkpt><trkpt lat="44.7811533" lon="7.2112433"><ele>821.8</ele><time>2026-04-11T15:55:28.011Z</time></trkpt><trkpt lat="44.7812383" lon="7.2112767"><ele>821.2</ele><time>2026-04-11T15:55:29.01Z</time></trkpt><trkpt lat="44.7813183" lon="7.2113133"><ele>820.6</ele><time>2026-04-11T15:55:30.01Z</time></trkpt><trkpt lat="44.7813967" lon="7.21135"><ele>820.0</ele><time>2026-04-11T15:55:31.01Z</time></trkpt><trkpt lat="44.78149" lon="7.211405"><ele>820.0</ele><time>2026-04-11T15:55:32.01Z</time></trkpt><trkpt lat="44.7815833" lon="7.2114583"><ele>820.0</ele><time>2026-04-11T15:55:33.01Z</time></trkpt><trkpt lat="44.7816833" lon="7.2115267"><ele>820.0</ele><time>2026-04-11T15:55:34.01Z</time></trkpt><trkpt lat="44.781765" lon="7.211575"><ele>820.0</ele><time>2026-04-11T15:55:35.01Z</time></trkpt><trkpt lat="44.781845" lon="7.21161"><ele>820.0</ele><time>2026-04-11T15:55:36.01Z</time></trkpt><trkpt lat="44.78194" lon="7.2116583"><ele>819.9999999999999</ele><time>2026-04-11T15:55:38.01Z</time></trkpt><trkpt lat="44.781975" lon="7.2117333"><ele>820.0</ele><time>2026-04-11T15:55:40.011Z</time></trkpt><trkpt lat="44.78192" lon="7.211825"><ele>820.0</ele><time>2026-04-11T15:55:42.01Z</time></trkpt><trkpt lat="44.7818033" lon="7.2118933"><ele>820.0</ele><time>2026-04-11T15:55:44.01Z</time></trkpt><trkpt lat="44.781725" lon="7.2119083"><ele>819.9999999999999</ele><time>2026-04-11T15:55:45.01Z</time></trkpt><trkpt lat="44.7816517" lon="7.2119167"><ele>820.0</ele><time>2026-04-11T15:55:46.01Z</time></trkpt><trkpt lat="44.7815717" lon="7.2119183"><ele>823.1666666666666</ele><time>2026-04-11T15:55:47.01Z</time></trkpt><trkpt lat="44.7814917" lon="7.2119367"><ele>826.3333333333333</ele><time>2026-04-11T15:55:48.01Z</time></trkpt><trkpt lat="44.78141" lon="7.2119583"><ele>829.5</ele><time>2026-04-11T15:55:49.01Z</time></trkpt><trkpt lat="44.78133" lon="7.2119983"><ele>832.6666666666667</ele><time>2026-04-11T15:55:50.01Z</time></trkpt><trkpt lat="44.7812517" lon="7.2120517"><ele>835.8333333333334</ele><time>2026-04-11T15:55:51.01Z</time></trkpt><trkpt lat="44.7811817" lon="7.212105"><ele>839.0</ele><time>2026-04-11T15:55:52.01Z</time></trkpt><trkpt lat="44.7811117" lon="7.2121417"><ele>839.0</ele><time>2026-04-11T15:55:53.01Z</time></trkpt><trkpt lat="44.7810183" lon="7.212155"><ele>839.0</ele><time>2026-04-11T15:55:54.01Z</time></trkpt><trkpt lat="44.7809317" lon="7.2121433"><ele>839.0</ele><time>2026-04-11T15:55:55.01Z</time></trkpt><trkpt lat="44.7808317" lon="7.2121283"><ele>839.0</ele><time>2026-04-11T15:55:56.01Z</time></trkpt><trkpt lat="44.7807317" lon="7.2121167"><ele>839.0</ele><time>2026-04-11T15:55:57.01Z</time></trkpt><trkpt lat="44.7806267" lon="7.2121133"><ele>840.25</ele><time>2026-04-11T15:55:58.01Z</time></trkpt><trkpt lat="44.780515" lon="7.2120967"><ele>841.5</ele><time>2026-04-11T15:55:59.01Z</time></trkpt><trkpt lat="44.7803867" lon="7.2120817"><ele>842.75</ele><time>2026-04-11T15:56:00.01Z</time></trkpt><trkpt lat="44.7802517" lon="7.2120533"><ele>844.0</ele><time>2026-04-11T15:56:01.01Z</time></trkpt><trkpt lat="44.7801283" lon="7.2120183"><ele>847.4000000000001</ele><time>2026-04-11T15:56:02.01Z</time></trkpt><trkpt lat="44.780015" lon="7.2119867"><ele>850.8</ele><time>2026-04-11T15:56:03.01Z</time></trkpt><trkpt lat="44.7799183" lon="7.211925"><ele>854.1999999999999</ele><time>2026-04-11T15:56:04.01Z</time></trkpt><trkpt lat="44.779825" lon="7.211915"><ele>857.5999999999999</ele><time>2026-04-11T15:56:05.01Z</time></trkpt><trkpt lat="44.779735" lon="7.2119383"><ele>861.0</ele><time>2026-04-11T15:56:06.011Z</time></trkpt><trkpt lat="44.7796417" lon="7.211965"><ele>861.0</ele><time>2026-04-11T15:56:07.01Z</time></trkpt><trkpt lat="44.7795567" lon="7.2119933"><ele>861.0</ele><time>2026-04-11T15:56:08.01Z</time></trkpt><trkpt lat="44.779475" lon="7.2119933"><ele>861.0</ele><time>2026-04-11T15:56:09.01Z</time></trkpt><trkpt lat="44.779395" lon="7.21196"><ele>861.0</ele><time>2026-04-11T15:56:10.011Z</time></trkpt><trkpt lat="44.7793133" lon="7.2119133"><ele>861.0</ele><time>2026-04-11T15:56:11.01Z</time></trkpt><trkpt lat="44.779215" lon="7.2118833"><ele>861.0</ele><time>2026-04-11T15:56:12.01Z</time></trkpt><trkpt lat="44.7791067" lon="7.2118567"><ele>864.5</ele><time>2026-04-11T15:56:13.01Z</time></trkpt><trkpt lat="44.7789867" lon="7.21185"><ele>868.0</ele><time>2026-04-11T15:56:14.01Z</time></trkpt><trkpt lat="44.7788667" lon="7.2118517"><ele>871.5</ele><time>2026-04-11T15:56:15.01Z</time></trkpt><trkpt lat="44.77874" lon="7.2118617"><ele>875.0</ele><time>2026-04-11T15:56:16.01Z</time></trkpt><trkpt lat="44.778615" lon="7.2118717"><ele>876.6</ele><time>2026-04-11T15:56:17.01Z</time></trkpt><trkpt lat="44.778495" lon="7.2118783"><ele>878.2</ele><time>2026-04-11T15:56:18.01Z</time></trkpt><trkpt lat="44.7783833" lon="7.2118833"><ele>879.8</ele><time>2026-04-11T15:56:19.01Z</time></trkpt><trkpt lat="44.77827" lon="7.211875"><ele>881.4</ele><time>2026-04-11T15:56:20.01Z</time></trkpt><trkpt lat="44.7781767" lon="7.21187"><ele>883.0</ele><time>2026-04-11T15:56:21.01Z</time></trkpt><trkpt lat="44.77811" lon="7.21186"><ele>882.9999999999999</ele><time>2026-04-11T15:56:22.01Z</time></trkpt><trkpt lat="44.7780367" lon="7.2118817"><ele>883.0</ele><time>2026-04-11T15:56:24.01Z</time></trkpt><trkpt lat="44.778085" lon="7.2119933"><ele>883.0</ele><time>2026-04-11T15:56:27.01Z</time></trkpt><trkpt lat="44.7781717" lon="7.2120783"><ele>883.0</ele><time>2026-04-11T15:56:29.01Z</time></trkpt><trkpt lat="44.7782267" lon="7.2121317"><ele>882.9999999999999</ele><time>2026-04-11T15:56:30.01Z</time></trkpt><trkpt lat="44.7782983" lon="7.2121833"><ele>883.0</ele><time>2026-04-11T15:56:31.01Z</time></trkpt><trkpt lat="44.7783767" lon="7.21225"><ele>887.0</ele><time>2026-04-11T15:56:32.01Z</time></trkpt><trkpt lat="44.77845" lon="7.212325"><ele>891.0</ele><time>2026-04-11T15:56:33.01Z</time></trkpt><trkpt lat="44.7785233" lon="7.212415"><ele>895.0</ele><time>2026-04-11T15:56:34.01Z</time></trkpt><trkpt lat="44.7786083" lon="7.21251"><ele>899.0</ele><time>2026-04-11T15:56:35.01Z</time></trkpt><trkpt lat="44.7786917" lon="7.2126017"><ele>903.0</ele><time>2026-04-11T15:56:36.01Z</time></trkpt><trkpt lat="44.77877" lon="7.2126967"><ele>903.0</ele><time>2026-04-11T15:56:37.01Z</time></trkpt><trkpt lat="44.778865" lon="7.212795"><ele>903.0</ele><time>2026-04-11T15:56:38.01Z</time></trkpt><trkpt lat="44.7789533" lon="7.21289"><ele>903.0</ele><time>2026-04-11T15:56:39.011Z</time></trkpt><trkpt lat="44.7790417" lon="7.2129967"><ele>903.0</ele><time>2026-04-11T15:56:40.01Z</time></trkpt><trkpt lat="44.779135" lon="7.2131083"><ele>905.0</ele><time>2026-04-11T15:56:41.01Z</time></trkpt><trkpt lat="44.7792167" lon="7.21322"><ele>907.0</ele><time>2026-04-11T15:56:42.01Z</time></trkpt><trkpt lat="44.779315" lon="7.2133417"><ele>909.0</ele><time>2026-04-11T15:56:43.011Z</time></trkpt><trkpt lat="44.7794" lon="7.21348"><ele>911.0</ele><time>2026-04-11T15:56:44.01Z</time></trkpt><trkpt lat="44.7794767" lon="7.2136133"><ele>911.0</ele><time>2026-04-11T15:56:45.011Z</time></trkpt><trkpt lat="44.779565" lon="7.213735"><ele>911.0</ele><time>2026-04-11T15:56:46.01Z</time></trkpt><trkpt lat="44.7796333" lon="7.21386"><ele>911.0</ele><time>2026-04-11T15:56:47.01Z</time></trkpt><trkpt lat="44.7796967" lon="7.2139867"><ele>911.0</ele><time>2026-04-11T15:56:48.011Z</time></trkpt><trkpt lat="44.779755" lon="7.214115"><ele>915.25</ele><time>2026-04-11T15:56:49.01Z</time></trkpt><trkpt lat="44.7798033" lon="7.2142567"><ele>919.5</ele><time>2026-04-11T15:56:50.01Z</time></trkpt><trkpt lat="44.7798517" lon="7.2144033"><ele>923.75</ele><time>2026-04-11T15:56:51.01Z</time></trkpt><trkpt lat="44.7798883" lon="7.2145667"><ele>928.0</ele><time>2026-04-11T15:56:52.011Z</time></trkpt><trkpt lat="44.7799267" lon="7.214735"><ele>933.5</ele><time>2026-04-11T15:56:53.01Z</time></trkpt><trkpt lat="44.779955" lon="7.2149017"><ele>939.0</ele><time>2026-04-11T15:56:54.01Z</time></trkpt><trkpt lat="44.7799917" lon="7.2150617"><ele>944.5</ele><time>2026-04-11T15:56:55.01Z</time></trkpt><trkpt lat="44.7800417" lon="7.215215"><ele>950.0</ele><time>2026-04-11T15:56:56.01Z</time></trkpt><trkpt lat="44.780095" lon="7.2153617"><ele>950.0</ele><time>2026-04-11T15:56:57.01Z</time></trkpt><trkpt lat="44.780155" lon="7.2155083"><ele>950.0</ele><time>2026-04-11T15:56:58.011Z</time></trkpt><trkpt lat="44.7802167" lon="7.21565"><ele>950.0</ele><time>2026-04-11T15:56:59.01Z</time></trkpt><trkpt lat="44.780275" lon="7.2157883"><ele>950.0</ele><time>2026-04-11T15:57:00.01Z</time></trkpt><trkpt lat="44.7803267" lon="7.2159217"><ele>949.8</ele><time>2026-04-11T15:57:01.01Z</time></trkpt><trkpt lat="44.7803767" lon="7.2160517"><ele>949.6</ele><time>2026-04-11T15:57:02.01Z</time></trkpt><trkpt lat="44.780435" lon="7.216175"><ele>949.4000000000001</ele><time>2026-04-11T15:57:03.01Z</time></trkpt><trkpt lat="44.7805067" lon="7.2162933"><ele>949.2</ele><time>2026-04-11T15:57:04.01Z</time></trkpt><trkpt lat="44.7805867" lon="7.2164017"><ele>949.0</ele><time>2026-04-11T15:57:05.01Z</time></trkpt><trkpt lat="44.7806733" lon="7.216505"><ele>954.0</ele><time>2026-04-11T15:57:06.01Z</time></trkpt><trkpt lat="44.7807583" lon="7.216615"><ele>959.0000000000001</ele><time>2026-04-11T15:57:07.01Z</time></trkpt><trkpt lat="44.7808483" lon="7.2167167"><ele>964.0000000000001</ele><time>2026-04-11T15:57:08.01Z</time></trkpt><trkpt lat="44.7809417" lon="7.216795"><ele>969.0</ele><time>2026-04-11T15:57:09.01Z</time></trkpt><trkpt lat="44.7810317" lon="7.21687"><ele>974.0</ele><time>2026-04-11T15:57:10.01Z</time></trkpt><trkpt lat="44.7811267" lon="7.2169233"><ele>974.0</ele><time>2026-04-11T15:57:11.011Z</time></trkpt><trkpt lat="44.781225" lon="7.216955"><ele>974.0000000000001</ele><time>2026-04-11T15:57:12.01Z</time></trkpt><trkpt lat="44.7813283" lon="7.216975"><ele>974.0000000000001</ele><time>2026-04-11T15:57:13.011Z</time></trkpt><trkpt lat="44.7814267" lon="7.2169917"><ele>974.0</ele><time>2026-04-11T15:57:14.01Z</time></trkpt><trkpt lat="44.7815183" lon="7.2170083"><ele>974.0</ele><time>2026-04-11T15:57:15.01Z</time></trkpt><trkpt lat="44.7816" lon="7.217025"><ele>974.0</ele><time>2026-04-11T15:57:16.01Z</time></trkpt><trkpt lat="44.7816883" lon="7.2170417"><ele>974.0000000000001</ele><time>2026-04-11T15:57:17.01Z</time></trkpt><trkpt lat="44.781785" lon="7.21705"><ele>974.0000000000001</ele><time>2026-04-11T15:57:18.01Z</time></trkpt><trkpt lat="44.78189" lon="7.21705"><ele>974.0</ele><time>2026-04-11T15:57:19.01Z</time></trkpt><trkpt lat="44.78199" lon="7.2170617"><ele>974.0</ele><time>2026-04-11T15:57:20.01Z</time></trkpt><trkpt lat="44.7820917" lon="7.2170767"><ele>975.0</ele><time>2026-04-11T15:57:21.01Z</time></trkpt><trkpt lat="44.7821967" lon="7.2170967"><ele>976.0000000000001</ele><time>2026-04-11T15:57:22.01Z</time></trkpt><trkpt lat="44.7822883" lon="7.2171183"><ele>977.0000000000001</ele><time>2026-04-11T15:57:23.011Z</time></trkpt><trkpt lat="44.7823833" lon="7.2171283"><ele>978.0</ele><time>2026-04-11T15:57:24.01Z</time></trkpt><trkpt lat="44.7824817" lon="7.2171733"><ele>979.0</ele><time>2026-04-11T15:57:25.011Z</time></trkpt><trkpt lat="44.782585" lon="7.217225"><ele>978.9999999999999</ele><time>2026-04-11T15:57:26.01Z</time></trkpt><trkpt lat="44.7826767" lon="7.2172767"><ele>979.0</ele><time>2026-04-11T15:57:27.01Z</time></trkpt><trkpt lat="44.7827517" lon="7.2173283"><ele>979.0</ele><time>2026-04-11T15:57:28.01Z</time></trkpt><trkpt lat="44.7828133" lon="7.2173617"><ele>979.0</ele><time>2026-04-11T15:57:29.01Z</time></trkpt><trkpt lat="44.782885" lon="7.2174317"><ele>978.9999999999999</ele><time>2026-04-11T15:57:31.01Z</time></trkpt><trkpt lat="44.7828317" lon="7.217485"><ele>979.0</ele><time>2026-04-11T15:57:34.011Z</time></trkpt><trkpt lat="44.7827183" lon="7.217455"><ele>984.3333333333333</ele><time>2026-04-11T15:57:36.01Z</time></trkpt><trkpt lat="44.7826417" lon="7.2174367"><ele>989.6666666666666</ele><time>2026-04-11T15:57:37.01Z</time></trkpt><trkpt lat="44.782565" lon="7.2174383"><ele>995.0</ele><time>2026-04-11T15:57:38.01Z</time></trkpt><trkpt lat="44.7824767" lon="7.2174517"><ele>1000.3333333333333</ele><time>2026-04-11T15:57:39.01Z</time></trkpt><trkpt lat="44.7823917" lon="7.21748"><ele>1005.6666666666666</ele><time>2026-04-11T15:57:40.01Z</time></trkpt><trkpt lat="44.782315" lon="7.2175383"><ele>1011.0</ele><time>2026-04-11T15:57:41.011Z</time></trkpt><trkpt lat="44.78224" lon="7.2176083"><ele>1011.0</ele><time>2026-04-11T15:57:42.01Z</time></trkpt><trkpt lat="44.7821633" lon="7.217685"><ele>1010.9999999999999</ele><time>2026-04-11T15:57:43.01Z</time></trkpt><trkpt lat="44.78209" lon="7.2177567"><ele>1010.9999999999999</ele><time>2026-04-11T15:57:44.01Z</time></trkpt><trkpt lat="44.78201" lon="7.2178367"><ele>1011.0</ele><time>2026-04-11T15:57:45.01Z</time></trkpt><trkpt lat="44.781935" lon="7.2179233"><ele>1011.0</ele><time>2026-04-11T15:57:46.01Z</time></trkpt><trkpt lat="44.7818533" lon="7.2180083"><ele>1009.4</ele><time>2026-04-11T15:57:47.01Z</time></trkpt><trkpt lat="44.7817583" lon="7.2181033"><ele>1007.8</ele><time>2026-04-11T15:57:48.01Z</time></trkpt><trkpt lat="44.78167" lon="7.2181867"><ele>1006.1999999999999</ele><time>2026-04-11T15:57:49.01Z</time></trkpt><trkpt lat="44.7815817" lon="7.2182583"><ele>1004.5999999999999</ele><time>2026-04-11T15:57:50.011Z</time></trkpt><trkpt lat="44.7814967" lon="7.218305"><ele>1003.0</ele><time>2026-04-11T15:57:51.01Z</time></trkpt><trkpt lat="44.781405" lon="7.218325"><ele>1008.5999999999999</ele><time>2026-04-11T15:57:52.01Z</time></trkpt><trkpt lat="44.781325" lon="7.2183417"><ele>1014.1999999999999</ele><time>2026-04-11T15:57:53.01Z</time></trkpt><trkpt lat="44.78123" lon="7.218405"><ele>1019.8</ele><time>2026-04-11T15:57:55.01Z</time></trkpt><trkpt lat="44.7812367" lon="7.2185233"><ele>1025.3999999999999</ele><time>2026-04-11T15:57:57.01Z</time></trkpt><trkpt lat="44.7813417" lon="7.2186333"><ele>1031.0</ele><time>2026-04-11T15:57:59.01Z</time></trkpt><trkpt lat="44.781415" lon="7.2186717"><ele>1031.0</ele><time>2026-04-11T15:58:00.01Z</time></trkpt><trkpt lat="44.7815067" lon="7.2187"><ele>1031.0</ele><time>2026-04-11T15:58:01.01Z</time></trkpt><trkpt lat="44.7815917" lon="7.2187217"><ele>1031.0</ele><time>2026-04-11T15:58:02.01Z</time></trkpt><trkpt lat="44.781685" lon="7.218755"><ele>1031.0</ele><time>2026-04-11T15:58:03.01Z</time></trkpt><trkpt lat="44.7817833" lon="7.21879"><ele>1031.0</ele><time>2026-04-11T15:58:04.01Z</time></trkpt><trkpt lat="44.7818817" lon="7.2188317"><ele>1033.0</ele><time>2026-04-11T15:58:05.01Z</time></trkpt><trkpt lat="44.7819833" lon="7.2188517"><ele>1035.0</ele><time>2026-04-11T15:58:06.01Z</time></trkpt><trkpt lat="44.7820967" lon="7.21887"><ele>1037.0</ele><time>2026-04-11T15:58:07.01Z</time></trkpt><trkpt lat="44.782215" lon="7.2188617"><ele>1039.0</ele><time>2026-04-11T15:58:08.01Z</time></trkpt><trkpt lat="44.782305" lon="7.2188483"><ele>1041.0</ele><time>2026-04-11T15:58:09.01Z</time></trkpt><trkpt lat="44.78237" lon="7.2188217"><ele>1041.0</ele><time>2026-04-11T15:58:10.01Z</time></trkpt><trkpt lat="44.7824567" lon="7.21885"><ele>1041.0</ele><time>2026-04-11T15:58:12.01Z</time></trkpt><trkpt lat="44.7825017" lon="7.2189267"><ele>1041.0</ele><time>2026-04-11T15:58:14.01Z</time></trkpt><trkpt lat="44.7824817" lon="7.2190417"><ele>1041.0</ele><time>2026-04-11T15:58:16.011Z</time></trkpt><trkpt lat="44.782395" lon="7.219145"><ele>1041.0</ele><time>2026-04-11T15:58:18.01Z</time></trkpt><trkpt lat="44.7823217" lon="7.2191917"><ele>1041.0</ele><time>2026-04-11T15:58:19.01Z</time></trkpt><trkpt lat="44.7822383" lon="7.2192383"><ele>1042.3999999999999</ele><time>2026-04-11T15:58:20.01Z</time></trkpt><trkpt lat="44.7821483" lon="7.219275"><ele>1043.8</ele><time>2026-04-11T15:58:21.011Z</time></trkpt><trkpt lat="44.7820633" lon="7.2193367"><ele>1045.1999999999998</ele><time>2026-04-11T15:58:22.01Z</time></trkpt><trkpt lat="44.7819917" lon="7.2194217"><ele>1046.6</ele><time>2026-04-11T15:58:23.01Z</time></trkpt><trkpt lat="44.7819217" lon="7.2195017"><ele>1048.0</ele><time>2026-04-11T15:58:24.01Z</time></trkpt><trkpt lat="44.78185" lon="7.219575"><ele>1048.8</ele><time>2026-04-11T15:58:25.01Z</time></trkpt><trkpt lat="44.7817717" lon="7.2196683"><ele>1049.6</ele><time>2026-04-11T15:58:26.01Z</time></trkpt><trkpt lat="44.7816833" lon="7.21975"><ele>1050.4</ele><time>2026-04-11T15:58:27.01Z</time></trkpt><trkpt lat="44.781585" lon="7.2198283"><ele>1051.2</ele><time>2026-04-11T15:58:28.01Z</time></trkpt><trkpt lat="44.781485" lon="7.219885"><ele>1052.0</ele><time>2026-04-11T15:58:29.011Z</time></trkpt><trkpt lat="44.7813767" lon="7.2199483"><ele>1053.0</ele><time>2026-04-11T15:58:30.01Z</time></trkpt><trkpt lat="44.7812833" lon="7.22001"><ele>1054.0</ele><time>2026-04-11T15:58:31.01Z</time></trkpt><trkpt lat="44.7812067" lon="7.2200717"><ele>1055.0</ele><time>2026-04-11T15:58:32.011Z</time></trkpt><trkpt lat="44.78114" lon="7.2201167"><ele>1056.0</ele><time>2026-04-11T15:58:33.01Z</time></trkpt><trkpt lat="44.7810583" lon="7.2201683"><ele>1057.0</ele><time>2026-04-11T15:58:35.01Z</time></trkpt><trkpt lat="44.780965" lon="7.2201667"><ele>1058.0</ele><time>2026-04-11T16:00:05.01Z</time></trkpt><trkpt lat="44.7808683" lon="7.2201033"><ele>1060.0</ele><time>2026-04-11T16:00:07.01Z</time></trkpt><trkpt lat="44.7808017" lon="7.2200617"><ele>1062.0</ele><time>2026-04-11T16:00:08.01Z</time></trkpt><trkpt lat="44.7807333" lon="7.220025"><ele>1064.0</ele><time>2026-04-11T16:00:09.01Z</time></trkpt><trkpt lat="44.7806567" lon="7.220005"><ele>1066.0</ele><time>2026-04-11T16:00:10.01Z</time></trkpt><trkpt lat="44.7805717" lon="7.22001"><ele>1068.0</ele><time>2026-04-11T16:00:11.01Z</time></trkpt><trkpt lat="44.7804733" lon="7.2200333"><ele>1070.0</ele><time>2026-04-11T16:00:12.01Z</time></trkpt><trkpt lat="44.7803683" lon="7.2200833"><ele>1070.0</ele><time>2026-04-11T16:00:13.01Z</time></trkpt><trkpt lat="44.7802533" lon="7.22013"><ele>1070.0</ele><time>2026-04-11T16:00:14.01Z</time></trkpt><trkpt lat="44.7801433" lon="7.22018"><ele>1070.0</ele><time>2026-04-11T16:00:15.011Z</time></trkpt><trkpt lat="44.78004" lon="7.220245"><ele>1070.0</ele><time>2026-04-11T16:00:16.01Z</time></trkpt><trkpt lat="44.7799483" lon="7.220305"><ele>1070.0</ele><time>2026-04-11T16:00:17.01Z</time></trkpt><trkpt lat="44.7798633" lon="7.22035"><ele>1074.0</ele><time>2026-04-11T16:00:18.01Z</time></trkpt><trkpt lat="44.7797883" lon="7.2203783"><ele>1078.0</ele><time>2026-04-11T16:00:19.01Z</time></trkpt><trkpt lat="44.7797067" lon="7.220405"><ele>1082.0</ele><time>2026-04-11T16:00:20.01Z</time></trkpt><trkpt lat="44.7796267" lon="7.2204067"><ele>1086.0</ele><time>2026-04-11T16:00:21.01Z</time></trkpt><trkpt lat="44.779545" lon="7.2203867"><ele>1090.0</ele><time>2026-04-11T16:00:22.01Z</time></trkpt><trkpt lat="44.7794583" lon="7.2203567"><ele>1094.0</ele><time>2026-04-11T16:00:23.01Z</time></trkpt><trkpt lat="44.7793717" lon="7.22029"><ele>1096.6000000000001</ele><time>2026-04-11T16:00:24.01Z</time></trkpt><trkpt lat="44.77928" lon="7.2202167"><ele>1099.2</ele><time>2026-04-11T16:00:25.01Z</time></trkpt><trkpt lat="44.77918" lon="7.2201633"><ele>1101.8000000000002</ele><time>2026-04-11T16:00:26.01Z</time></trkpt><trkpt lat="44.7790883" lon="7.220115"><ele>1104.4</ele><time>2026-04-11T16:00:27.01Z</time></trkpt><trkpt lat="44.7790167" lon="7.22006"><ele>1107.0</ele><time>2026-04-11T16:00:28.01Z</time></trkpt><trkpt lat="44.7789417" lon="7.2200433"><ele>1107.0</ele><time>2026-04-11T16:00:29.01Z</time></trkpt><trkpt lat="44.77887" lon="7.2200483"><ele>1107.0</ele><time>2026-04-11T16:00:30.01Z</time></trkpt><trkpt lat="44.7787583" lon="7.22006"><ele>1107.0</ele><time>2026-04-11T16:00:32.01Z</time></trkpt><trkpt lat="44.7788633" lon="7.2200383"><ele>1107.0</ele><time>2026-04-11T16:00:38.01Z</time></trkpt><trkpt lat="44.778955" lon="7.22003"><ele>1107.0</ele><time>2026-04-11T16:00:39.01Z</time></trkpt><trkpt lat="44.7790417" lon="7.21999"><ele>1107.0</ele><time>2026-04-11T16:00:40.01Z</time></trkpt><trkpt lat="44.7791283" lon="7.219895"><ele>1107.0</ele><time>2026-04-11T16:00:41.01Z</time></trkpt><trkpt lat="44.779195" lon="7.2197967"><ele>1107.0</ele><time>2026-04-11T16:00:42.01Z</time></trkpt><trkpt lat="44.7792633" lon="7.21972"><ele>1107.0</ele><time>2026-04-11T16:00:43.01Z</time></trkpt><trkpt lat="44.7793233" lon="7.2196767"><ele>1107.0</ele><time>2026-04-11T16:00:44.01Z</time></trkpt><trkpt lat="44.7794" lon="7.219605"><ele>1108.5</ele><time>2026-04-11T16:00:46.01Z</time></trkpt><trkpt lat="44.779365" lon="7.2194767"><ele>1110.0</ele><time>2026-04-11T16:00:48.01Z</time></trkpt><trkpt lat="44.7793133" lon="7.21942"><ele>1111.5</ele><time>2026-04-11T16:00:49.01Z</time></trkpt><trkpt lat="44.779245" lon="7.2193733"><ele>1113.0</ele><time>2026-04-11T16:00:50.01Z</time></trkpt><trkpt lat="44.7791667" lon="7.2193217"><ele>1114.5</ele><time>2026-04-11T16:00:51.01Z</time></trkpt><trkpt lat="44.7790867" lon="7.2192567"><ele>1116.0</ele><time>2026-04-11T16:00:52.01Z</time></trkpt><trkpt lat="44.77901" lon="7.2191867"><ele>1116.0</ele><time>2026-04-11T16:00:53.01Z</time></trkpt><trkpt lat="44.7789367" lon="7.219115"><ele>1116.0</ele><time>2026-04-11T16:00:54.01Z</time></trkpt><trkpt lat="44.778855" lon="7.2190383"><ele>1116.0</ele><time>2026-04-11T16:00:55.01Z</time></trkpt><trkpt lat="44.7787767" lon="7.2189683"><ele>1116.0</ele><time>2026-04-11T16:00:56.01Z</time></trkpt><trkpt lat="44.7786817" lon="7.2189083"><ele>1116.0</ele><time>2026-04-11T16:00:57.01Z</time></trkpt><trkpt lat="44.77858" lon="7.21885"><ele>1119.2</ele><time>2026-04-11T16:00:58.011Z</time></trkpt><trkpt lat="44.7784733" lon="7.2187933"><ele>1122.3999999999999</ele><time>2026-04-11T16:00:59.01Z</time></trkpt><trkpt lat="44.7783717" lon="7.2187333"><ele>1125.6</ele><time>2026-04-11T16:01:00.011Z</time></trkpt><trkpt lat="44.77828" lon="7.21868"><ele>1128.8</ele><time>2026-04-11T16:01:01.011Z</time></trkpt><trkpt lat="44.7781933" lon="7.2186033"><ele>1132.0</ele><time>2026-04-11T16:01:02.011Z</time></trkpt><trkpt lat="44.7781183" lon="7.21852"><ele>1132.0</ele><time>2026-04-11T16:01:03.011Z</time></trkpt><trkpt lat="44.778055" lon="7.2184267"><ele>1132.0</ele><time>2026-04-11T16:01:04.012Z</time></trkpt><trkpt lat="44.7780117" lon="7.2183233"><ele>1132.0</ele><time>2026-04-11T16:01:05.011Z</time></trkpt><trkpt lat="44.7780083" lon="7.218215"><ele>1132.0</ele><time>2026-04-11T16:01:06.011Z</time></trkpt><trkpt lat="44.7780467" lon="7.2181233"><ele>1132.0</ele><time>2026-04-11T16:01:07.011Z</time></trkpt><trkpt lat="44.7780833" lon="7.2180367"><ele>1132.0</ele><time>2026-04-11T16:01:08.011Z</time></trkpt><trkpt lat="44.7780967" lon="7.2179"><ele>1129.8333333333333</ele><time>2026-04-11T16:01:10.012Z</time></trkpt><trkpt lat="44.7780117" lon="7.21785"><ele>1127.6666666666665</ele><time>2026-04-11T16:01:12.011Z</time></trkpt><trkpt lat="44.77794" lon="7.21783"><ele>1125.5</ele><time>2026-04-11T16:01:13.011Z</time></trkpt><trkpt lat="44.777865" lon="7.2178067"><ele>1123.3333333333333</ele><time>2026-04-11T16:01:14.011Z</time></trkpt><trkpt lat="44.7777983" lon="7.2177983"><ele>1121.1666666666667</ele><time>2026-04-11T16:01:15.011Z</time></trkpt><trkpt lat="44.7777167" lon="7.2178583"><ele>1119.0</ele><time>2026-04-11T16:01:17.011Z</time></trkpt><trkpt lat="44.777735" lon="7.2179767"><ele>1119.0</ele><time>2026-04-11T16:01:19.011Z</time></trkpt><trkpt lat="44.77779" lon="7.2181317"><ele>1119.0</ele><time>2026-04-11T16:01:21.011Z</time></trkpt><trkpt lat="44.7777933" lon="7.218225"><ele>1119.0</ele><time>2026-04-11T16:01:22.011Z</time></trkpt><trkpt lat="44.777795" lon="7.2183267"><ele>1119.0</ele><time>2026-04-11T16:01:23.011Z</time></trkpt><trkpt lat="44.7777817" lon="7.21843"><ele>1119.0</ele><time>2026-04-11T16:01:24.011Z</time></trkpt><trkpt lat="44.77777" lon="7.2185433"><ele>1119.0</ele><time>2026-04-11T16:01:25.012Z</time></trkpt><trkpt lat="44.7777517" lon="7.218655"><ele>1121.1666666666667</ele><time>2026-04-11T16:01:26.012Z</time></trkpt><trkpt lat="44.7777533" lon="7.2187567"><ele>1123.3333333333333</ele><time>2026-04-11T16:01:27.011Z</time></trkpt><trkpt lat="44.7777517" lon="7.2188917"><ele>1125.5</ele><time>2026-04-11T16:01:29.011Z</time></trkpt><trkpt lat="44.77769" lon="7.21892"><ele>1127.6666666666665</ele><time>2026-04-11T16:01:32.011Z</time></trkpt><trkpt lat="44.77765" lon="7.2188"><ele>1129.8333333333333</ele><time>2026-04-11T16:01:34.011Z</time></trkpt><trkpt lat="44.7776267" lon="7.218705"><ele>1132.0</ele><time>2026-04-11T16:01:35.011Z</time></trkpt><trkpt lat="44.7776" lon="7.2186133"><ele>1137.5</ele><time>2026-04-11T16:01:36.011Z</time></trkpt><trkpt lat="44.77756" lon="7.21853"><ele>1143.0</ele><time>2026-04-11T16:01:37.011Z</time></trkpt><trkpt lat="44.7774983" lon="7.2184683"><ele>1148.5</ele><time>2026-04-11T16:01:38.011Z</time></trkpt><trkpt lat="44.7774217" lon="7.2184233"><ele>1154.0</ele><time>2026-04-11T16:01:39.011Z</time></trkpt><trkpt lat="44.7773317" lon="7.2183983"><ele>1159.5</ele><time>2026-04-11T16:01:40.011Z</time></trkpt><trkpt lat="44.777215" lon="7.2183933"><ele>1165.0</ele><time>2026-04-11T16:01:41.011Z</time></trkpt><trkpt lat="44.777095" lon="7.21839"><ele>1165.0</ele><time>2026-04-11T16:01:42.011Z</time></trkpt><trkpt lat="44.77698" lon="7.21838"><ele>1165.0</ele><time>2026-04-11T16:01:43.011Z</time></trkpt><trkpt lat="44.7768733" lon="7.2183817"><ele>1165.0</ele><time>2026-04-11T16:01:44.011Z</time></trkpt><trkpt lat="44.776765" lon="7.2183833"><ele>1165.0</ele><time>2026-04-11T16:01:45.011Z</time></trkpt><trkpt lat="44.7766617" lon="7.2183633"><ele>1165.0</ele><time>2026-04-11T16:01:46.011Z</time></trkpt><trkpt lat="44.776555" lon="7.2183317"><ele>1167.5</ele><time>2026-04-11T16:01:47.011Z</time></trkpt><trkpt lat="44.7764417" lon="7.2182967"><ele>1170.0</ele><time>2026-04-11T16:01:48.011Z</time></trkpt><trkpt lat="44.7763233" lon="7.2182483"><ele>1172.5</ele><time>2026-04-11T16:01:49.011Z</time></trkpt><trkpt lat="44.776205" lon="7.218195"><ele>1175.0</ele><time>2026-04-11T16:01:50.011Z</time></trkpt><trkpt lat="44.77608" lon="7.218135"><ele>1172.75</ele><time>2026-04-11T16:01:51.012Z</time></trkpt><trkpt lat="44.7759517" lon="7.2180617"><ele>1170.5</ele><time>2026-04-11T16:01:52.011Z</time></trkpt><trkpt lat="44.7758233" lon="7.21798"><ele>1168.25</ele><time>2026-04-11T16:01:53.011Z</time></trkpt><trkpt lat="44.775685" lon="7.2179033"><ele>1166.0</ele><time>2026-04-11T16:01:54.012Z</time></trkpt><trkpt lat="44.7755517" lon="7.2178333"><ele>1166.0</ele><time>2026-04-11T16:01:55.011Z</time></trkpt><trkpt lat="44.7754217" lon="7.21778"><ele>1166.0</ele><time>2026-04-11T16:01:56.011Z</time></trkpt><trkpt lat="44.7752967" lon="7.217745"><ele>1166.0</ele><time>2026-04-11T16:01:57.011Z</time></trkpt><trkpt lat="44.775165" lon="7.217725"><ele>1166.0</ele><time>2026-04-11T16:01:58.011Z</time></trkpt><trkpt lat="44.7750167" lon="7.217715"><ele>1170.0</ele><time>2026-04-11T16:01:59.011Z</time></trkpt><trkpt lat="44.7748783" lon="7.2177033"><ele>1174.0</ele><time>2026-04-11T16:02:00.011Z</time></trkpt><trkpt lat="44.7747317" lon="7.2176783"><ele>1178.0</ele><time>2026-04-11T16:02:01.011Z</time></trkpt><trkpt lat="44.7746067" lon="7.21766"><ele>1182.0</ele><time>2026-04-11T16:02:02.011Z</time></trkpt><trkpt lat="44.7744933" lon="7.2176333"><ele>1182.0</ele><time>2026-04-11T16:02:03.011Z</time></trkpt><trkpt lat="44.7743917" lon="7.2176233"><ele>1182.0</ele><time>2026-04-11T16:02:04.011Z</time></trkpt><trkpt lat="44.7743167" lon="7.217575"><ele>1182.0</ele><time>2026-04-11T16:02:05.011Z</time></trkpt><trkpt lat="44.7742417" lon="7.217495"><ele>1182.0</ele><time>2026-04-11T16:02:06.011Z</time></trkpt><trkpt lat="44.77416" lon="7.2173833"><ele>1182.0</ele><time>2026-04-11T16:02:07.012Z</time></trkpt><trkpt lat="44.7740733" lon="7.2172817"><ele>1180.75</ele><time>2026-04-11T16:02:08.011Z</time></trkpt><trkpt lat="44.7739683" lon="7.2171583"><ele>1179.5</ele><time>2026-04-11T16:02:09.011Z</time></trkpt><trkpt lat="44.773865" lon="7.2170467"><ele>1178.25</ele><time>2026-04-11T16:02:10.011Z</time></trkpt><trkpt lat="44.7737667" lon="7.21695"><ele>1177.0</ele><time>2026-04-11T16:02:11.011Z</time></trkpt><trkpt lat="44.7736717" lon="7.21685"><ele>1177.0</ele><time>2026-04-11T16:02:12.011Z</time></trkpt><trkpt lat="44.7735717" lon="7.21676"><ele>1177.0</ele><time>2026-04-11T16:02:13.011Z</time></trkpt><trkpt lat="44.77346" lon="7.216665"><ele>1177.0</ele><time>2026-04-11T16:02:14.011Z</time></trkpt><trkpt lat="44.7733533" lon="7.2165783"><ele>1177.0</ele><time>2026-04-11T16:02:15.011Z</time></trkpt><trkpt lat="44.773245" lon="7.2165183"><ele>1174.5</ele><time>2026-04-11T16:02:16.011Z</time></trkpt><trkpt lat="44.7731417" lon="7.2164467"><ele>1172.0</ele><time>2026-04-11T16:02:17.011Z</time></trkpt><trkpt lat="44.7730283" lon="7.2164083"><ele>1169.5</ele><time>2026-04-11T16:02:18.011Z</time></trkpt><trkpt lat="44.7729017" lon="7.21636"><ele>1167.0</ele><time>2026-04-11T16:02:19.011Z</time></trkpt><trkpt lat="44.7727833" lon="7.2163267"><ele>1170.0</ele><time>2026-04-11T16:02:20.011Z</time></trkpt><trkpt lat="44.7726667" lon="7.21631"><ele>1173.0</ele><time>2026-04-11T16:02:21.011Z</time></trkpt><trkpt lat="44.77255" lon="7.2163167"><ele>1176.0</ele><time>2026-04-11T16:02:22.011Z</time></trkpt><trkpt lat="44.772435" lon="7.216345"><ele>1179.0</ele><time>2026-04-11T16:02:23.011Z</time></trkpt><trkpt lat="44.7723217" lon="7.2163883"><ele>1179.0</ele><time>2026-04-11T16:02:24.011Z</time></trkpt><trkpt lat="44.77221" lon="7.216435"><ele>1179.0</ele><time>2026-04-11T16:02:25.012Z</time></trkpt><trkpt lat="44.7720933" lon="7.21648"><ele>1179.0</ele><time>2026-04-11T16:02:26.012Z</time></trkpt><trkpt lat="44.7719633" lon="7.2165283"><ele>1179.0</ele><time>2026-04-11T16:02:27.012Z</time></trkpt><trkpt lat="44.7718333" lon="7.2165533"><ele>1180.5</ele><time>2026-04-11T16:02:28.011Z</time></trkpt><trkpt lat="44.7717017" lon="7.2165517"><ele>1182.0</ele><time>2026-04-11T16:02:29.011Z</time></trkpt><trkpt lat="44.7715717" lon="7.21654"><ele>1183.5</ele><time>2026-04-11T16:02:30.011Z</time></trkpt><trkpt lat="44.771445" lon="7.2165217"><ele>1185.0</ele><time>2026-04-11T16:02:31.011Z</time></trkpt><trkpt lat="44.771305" lon="7.2164667"><ele>1185.0</ele><time>2026-04-11T16:02:32.011Z</time></trkpt><trkpt lat="44.7711783" lon="7.2164367"><ele>1185.0</ele><time>2026-04-11T16:02:33.011Z</time></trkpt><trkpt lat="44.7710433" lon="7.2163933"><ele>1185.0</ele><time>2026-04-11T16:02:34.011Z</time></trkpt><trkpt lat="44.7709117" lon="7.2163283"><ele>1185.0</ele><time>2026-04-11T16:02:35.011Z</time></trkpt><trkpt lat="44.770785" lon="7.2162433"><ele>1190.0</ele><time>2026-04-11T16:02:36.011Z</time></trkpt><trkpt lat="44.7706533" lon="7.2161683"><ele>1195.0</ele><time>2026-04-11T16:02:37.011Z</time></trkpt><trkpt lat="44.77053" lon="7.216085"><ele>1200.0</ele><time>2026-04-11T16:02:38.011Z</time></trkpt><trkpt lat="44.7704167" lon="7.21601"><ele>1205.0</ele><time>2026-04-11T16:02:39.011Z</time></trkpt><trkpt lat="44.77032" lon="7.2159367"><ele>1205.0</ele><time>2026-04-11T16:02:40.011Z</time></trkpt><trkpt lat="44.7702483" lon="7.2158883"><ele>1205.0</ele><time>2026-04-11T16:02:41.011Z</time></trkpt><trkpt lat="44.770185" lon="7.2158467"><ele>1205.0</ele><time>2026-04-11T16:02:42.012Z</time></trkpt><trkpt lat="44.7700933" lon="7.215775"><ele>1205.0</ele><time>2026-04-11T16:02:44.012Z</time></trkpt><trkpt lat="44.7700033" lon="7.2157417"><ele>1205.0</ele><time>2026-04-11T16:02:46.011Z</time></trkpt><trkpt lat="44.7699133" lon="7.21569"><ele>1205.0</ele><time>2026-04-11T16:03:38.011Z</time></trkpt><trkpt lat="44.7698267" lon="7.215675"><ele>1203.6</ele><time>2026-04-11T16:03:40.011Z</time></trkpt><trkpt lat="44.7697617" lon="7.2156517"><ele>1202.2</ele><time>2026-04-11T16:03:41.011Z</time></trkpt><trkpt lat="44.7696933" lon="7.2156267"><ele>1200.8</ele><time>2026-04-11T16:03:42.011Z</time></trkpt><trkpt lat="44.7696283" lon="7.215615"><ele>1199.4</ele><time>2026-04-11T16:03:43.012Z</time></trkpt><trkpt lat="44.7695017" lon="7.2156667"><ele>1198.0</ele><time>2026-04-11T16:03:45.011Z</time></trkpt><trkpt lat="44.7694" lon="7.2157533"><ele>1203.0</ele><time>2026-04-11T16:03:47.011Z</time></trkpt><trkpt lat="44.769355" lon="7.2158367"><ele>1208.0</ele><time>2026-04-11T16:03:49.011Z</time></trkpt><trkpt lat="44.76936" lon="7.2159517"><ele>1213.0</ele><time>2026-04-11T16:03:51.011Z</time></trkpt><trkpt lat="44.7694367" lon="7.2160467"><ele>1218.0</ele><time>2026-04-11T16:03:53.011Z</time></trkpt><trkpt lat="44.7695417" lon="7.2161483"><ele>1223.0</ele><time>2026-04-11T16:03:55.011Z</time></trkpt><trkpt lat="44.7695983" lon="7.216225"><ele>1223.0</ele><time>2026-04-11T16:03:56.011Z</time></trkpt><trkpt lat="44.76966" lon="7.2163183"><ele>1223.0</ele><time>2026-04-11T16:03:57.011Z</time></trkpt><trkpt lat="44.7697217" lon="7.2164133"><ele>1223.0</ele><time>2026-04-11T16:03:58.011Z</time></trkpt><trkpt lat="44.76978" lon="7.2165067"><ele>1223.0</ele><time>2026-04-11T16:03:59.011Z</time></trkpt><trkpt lat="44.7698333" lon="7.2165867"><ele>1223.0</ele><time>2026-04-11T16:04:00.011Z</time></trkpt><trkpt lat="44.7698933" lon="7.216655"><ele>1223.0</ele><time>2026-04-11T16:04:02.011Z</time></trkpt><trkpt lat="44.7697983" lon="7.21665"><ele>1227.5</ele><time>2026-04-11T16:04:06.011Z</time></trkpt><trkpt lat="44.7697383" lon="7.216605"><ele>1232.0</ele><time>2026-04-11T16:04:07.011Z</time></trkpt><trkpt lat="44.7696667" lon="7.216555"><ele>1236.5</ele><time>2026-04-11T16:04:08.011Z</time></trkpt><trkpt lat="44.7695783" lon="7.21652"><ele>1241.0</ele><time>2026-04-11T16:04:10.011Z</time></trkpt><trkpt lat="44.769615" lon="7.216605"><ele>1245.5</ele><time>2026-04-11T16:04:13.011Z</time></trkpt><trkpt lat="44.7696717" lon="7.2166483"><ele>1250.0</ele><time>2026-04-11T16:04:14.011Z</time></trkpt><trkpt lat="44.7697483" lon="7.2167133"><ele>1250.0</ele><time>2026-04-11T16:04:15.011Z</time></trkpt><trkpt lat="44.7698333" lon="7.2168"><ele>1250.0</ele><time>2026-04-11T16:04:16.011Z</time></trkpt><trkpt lat="44.76992" lon="7.216895"><ele>1250.0</ele><time>2026-04-11T16:04:17.011Z</time></trkpt><trkpt lat="44.7700117" lon="7.2169917"><ele>1250.0</ele><time>2026-04-11T16:04:18.011Z</time></trkpt><trkpt lat="44.770095" lon="7.217085"><ele>1250.0</ele><time>2026-04-11T16:04:19.011Z</time></trkpt><trkpt lat="44.77018" lon="7.217175"><ele>1252.8</ele><time>2026-04-11T16:04:20.011Z</time></trkpt><trkpt lat="44.7702583" lon="7.2172683"><ele>1255.6</ele><time>2026-04-11T16:04:21.011Z</time></trkpt><trkpt lat="44.7703317" lon="7.21736"><ele>1258.4</ele><time>2026-04-11T16:04:22.011Z</time></trkpt><trkpt lat="44.7704" lon="7.2174483"><ele>1261.2</ele><time>2026-04-11T16:04:23.011Z</time></trkpt><trkpt lat="44.77047" lon="7.217555"><ele>1264.0</ele><time>2026-04-11T16:04:24.011Z</time></trkpt><trkpt lat="44.7705417" lon="7.2176667"><ele>1264.0</ele><time>2026-04-11T16:04:25.011Z</time></trkpt><trkpt lat="44.7706133" lon="7.2177733"><ele>1264.0</ele><time>2026-04-11T16:04:26.011Z</time></trkpt><trkpt lat="44.7706783" lon="7.2178683"><ele>1264.0</ele><time>2026-04-11T16:04:27.011Z</time></trkpt><trkpt lat="44.7707467" lon="7.2179433"><ele>1264.0</ele><time>2026-04-11T16:04:28.011Z</time></trkpt><trkpt lat="44.7708233" lon="7.2180067"><ele>1264.0</ele><time>2026-04-11T16:04:29.011Z</time></trkpt><trkpt lat="44.7709083" lon="7.2180733"><ele>1264.0</ele><time>2026-04-11T16:04:30.012Z</time></trkpt><trkpt lat="44.7709967" lon="7.2181433"><ele>1264.0</ele><time>2026-04-11T16:04:31.011Z</time></trkpt><trkpt lat="44.7710883" lon="7.2182083"><ele>1264.0</ele><time>2026-04-11T16:04:32.011Z</time></trkpt><trkpt lat="44.7711817" lon="7.218295"><ele>1264.0</ele><time>2026-04-11T16:04:33.011Z</time></trkpt><trkpt lat="44.77127" lon="7.2183783"><ele>1264.0</ele><time>2026-04-11T16:04:34.011Z</time></trkpt><trkpt lat="44.7713517" lon="7.2184517"><ele>1266.8333333333333</ele><time>2026-04-11T16:04:35.011Z</time></trkpt><trkpt lat="44.77142" lon="7.218525"><ele>1269.6666666666665</ele><time>2026-04-11T16:04:36.011Z</time></trkpt><trkpt lat="44.7714817" lon="7.2185883"><ele>1272.5</ele><time>2026-04-11T16:04:37.011Z</time></trkpt><trkpt lat="44.7715683" lon="7.218685"><ele>1275.3333333333333</ele><time>2026-04-11T16:04:39.011Z</time></trkpt><trkpt lat="44.7716117" lon="7.2187633"><ele>1278.1666666666667</ele><time>2026-04-11T16:04:41.011Z</time></trkpt><trkpt lat="44.77161" lon="7.2188617"><ele>1281.0</ele><time>2026-04-11T16:04:45.012Z</time></trkpt><trkpt lat="44.7715433" lon="7.2188717"><ele>1281.0</ele><time>2026-04-11T16:04:48.011Z</time></trkpt><trkpt lat="44.7714833" lon="7.2188233"><ele>1281.0</ele><time>2026-04-11T16:04:50.011Z</time></trkpt><trkpt lat="44.77139" lon="7.2187367"><ele>1281.0</ele><time>2026-04-11T16:04:52.012Z</time></trkpt><trkpt lat="44.771325" lon="7.2186867"><ele>1281.0</ele><time>2026-04-11T16:04:53.011Z</time></trkpt><trkpt lat="44.77125" lon="7.2186417"><ele>1281.0</ele><time>2026-04-11T16:04:54.011Z</time></trkpt><trkpt lat="44.7711617" lon="7.2186067"><ele>1281.0</ele><time>2026-04-11T16:04:55.011Z</time></trkpt><trkpt lat="44.7710617" lon="7.2186067"><ele>1283.0</ele><time>2026-04-11T16:04:56.011Z</time></trkpt><trkpt lat="44.77096" lon="7.2186367"><ele>1285.0</ele><time>2026-04-11T16:04:57.011Z</time></trkpt><trkpt lat="44.7708433" lon="7.2186883"><ele>1287.0</ele><time>2026-04-11T16:04:58.011Z</time></trkpt><trkpt lat="44.7707067" lon="7.218725"><ele>1289.0</ele><time>2026-04-11T16:04:59.011Z</time></trkpt><trkpt lat="44.77056" lon="7.218735"><ele>1289.0</ele><time>2026-04-11T16:05:00.011Z</time></trkpt><trkpt lat="44.770425" lon="7.218755"><ele>1289.0</ele><time>2026-04-11T16:05:01.012Z</time></trkpt><trkpt lat="44.7703017" lon="7.2187967"><ele>1289.0</ele><time>2026-04-11T16:05:02.011Z</time></trkpt><trkpt lat="44.7701933" lon="7.2188317"><ele>1289.0</ele><time>2026-04-11T16:05:03.011Z</time></trkpt><trkpt lat="44.7700933" lon="7.218865"><ele>1290.8333333333335</ele><time>2026-04-11T16:05:04.011Z</time></trkpt><trkpt lat="44.7699933" lon="7.2188717"><ele>1292.6666666666667</ele><time>2026-04-11T16:05:05.011Z</time></trkpt><trkpt lat="44.769905" lon="7.2188767"><ele>1294.5</ele><time>2026-04-11T16:05:06.011Z</time></trkpt><trkpt lat="44.7698333" lon="7.2188633"><ele>1296.3333333333333</ele><time>2026-04-11T16:05:07.011Z</time></trkpt><trkpt lat="44.7697533" lon="7.21883"><ele>1298.1666666666665</ele><time>2026-04-11T16:05:08.011Z</time></trkpt><trkpt lat="44.7696783" lon="7.21878"><ele>1300.0</ele><time>2026-04-11T16:05:09.011Z</time></trkpt><trkpt lat="44.769605" lon="7.2187233"><ele>1300.0</ele><time>2026-04-11T16:05:10.011Z</time></trkpt><trkpt lat="44.7695383" lon="7.2186583"><ele>1300.0</ele><time>2026-04-11T16:05:11.011Z</time></trkpt><trkpt lat="44.7694717" lon="7.2185833"><ele>1300.0</ele><time>2026-04-11T16:05:12.011Z</time></trkpt><trkpt lat="44.7693983" lon="7.2184933"><ele>1300.0</ele><time>2026-04-11T16:05:13.011Z</time></trkpt><trkpt lat="44.76932" lon="7.2184067"><ele>1300.0</ele><time>2026-04-11T16:05:14.011Z</time></trkpt><trkpt lat="44.7692417" lon="7.218325"><ele>1301.5</ele><time>2026-04-11T16:05:15.011Z</time></trkpt><trkpt lat="44.76917" lon="7.2182467"><ele>1303.0</ele><time>2026-04-11T16:05:16.012Z</time></trkpt><trkpt lat="44.769105" lon="7.21819"><ele>1304.5</ele><time>2026-04-11T16:05:17.011Z</time></trkpt><trkpt lat="44.76903" lon="7.2181583"><ele>1306.0</ele><time>2026-04-11T16:05:18.011Z</time></trkpt><trkpt lat="44.7689583" lon="7.21813"><ele>1307.5</ele><time>2026-04-11T16:05:19.011Z</time></trkpt><trkpt lat="44.7688783" lon="7.21812"><ele>1309.0</ele><time>2026-04-11T16:05:20.011Z</time></trkpt><trkpt lat="44.7688067" lon="7.218115"><ele>1306.2</ele><time>2026-04-11T16:05:21.011Z</time></trkpt><trkpt lat="44.7686967" lon="7.2181367"><ele>1303.4</ele><time>2026-04-11T16:05:23.012Z</time></trkpt><trkpt lat="44.7686233" lon="7.2181383"><ele>1300.6</ele><time>2026-04-11T16:05:25.012Z</time></trkpt><trkpt lat="44.7685417" lon="7.218105"><ele>1297.8</ele><time>2026-04-11T16:17:41.013Z</time></trkpt><trkpt lat="44.7684417" lon="7.2181383"><ele>1295.0</ele><time>2026-04-11T16:17:43.013Z</time></trkpt><trkpt lat="44.7683283" lon="7.218145"><ele>1295.0</ele><time>2026-04-11T16:17:45.013Z</time></trkpt><trkpt lat="44.7682333" lon="7.2181283"><ele>1295.0</ele><time>2026-04-11T16:17:47.013Z</time></trkpt><trkpt lat="44.7681167" lon="7.2181233"><ele>1295.0</ele><time>2026-04-11T16:17:49.013Z</time></trkpt><trkpt lat="44.7680483" lon="7.2181217"><ele>1295.0</ele><time>2026-04-11T16:17:50.013Z</time></trkpt><trkpt lat="44.76798" lon="7.218115"><ele>1295.0</ele><time>2026-04-11T16:17:51.013Z</time></trkpt><trkpt lat="44.7678617" lon="7.2180883"><ele>1295.0</ele><time>2026-04-11T16:17:53.014Z</time></trkpt><trkpt lat="44.7677783" lon="7.2180433"><ele>1295.0</ele><time>2026-04-11T16:17:55.013Z</time></trkpt><trkpt lat="44.767735" lon="7.2179617"><ele>1295.0</ele><time>2026-04-11T16:17:57.014Z</time></trkpt><trkpt lat="44.7677017" lon="7.2178367"><ele>1295.0</ele><time>2026-04-11T16:17:59.013Z</time></trkpt><trkpt lat="44.7676183" lon="7.2177383"><ele>1295.0</ele><time>2026-04-11T16:18:01.013Z</time></trkpt><trkpt lat="44.7674983" lon="7.2177317"><ele>1297.0</ele><time>2026-04-11T16:18:03.013Z</time></trkpt><trkpt lat="44.7673983" lon="7.2177917"><ele>1299.0</ele><time>2026-04-11T16:18:05.014Z</time></trkpt><trkpt lat="44.7673383" lon="7.21784"><ele>1301.0</ele><time>2026-04-11T16:18:06.013Z</time></trkpt><trkpt lat="44.7672833" lon="7.2178917"><ele>1303.0</ele><time>2026-04-11T16:18:07.014Z</time></trkpt><trkpt lat="44.7671967" lon="7.2179617"><ele>1305.0</ele><time>2026-04-11T16:18:09.013Z</time></trkpt><trkpt lat="44.7671383" lon="7.21801"><ele>1307.0</ele><time>2026-04-11T16:18:37.013Z</time></trkpt><trkpt lat="44.7671367" lon="7.2181367"><ele>1310.3333333333335</ele><time>2026-04-11T16:26:24.014Z</time></trkpt><trkpt lat="44.7671817" lon="7.2182367"><ele>1313.6666666666667</ele><time>2026-04-11T16:26:26.014Z</time></trkpt><trkpt lat="44.7672167" lon="7.218315"><ele>1317.0</ele><time>2026-04-11T16:26:28.014Z</time></trkpt><trkpt lat="44.7672383" lon="7.2184117"><ele>1320.3333333333333</ele><time>2026-04-11T16:26:30.014Z</time></trkpt><trkpt lat="44.7672717" lon="7.218525"><ele>1323.6666666666665</ele><time>2026-04-11T16:26:32.014Z</time></trkpt><trkpt lat="44.76732" lon="7.2186133"><ele>1327.0</ele><time>2026-04-11T16:26:34.014Z</time></trkpt><trkpt lat="44.7673283" lon="7.2187117"><ele>1327.0</ele><time>2026-04-11T16:26:37.014Z</time></trkpt><trkpt lat="44.7673517" lon="7.2186167"><ele>1327.0</ele><time>2026-04-11T16:27:01.014Z</time></trkpt><trkpt lat="44.7673133" lon="7.218515"><ele>1327.0</ele><time>2026-04-11T16:29:00.014Z</time></trkpt><trkpt lat="44.767265" lon="7.2184233"><ele>1327.0</ele><time>2026-04-11T16:29:03.015Z</time></trkpt><trkpt lat="44.767235" lon="7.2183217"><ele>1327.0</ele><time>2026-04-11T16:29:06.014Z</time></trkpt><trkpt lat="44.7671833" lon="7.21822"><ele>1327.0</ele><time>2026-04-11T16:29:09.014Z</time></trkpt><trkpt lat="44.7671433" lon="7.218115"><ele>1307.0</ele><time>2026-04-11T16:29:12.014Z</time></trkpt><trkpt lat="44.7671117" lon="7.2180217"><ele>1307.0</ele><time>2026-04-11T16:29:15.015Z</time></trkpt></trkseg></trk></gpx>